GFSSE_500_rhum_000.txt.gz
RH
24 25 25 20 14 11 10 7 7 7 8 9 8 8 9 13 14 11 12 15 19 21 14 10 9 10 11 10 10 11 12 11 11 11 12 12 14 12 10 9 11 13 14
23 23 21 18 14 11 9 8 7 8 11 11 10 9 11 13 15 17 17 22 20 15 16 12 9 8 10 10 8 9 11 13 13 12 12 13 14 14 12 9 10 13 15
20 24 20 17 14 12 10 9 9 12 14 14 14 12 13 15 16 18 13 20 22 24 15 10 8 9 10 11 11 11 12 14 14 14 13 12 12 11 10 9 9 9 15
25 21 18 17 15 14 12 12 14 15 20 19 19 17 17 18 21 24 19 12 9 15 16 13 10 10 12 12 12 12 12 13 13 13 13 12 11 11 12 10 10 7 10
24 25 24 20 18 15 14 15 21 23 25 23 23 26 25 20 18 22 29 26 21 9 6 11 13 13 13 13 14 14 14 14 13 12 12 11 10 10 11 12 11 8 5
25 30 35 26 20 18 20 24 29 28 25 24 28 28 24 22 22 27 27 27 29 28 24 19 13 12 14 14 14 15 14 12 10 10 8 8 8 10 10 10 9 6 3
29 36 40 28 20 21 24 27 35 32 31 35 31 35 34 33 32 30 29 30 31 30 29 29 29 29 29 26 25 25 26 27 28 28 27 25 19 13 12 12 14 14 12
25 32 32 29 24 23 27 38 42 36 36 37 37 39 32 31 31 32 33 33 34 35 36 36 36 36 37 37 38 38 37 36 35 34 32 31 29 28 24 14 12 13 14
30 36 34 33 29 26 33 42 51 43 40 44 38 40 32 34 35 36 38 39 39 38 34 32 32 31 29 27 27 28 29 32 34 36 37 36 33 28 24 23 23 21 19
37 36 37 39 37 32 35 43 54 52 42 51 43 42 33 35 38 38 38 40 41 40 42 42 40 35 32 31 31 31 30 28 27 25 22 18 19 22 22 23 23 23 23
37 36 37 39 34 32 30 46 67 62 53 54 54 43 38 36 38 39 39 38 36 36 35 35 37 40 38 32 30 30 28 28 27 26 25 26 24 19 10 7 8 11 10
39 35 34 39 39 30 25 27 62 69 58 53 55 52 40 39 43 43 38 36 38 42 47 48 44 41 39 37 30 28 30 26 22 17 11 9 13 17 17 15 9 4 2
38 38 37 36 32 32 26 24 30 71 63 53 52 54 46 41 47 44 38 38 45 45 47 44 41 40 38 45 39 34 30 24 19 14 12 11 11 12 11 12 12 14 19
34 36 36 34 31 31 28 22 34 35 62 62 56 51 55 52 51 50 40 45 50 48 47 40 40 44 46 39 30 30 35 34 22 15 12 12 17 25 31 33 35 34 33
34 32 31 31 32 31 30 26 38 41 47 68 65 59 57 61 59 55 46 50 49 47 42 39 46 46 44 43 44 48 39 27 19 15 16 16 22 30 34 36 34 31 29
31 35 30 27 30 30 30 29 31 63 70 82 79 71 66 60 60 54 50 51 47 43 36 41 43 52 55 54 52 40 31 27 24 18 20 29 40 46 47 46 42 37 33
34 30 34 31 26 25 27 27 30 60 81 83 74 75 69 61 56 56 51 49 48 43 49 50 52 54 51 45 40 37 32 26 25 24 32 40 47 49 45 40 37 35 32
39 32 27 31 30 24 24 27 56 67 83 75 71 68 62 59 54 47 49 48 47 53 52 48 48 44 42 42 36 25 13 12 16 30 42 45 41 36 33 31 28 26 24
38 37 28 28 29 20 21 27 48 62 79 80 73 58 55 54 48 48 48 45 38 47 52 46 43 38 26 13 10 10 14 28 44 46 41 36 33 29 27 27 28 30 32
39 37 31 28 29 16 17 24 41 55 75 73 68 55 54 52 50 48 48 26 39 43 40 34 22 12 12 18 20 28 51 52 44 39 33 30 31 34 39 40 39 38 38
42 39 33 26 29 20 21 30 44 52 70 74 67 56 57 53 50 51 34 27 40 44 38 28 13 18 26 25 43 55 53 53 44 35 39 41 43 42 42 41 41 40 38
45 41 38 27 31 38 36 26 43 52 67 75 70 64 61 57 52 49 50 49 50 44 30 15 16 28 29 39 57 57 46 38 44 45 45 45 46 45 45 45 43 40 34
44 43 41 32 26 42 36 31 37 59 68 77 76 72 64 60 52 48 52 55 52 39 21 15 24 27 30 41 56 48 49 51 51 48 50 52 50 51 51 46 37 33 31
41 44 38 37 25 28 35 31 31 47 56 67 72 72 66 60 51 46 49 54 50 31 13 19 26 28 44 60 54 53 55 50 48 46 51 54 56 53 45 37 33 33 31
27 47 37 37 29 25 29 37 40 41 44 49 59 63 60 54 47 41 47 50 38 15 15 25 35 55 62 58 57 54 51 55 58 55 51 54 52 47 40 36 34 30 25
22 46 40 41 36 32 27 27 41 40 37 40 46 47 47 46 40 38 46 40 20 14 24 44 62 66 58 60 57 51 53 58 60 58 50 44 39 40 40 34 28 28 32

GFSSE_500_rhum_003.txt.gz
RH
15 22 28 26 22 16 12 10 8 7 7 6 7 8 7 7 9 10 10 10 12 17 21 20 13 11 9 10 11 10 10 11 13 13 13 13 13 13 14 14 13 11 9
19 26 26 24 21 17 13 10 9 7 7 8 8 9 8 8 10 11 10 12 15 19 15 17 17 13 9 8 9 9 9 11 13 14 14 14 14 14 14 13 12 12 9
21 26 26 22 19 17 14 12 10 8 10 11 11 11 10 10 12 13 14 13 16 21 21 22 15 10 9 10 11 13 13 13 14 15 14 14 12 12 12 12 12 12 9
20 22 20 16 15 15 15 13 10 11 13 16 14 12 12 13 13 17 20 18 12 9 14 17 15 13 11 12 12 13 13 13 14 14 14 14 14 13 12 11 10 12 12
44 28 29 27 14 16 16 15 14 16 20 22 18 18 17 16 15 16 19 25 26 23 17 9 8 11 14 13 13 13 14 14 14 13 13 10 9 9 8 9 10 10 11
98 94 56 36 36 20 19 19 19 24 28 27 24 25 23 24 23 20 22 24 27 27 28 28 26 25 24 22 18 16 16 18 20 20 22 25 25 26 23 19 14 14 13
65 52 51 45 29 24 24 22 22 32 34 33 36 34 35 34 32 30 30 27 30 31 31 32 33 33 33 33 34 34 34 34 33 34 34 34 34 34 33 32 30 25 15
34 31 44 40 34 29 28 26 33 42 40 38 38 39 38 32 31 31 32 33 34 34 34 34 34 33 33 33 32 31 30 32 33 34 36 37 36 36 36 35 33 28 24
33 36 37 44 35 33 33 31 33 44 49 41 42 42 43 33 33 35 38 38 39 39 39 38 38 38 37 35 32 31 30 30 30 29 29 28 27 25 22 20 21 26 27
29 31 46 44 38 37 36 31 29 34 54 51 45 47 46 38 38 39 39 40 39 37 34 32 31 33 34 34 38 38 32 30 30 29 26 24 24 24 26 27 23 16 12
31 40 43 41 38 40 37 33 27 34 54 61 51 54 50 45 38 38 41 42 39 35 35 36 40 39 41 41 37 36 37 33 28 27 25 20 18 15 10 12 20 22 21
33 42 47 41 37 40 38 33 26 24 54 73 64 56 57 52 42 39 43 44 42 37 37 43 47 44 32 38 33 35 39 34 30 28 28 24 19 14 11 11 11 13 12
34 36 42 40 39 40 38 34 30 22 29 57 70 57 53 55 52 42 46 49 43 38 44 50 49 37 33 37 39 44 38 31 34 38 30 24 21 22 18 12 15 18 31
33 34 37 38 36 35 33 32 29 22 29 35 59 67 58 58 54 55 51 55 49 44 45 48 46 32 35 41 43 42 44 45 39 33 30 28 26 22 21 22 20 23 24
35 33 34 34 35 34 32 31 30 28 30 42 42 65 69 62 59 59 63 57 57 48 42 48 44 33 38 40 48 49 50 46 42 39 34 28 26 22 22 29 34 37 41
36 38 36 32 30 29 30 30 31 32 29 46 57 56 68 68 66 64 59 56 55 47 49 46 45 42 45 45 46 45 43 44 40 32 21 15 17 24 32 45 49 49 46
37 36 37 39 34 30 25 25 33 43 42 35 68 79 77 74 71 64 57 55 49 49 48 46 50 50 49 48 43 41 37 22 16 14 13 16 24 35 42 44 40 37 34
43 40 37 36 34 32 30 31 39 41 45 53 62 82 71 71 66 62 55 49 47 47 46 40 40 53 50 42 35 21 14 23 20 20 37 50 49 44 38 33 31 29 29
46 46 41 38 36 29 28 37 47 38 44 52 58 76 69 66 56 53 49 46 48 47 46 29 41 42 34 26 14 19 28 26 30 47 52 48 44 37 33 33 37 41 44
28 48 48 42 36 34 28 31 35 33 42 44 51 69 72 61 49 47 47 49 48 47 22 31 42 43 36 18 13 28 31 32 47 54 48 49 42 45 49 48 47 45 42
11 30 50 47 41 38 31 31 37 30 26 37 52 69 74 61 50 52 52 51 50 48 47 47 49 43 25 13 17 32 35 42 55 52 46 48 51 50 46 45 48 49 45
14 16 38 46 44 41 36 33 40 40 29 44 56 74 77 69 58 59 58 54 49 47 52 55 53 40 18 14 27 38 49 50 53 47 48 53 51 51 55 56 53 52 51
17 14 29 48 44 41 48 42 49 52 39 48 60 68 80 80 71 67 64 59 52 47 47 48 49 34 15 17 30 40 46 52 52 53 52 51 52 56 57 59 61 57 51
18 14 16 36 45 40 45 50 39 49 41 37 52 70 78 79 76 76 69 62 52 46 44 43 43 27 14 25 37 44 50 52 51 46 49 50 56 62 61 59 56 52 50
22 16 15 24 42 41 45 46 36 40 44 29 33 45 52 58 63 63 59 52 46 43 40 40 38 15 16 35 48 51 54 52 48 50 52 54 62 48 54 55 56 57 50
28 20 16 18 39 45 48 48 39 33 39 41 42 43 40 44 47 46 43 40 39 43 38 37 17 15 27 41 56 54 52 55 58 56 59 60 54 50 50 53 63 54 48

GFSSE_500_rhum_006.txt.gz
RH
13 12 15 12 12 16 16 12 10 8 8 7 7 7 7 7 7 8 8 8 10 11 12 15 18 16 13 11 10 10 11 11 11 12 13 13 13 13 13 14 14 14 13
11 13 18 21 18 16 15 13 11 10 9 9 9 9 8 8 8 9 9 11 12 12 14 14 16 18 17 14 9 8 8 9 9 11 14 14 15 16 15 14 12 12 11
14 15 21 24 21 18 13 12 11 11 10 9 9 10 9 9 10 10 10 11 11 12 16 19 18 18 15 11 10 10 11 12 12 13 13 14 13 13 13 13 13 12 11
24 19 22 14 13 13 12 10 11 11 10 10 11 11 11 11 11 11 13 14 15 14 14 18 21 20 17 14 11 11 12 12 13 13 13 13 13 13 12 10 8 8 8
41 49 34 37 17 10 11 12 12 11 12 14 15 16 16 15 14 13 13 17 20 21 19 14 11 8 9 12 13 14 14 14 14 14 15 14 14 16 19 21 22 20 16
95 50 83 86 68 31 12 12 13 13 14 20 21 18 18 18 18 17 16 18 19 23 26 26 27 27 27 26 27 28 28 28 27 27 28 29 31 30 31 32 33 32 32
45 43 97 96 67 21 17 15 15 16 19 23 27 28 27 28 28 29 28 28 25 26 29 31 33 34 36 35 34 34 34 34 35 36 36 37 38 38 38 38 38 37 35
34 38 37 29 35 20 20 24 22 21 27 30 32 36 35 35 32 31 31 32 33 33 34 36 37 37 36 36 35 34 32 30 29 28 28 27 28 28 27 26 27 27 28
35 27 35 37 34 28 25 27 26 23 24 34 35 38 42 43 34 34 33 34 38 38 38 37 35 33 32 31 33 34 36 37 33 31 31 31 30 27 26 27 26 26 28
43 41 41 38 33 34 32 36 31 27 23 25 38 40 49 47 40 37 38 39 40 40 38 36 34 32 37 40 36 34 38 34 35 36 29 27 26 22 20 18 16 12 12
37 45 36 36 44 40 35 39 36 29 24 26 43 48 47 52 48 42 40 41 42 44 39 37 36 37 45 40 27 30 36 35 37 38 32 28 28 25 23 20 16 12 11
33 39 33 31 41 44 41 53 60 34 28 22 32 50 51 51 56 50 43 45 46 47 44 40 40 41 47 36 31 31 31 41 44 36 30 34 38 29 24 18 19 20 14
32 38 38 37 46 50 48 42 41 38 34 25 24 33 48 51 51 56 53 44 46 51 50 43 44 40 47 39 34 40 42 41 40 38 44 39 33 30 29 26 24 21 22
33 35 37 38 42 45 45 42 36 36 32 28 23 32 39 54 52 52 55 56 50 53 58 51 48 38 47 44 34 40 46 46 47 44 37 34 36 34 31 26 23 20 17
33 36 34 35 36 38 39 38 34 32 30 30 27 31 34 42 54 61 60 57 58 58 61 55 52 42 47 46 38 44 47 48 46 41 37 32 24 21 17 12 12 14 16
37 34 33 33 34 34 35 35 33 30 30 31 32 32 45 47 47 56 64 65 61 56 56 52 48 47 47 47 48 52 53 46 40 34 20 24 27 18 16 17 24 26 26
45 34 33 33 34 34 34 33 30 28 28 29 32 44 36 52 64 72 72 72 66 59 53 48 47 47 46 41 51 54 45 36 23 15 30 27 22 24 32 38 40 41 40
48 44 37 37 36 36 36 35 34 31 28 33 41 44 44 51 70 75 73 69 63 59 50 45 47 48 46 28 51 42 33 22 15 28 32 28 30 40 46 46 47 44 40
22 41 46 45 41 37 35 35 33 34 37 47 47 42 40 56 70 73 70 62 55 47 44 47 48 42 25 39 41 42 36 19 19 28 31 29 38 47 46 48 45 44 45
11 15 46 52 47 43 39 37 46 46 41 46 43 38 40 49 66 75 68 51 46 43 49 49 47 46 37 45 49 45 30 18 16 29 32 33 45 48 45 44 44 41 38
12 11 11 46 54 50 45 41 41 46 44 35 34 28 32 45 68 76 68 48 49 53 53 50 47 47 51 54 53 50 32 14 17 32 37 40 44 45 44 42 40 42 43
18 15 13 15 44 57 56 53 56 56 52 42 37 34 28 51 61 74 71 59 58 59 59 57 53 48 45 45 46 48 37 21 21 34 42 45 46 45 49 50 48 45 51
24 21 18 14 26 43 58 54 57 52 58 54 49 48 38 51 59 73 79 74 71 70 71 69 59 50 48 47 43 42 27 19 27 42 49 52 55 55 52 50 49 53 59
26 26 24 21 17 21 44 53 54 60 56 53 54 56 43 49 62 71 83 85 77 74 77 81 54 47 48 45 44 38 19 17 26 37 53 55 60 60 54 50 60 68 65
29 28 27 25 20 19 39 50 54 65 60 57 47 53 45 38 50 62 70 67 62 61 58 50 44 44 54 45 39 21 17 25 27 33 44 52 52 62 60 68 75 71 62
26 27 28 25 20 16 16 35 57 60 54 49 39 39 50 40 38 41 41 41 43 42 37 34 38 42 38 32 22 17 24 26 36 36 37 55 67 72 78 72 62 62 60

GFSSE_500_rhum_009.txt.gz
RH
7 5 6 8 8 10 12 12 11 9 7 6 6 5 5 6 7 8 8 8 8 9 12 14 16 16 16 14 12 10 10 10 11 11 11 12 13 13 13 13 13 13 13
6 7 6 7 8 8 8 9 10 9 8 7 7 6 6 7 8 8 8 9 10 10 13 15 14 14 16 16 16 14 9 8 9 9 10 11 13 14 15 15 15 13 12
10 10 11 9 8 10 11 10 10 9 8 8 7 8 8 8 8 9 9 10 10 11 13 17 18 18 17 17 17 12 11 11 11 11 11 12 13 13 13 14 13 13 12
21 18 14 14 12 12 10 9 9 9 9 9 8 8 9 10 10 10 11 11 11 12 13 14 15 16 19 19 17 15 12 11 12 12 12 13 13 14 14 13 12 10 12
30 21 24 26 43 28 11 10 9 10 9 10 11 11 11 11 11 12 11 11 14 16 17 14 12 11 11 10 10 11 12 13 14 14 15 15 16 17 18 19 24 27 30
67 62 50 42 58 72 30 28 12 10 10 10 12 12 12 12 12 13 13 14 15 15 19 25 24 24 27 29 30 32 31 32 32 32 32 31 32 32 32 34 37 36 35
70 87 81 48 36 72 75 39 12 14 14 13 16 17 18 18 19 20 20 21 19 19 21 22 27 30 34 34 34 34 32 32 30 29 28 28 29 31 31 31 32 31 32
54 32 39 26 28 44 39 17 14 15 18 21 28 26 27 27 25 26 26 28 29 30 32 33 36 36 37 35 34 34 35 36 36 34 31 32 32 31 30 30 30 30 29
48 39 47 26 23 24 22 15 17 19 21 20 27 30 31 34 35 34 31 31 32 34 37 38 38 36 34 32 30 29 30 31 34 35 37 37 32 30 28 26 22 20 19
24 25 24 31 30 29 27 21 21 25 29 25 22 25 29 34 41 44 37 35 37 41 41 41 38 36 35 32 34 39 25 21 28 34 36 33 34 32 27 25 24 23 20
24 21 22 25 34 28 27 25 25 30 31 28 24 25 32 37 45 52 46 41 42 43 43 43 40 38 37 35 38 44 28 25 25 32 37 40 36 30 28 30 29 25 22
28 26 25 26 34 30 28 31 33 34 48 40 31 24 28 43 44 52 56 48 42 43 44 46 44 42 39 38 39 47 33 37 34 31 35 32 29 35 40 34 30 30 28
34 29 28 30 35 32 30 39 40 38 37 32 32 31 24 29 52 55 54 57 54 45 43 48 51 48 46 40 38 47 38 37 42 44 45 44 46 39 33 32 30 27 23
40 35 29 30 36 34 35 42 41 39 38 34 30 29 27 23 27 43 55 50 49 55 55 48 49 53 52 43 41 46 46 35 39 45 48 44 38 36 31 27 25 21 16
48 40 34 33 35 38 34 42 40 39 38 35 32 30 29 27 29 37 39 46 47 49 50 53 55 54 56 46 40 46 47 45 41 44 45 38 34 28 24 27 24 20 16
46 46 39 32 32 35 36 34 41 36 36 35 33 31 31 33 33 34 43 41 46 51 57 57 54 54 54 48 42 46 45 45 46 48 43 35 22 26 31 25 18 17 18
22 49 46 39 33 33 34 33 34 36 33 32 31 30 29 32 41 40 38 49 63 70 71 72 65 58 51 46 46 47 46 36 51 44 34 26 22 31 32 23 19 22 25
15 20 42 47 42 35 35 37 36 37 34 32 34 30 30 38 43 45 45 56 74 74 74 69 65 61 50 46 48 46 33 39 42 41 37 24 22 28 32 28 24 30 34
11 12 15 31 46 43 36 37 41 39 42 36 32 33 36 45 49 44 40 57 72 73 70 64 53 47 45 48 47 37 31 41 50 48 42 35 19 21 29 30 27 34 37
15 12 8 11 25 45 47 42 42 42 44 42 42 51 43 42 44 41 46 51 59 75 70 54 44 45 50 48 48 49 50 50 50 51 54 52 31 18 25 30 30 35 41
20 19 15 10 12 14 31 52 52 48 46 58 54 50 46 43 36 33 40 43 56 74 73 50 50 54 55 56 53 50 49 46 48 49 49 48 31 17 25 29 29 30 32
15 22 21 17 13 10 13 36 51 59 58 58 56 58 60 51 40 42 29 43 57 74 76 60 60 62 64 67 66 58 50 52 53 51 51 45 22 21 26 27 28 31 36
14 15 20 18 19 15 12 15 19 46 60 61 64 64 58 56 52 51 33 46 59 74 77 77 73 76 77 77 76 66 44 45 52 51 40 21 19 24 26 34 41 41 42
16 18 16 17 19 21 16 16 12 21 52 60 63 63 63 60 61 67 55 52 58 68 75 81 86 84 76 69 57 42 41 47 48 38 23 20 21 31 46 53 54 53 56
19 16 18 15 21 22 22 20 17 13 16 63 60 68 65 66 54 59 50 44 44 59 68 73 65 50 47 42 36 36 41 41 33 24 18 24 23 30 35 38 51 62 64
19 18 20 15 22 23 25 25 22 17 17 62 61 62 62 62 48 42 53 59 45 39 42 44 42 36 28 22 28 29 27 26 21 20 18 21 26 41 45 53 63 65 52

GFSSE_500_rhum_012.txt.gz
RH
10 7 6 6 7 7 7 8 10 10 9 8 7 6 5 4 4 5 6 7 7 8 10 10 11 14 17 16 14 12 12 11 10 10 11 11 11 12 13 13 13 13 12
13 7 5 5 6 6 8 7 9 10 9 8 7 7 6 5 5 5 6 8 9 10 10 11 12 12 13 14 16 15 15 13 10 10 10 9 9 10 11 12 12 12 12
20 9 8 5 5 7 9 8 8 8 8 8 7 7 6 6 5 6 7 8 10 11 10 12 14 16 18 18 17 19 18 13 12 12 11 12 12 12 12 13 13 12 13
24 20 13 12 9 10 9 9 8 8 7 7 7 7 7 6 6 7 8 9 11 11 12 12 12 13 16 17 18 17 16 16 14 13 12 12 13 13 14 14 13 12 11
24 23 23 18 17 13 11 8 7 6 6 6 7 8 8 7 8 9 9 10 11 12 14 15 14 13 13 13 14 16 15 14 16 15 15 15 14 15 16 17 19 21 26
21 30 34 36 28 27 23 19 12 12 6 6 7 8 8 9 11 12 12 12 13 13 13 15 18 22 23 23 24 25 28 30 30 30 30 31 33 33 32 33 34 36 37
19 46 49 46 48 51 28 28 28 37 12 9 9 9 10 12 14 16 19 20 17 17 17 18 19 21 24 25 30 32 34 35 34 33 31 28 28 27 26 27 28 29 29
21 34 46 45 60 54 25 25 34 28 13 12 11 12 16 16 18 20 21 22 24 26 28 28 29 30 32 33 36 34 32 31 32 33 35 35 36 34 32 32 31 31 29
19 27 42 29 21 24 23 21 21 15 16 15 15 17 19 23 23 28 29 29 30 31 32 33 35 36 37 36 35 32 29 29 23 18 21 28 34 36 37 35 29 28 24
22 22 20 20 19 19 17 21 20 17 19 21 22 21 20 22 28 32 37 38 34 34 35 38 40 40 39 37 35 33 30 37 23 20 19 25 37 39 36 34 31 28 25
27 24 25 22 20 19 19 23 21 19 22 27 29 25 24 22 25 28 35 42 40 37 38 41 43 44 42 39 38 36 30 43 34 32 30 27 32 42 40 35 29 29 32
28 27 25 25 22 20 21 24 22 22 24 29 30 29 31 26 24 28 35 39 42 44 40 42 43 44 46 46 43 40 33 38 44 37 41 38 36 31 31 35 39 36 33
30 30 30 27 24 24 24 25 24 22 26 29 30 29 29 31 30 24 33 47 44 49 54 49 44 44 46 47 48 44 41 36 43 44 36 42 45 43 40 37 36 32 26
18 30 36 33 33 31 26 29 31 26 28 32 34 33 32 30 29 30 25 29 40 49 50 50 52 54 53 48 46 49 44 40 38 46 45 37 43 44 40 35 31 26 30
12 15 33 37 36 34 29 30 33 33 35 35 37 37 36 34 32 32 30 28 31 32 34 34 34 40 45 52 55 54 53 49 38 44 46 44 41 42 38 34 26 31 30
11 11 13 34 43 39 33 32 35 42 35 39 40 36 36 33 32 31 34 34 32 33 34 34 39 45 49 57 56 56 53 48 43 44 44 43 45 44 34 27 26 31 33
11 10 10 12 28 44 40 36 37 39 38 44 37 36 32 32 32 29 30 39 40 40 40 42 57 67 71 70 67 62 57 48 48 47 39 43 45 41 36 28 23 27 31
12 9 8 8 11 30 44 41 40 38 36 41 38 37 34 35 36 33 34 43 44 44 38 45 53 72 72 69 61 54 46 48 47 38 33 43 49 50 52 55 51 29 23
14 12 8 8 7 13 35 43 44 40 39 44 46 45 46 45 36 34 38 42 45 41 38 44 48 68 71 66 46 45 49 48 48 49 48 47 48 51 54 53 53 38 21
14 15 12 12 10 8 21 26 37 45 44 48 49 52 52 48 41 51 46 39 34 33 33 39 44 64 75 59 47 51 54 56 55 53 52 52 52 52 52 52 51 32 23
13 13 13 15 14 12 10 10 14 22 42 50 52 56 59 61 56 56 53 53 43 36 34 30 47 62 78 65 55 61 64 65 69 69 58 48 48 52 55 53 41 26 27
14 13 12 16 19 14 12 12 13 10 11 13 40 55 67 66 62 54 56 59 51 44 36 30 51 62 76 78 75 73 74 75 69 68 66 46 46 50 50 40 29 30 27
14 15 14 13 16 16 10 19 18 13 10 12 22 28 53 65 64 66 63 56 59 61 55 45 52 60 74 80 81 79 80 76 65 54 45 42 45 44 35 26 28 24 20
15 16 15 16 16 13 12 11 18 20 13 13 15 20 34 61 66 66 64 64 63 60 63 47 45 49 63 72 74 77 60 47 42 33 37 34 26 24 26 26 22 22 24
15 16 17 16 16 14 16 14 17 19 18 16 18 18 26 46 64 62 67 72 70 49 52 57 55 42 36 40 45 45 40 30 19 23 18 20 22 27 25 21 25 34 41
18 17 17 16 15 13 18 17 14 20 21 21 20 21 26 28 59 66 67 66 61 56 49 45 46 47 44 37 27 16 13 13 12 10 21 27 29 27 27 38 44 47 50

GFSSE_500_rhum_015.txt.gz
RH
14 13 10 5 6 5 5 6 7 8 9 8 8 7 6 6 5 4 4 5 5 7 7 8 9 11 13 14 15 15 14 12 13 12 10 10 10 11 11 11 12 12 12
20 16 9 6 6 6 7 6 7 9 9 9 9 8 7 6 6 5 5 5 6 7 8 8 10 12 13 13 13 13 14 15 14 11 12 12 11 10 10 10 11 11 12
29 22 12 8 6 7 8 6 6 6 7 8 8 8 7 6 6 6 5 5 6 7 8 9 11 13 13 15 16 17 18 18 17 15 13 12 12 12 12 12 12 12 12
23 28 20 18 12 10 8 8 8 8 8 7 7 7 7 7 7 6 6 6 6 8 9 11 12 12 13 14 14 14 13 13 13 14 14 14 14 14 14 14 13 13 14
15 17 19 24 24 15 10 9 10 9 7 6 6 6 6 6 7 6 6 7 8 9 11 12 15 14 13 12 13 14 17 20 21 22 23 24 24 26 26 22 18 18 19
14 13 13 21 30 29 20 16 12 11 8 8 6 6 6 6 7 7 7 8 9 10 11 13 15 17 18 18 17 17 20 23 24 26 25 26 29 31 31 30 30 32 32
15 14 14 17 30 38 41 42 29 17 15 14 10 6 7 7 8 9 11 12 14 14 15 16 16 18 19 20 22 25 27 28 28 32 32 33 34 33 31 29 28 28 30
18 18 18 21 37 27 30 41 42 18 24 29 20 9 8 8 10 12 16 19 22 22 23 25 25 26 28 30 33 34 34 33 32 28 25 21 22 28 34 36 35 34 32
19 20 21 19 23 22 18 16 16 14 16 16 13 12 13 13 14 15 20 24 29 30 31 32 32 34 36 36 37 37 36 30 28 35 25 22 18 16 25 33 36 36 34
21 21 21 20 20 19 19 17 16 17 18 18 16 18 18 20 20 20 23 25 28 32 32 34 35 37 41 40 39 38 38 36 33 37 37 30 27 23 26 39 42 39 35
22 24 23 22 22 21 21 20 19 19 21 20 19 20 24 25 24 23 27 27 30 34 39 36 37 42 44 44 44 42 40 40 39 34 41 36 34 34 32 33 42 41 33
15 20 24 29 30 26 25 23 21 21 21 22 22 23 25 29 30 29 26 25 29 34 39 44 40 42 44 46 47 47 46 44 44 42 36 43 41 39 41 41 39 39 37
7 12 17 19 24 29 28 26 24 22 24 25 23 25 29 29 30 34 32 29 25 26 34 41 45 50 46 45 45 46 46 49 53 51 43 38 46 42 39 43 42 42 40
11 9 10 9 14 25 31 32 30 26 26 29 26 26 30 34 34 33 34 34 30 26 26 30 36 44 45 45 49 52 55 54 54 53 52 47 41 47 45 40 45 44 36
10 10 9 7 8 12 26 33 36 33 28 30 28 28 32 34 38 37 34 34 32 30 30 30 31 31 32 32 36 42 45 50 55 57 55 50 45 47 45 46 45 44 24
7 8 8 5 4 6 10 20 36 38 35 33 35 36 34 37 38 35 33 33 30 30 30 31 34 34 35 37 48 59 62 65 64 60 56 49 49 46 39 51 50 37 28
7 5 6 8 5 6 10 18 27 39 43 41 39 38 39 39 42 33 32 34 32 32 33 37 38 38 33 38 45 62 68 68 63 59 51 48 44 35 37 45 50 49 54
7 6 7 8 7 6 6 24 14 32 47 46 42 37 40 40 41 40 38 41 32 33 35 36 38 37 35 39 40 58 70 62 48 47 47 48 50 50 50 49 51 53 55
10 9 8 10 10 8 14 12 25 25 36 45 48 47 48 50 46 49 52 44 36 50 43 37 32 28 31 35 40 54 71 57 49 52 54 54 54 52 51 53 53 53 53
12 12 11 10 12 11 10 16 19 18 26 36 47 54 53 49 51 54 53 57 52 53 51 50 47 37 34 30 38 51 71 66 55 60 65 70 72 74 71 58 49 49 51
12 13 12 9 9 11 30 26 12 16 17 18 28 35 52 57 58 63 62 61 61 54 57 52 53 49 41 31 39 55 66 77 72 71 76 77 78 72 66 58 51 46 52
13 15 14 10 8 9 14 23 22 21 20 25 23 18 20 27 41 44 54 63 65 64 66 57 56 56 59 46 47 55 64 72 78 81 77 77 71 57 50 41 43 44 41
14 15 16 13 10 10 11 25 32 32 35 41 36 26 19 21 22 40 44 58 66 70 67 64 65 61 64 61 47 45 48 57 62 63 58 51 45 40 27 32 29 23 22
13 14 13 13 12 11 12 16 18 24 22 29 27 28 25 23 27 28 28 44 58 62 65 71 73 59 49 54 58 57 51 46 45 44 40 23 14 15 17 16 19 27 32
12 13 16 15 14 12 11 17 20 25 24 29 36 36 33 33 33 29 21 27 46 60 63 70 67 67 62 55 48 43 38 35 32 28 18 14 13 15 26 31 32 32 31
14 12 13 17 16 13 13 13 15 20 22 32 40 35 32 42 30 32 27 43 40 58 65 67 64 67 66 57 51 47 42 36 31 27 30 36 38 38 33 33 34 36 40

GFSSE_500_rhum_018.txt.gz
RH
18 15 8 5 4 4 5 5 5 6 6 8 8 8 7 7 6 6 5 4 4 4 5 6 7 7 8 9 10 13 14 15 14 14 14 11 10 10 11 11 11 11 11
24 20 19 12 6 6 6 5 6 6 7 8 9 9 8 8 7 6 6 5 5 5 5 7 8 8 9 10 13 13 13 13 14 15 12 12 12 13 11 10 10 10 11
18 26 19 14 12 8 5 5 5 6 7 7 9 9 9 8 8 7 6 6 6 6 6 7 8 9 10 12 14 16 16 16 16 15 15 15 14 14 14 13 13 13 13
18 16 20 21 22 16 9 6 6 6 7 8 8 7 7 7 7 7 7 6 6 6 6 8 9 9 11 12 14 15 14 12 11 11 11 11 12 13 14 14 15 15 15
13 14 13 14 22 21 18 13 9 8 8 7 7 7 7 7 6 7 7 7 7 7 8 10 11 11 12 12 12 12 16 19 22 22 20 20 21 20 21 23 24 26 28
12 12 12 11 14 16 21 21 16 14 13 12 10 8 7 6 6 7 8 8 8 8 10 10 11 13 17 19 20 21 19 21 23 24 27 28 29 29 30 30 29 29 31
14 15 14 13 12 14 20 22 27 25 24 17 13 15 15 9 6 7 8 9 10 10 12 13 14 16 17 18 20 23 25 31 32 30 30 28 26 25 24 27 34 34 31
13 14 15 15 16 15 18 19 20 29 36 18 15 19 18 17 9 9 10 12 12 15 17 23 25 24 24 26 27 29 33 36 35 33 28 26 23 21 20 16 17 29 36
14 17 18 20 22 22 21 20 18 17 17 16 15 16 14 13 11 11 12 16 17 22 24 26 28 31 33 35 36 36 37 38 37 37 35 33 34 28 29 24 19 23 40
22 28 33 36 36 30 19 18 17 16 16 16 20 18 16 15 16 14 17 19 24 25 30 31 33 34 35 38 40 40 42 41 40 39 39 37 37 40 34 33 29 29 37
16 30 44 45 40 25 22 20 19 17 16 15 16 21 19 19 21 23 23 22 24 27 30 39 40 38 38 39 44 45 45 47 46 44 44 43 41 39 45 40 40 37 33
16 19 38 40 40 29 33 28 24 22 20 18 18 21 24 23 26 35 31 31 29 27 32 39 43 45 42 42 44 46 47 48 48 48 50 48 50 45 41 46 41 42 42
10 18 20 24 38 43 37 34 31 29 27 24 21 20 24 25 29 32 34 34 33 32 29 26 29 39 44 47 47 47 49 51 53 53 52 54 58 56 48 43 48 44 41
12 10 8 22 35 33 35 26 34 34 29 29 26 23 24 27 29 35 35 35 37 36 33 30 29 28 29 32 37 34 32 33 39 46 53 58 58 58 54 50 47 47 47
10 14 16 15 18 16 13 31 28 24 32 32 34 30 29 28 29 38 39 37 34 33 32 30 30 31 32 33 35 35 36 44 51 55 55 60 58 58 57 52 49 46 44
10 8 13 18 24 26 14 9 14 24 22 30 37 36 34 31 35 40 37 39 36 32 32 31 29 30 30 32 36 36 34 42 47 64 68 66 64 60 57 50 47 37 42
9 8 9 21 25 12 8 6 8 18 21 23 35 42 44 40 38 39 39 43 37 36 40 35 32 31 32 36 39 37 36 41 41 64 68 58 48 47 48 49 47 41 48
9 5 6 12 22 31 10 8 14 32 30 16 24 44 46 44 41 39 38 40 43 45 46 36 38 45 39 38 34 29 32 36 40 61 68 51 50 50 49 50 50 49 47
8 6 6 7 28 16 10 24 24 24 20 30 34 41 51 49 48 47 45 47 45 47 49 48 46 49 51 46 45 40 34 32 40 55 74 57 54 59 61 65 69 73 71
7 7 6 6 8 31 35 31 30 32 33 31 26 30 43 50 53 53 50 49 51 52 52 54 57 55 55 51 46 50 48 32 36 55 70 76 68 71 70 75 76 79 73
9 8 8 7 8 16 39 41 36 40 45 24 19 24 28 37 45 46 53 52 52 56 62 63 62 63 64 57 54 55 62 57 47 54 64 73 80 81 84 82 78 72 58
10 11 11 10 10 10 15 26 30 24 27 30 20 18 27 36 38 27 24 22 23 27 45 60 67 66 67 65 67 63 60 61 54 46 44 47 54 56 56 52 48 45 43
14 14 14 12 11 10 10 19 33 47 48 44 45 38 46 44 39 34 29 25 34 32 34 45 63 63 64 68 70 63 51 47 48 52 52 48 43 41 38 34 25 14 14
13 14 15 17 14 12 12 14 26 31 38 33 45 47 50 44 46 42 36 30 33 26 24 43 61 63 63 64 66 66 64 59 52 47 44 40 37 35 31 27 24 22 25
9 9 10 12 12 12 13 13 21 38 40 36 31 37 50 61 57 54 52 50 43 41 25 33 51 57 52 59 61 66 64 59 53 47 42 38 36 38 42 42 39 38 37
10 11 11 12 13 11 10 11 13 27 33 39 34 31 36 44 58 52 50 60 56 41 36 46 42 48 54 56 58 62 58 52 50 49 49 52 57 61 53 48 43 40 38

GFSSE_500_rhum_021.txt.gz
RH
18 16 14 8 5 5 3 3 4 4 4 3 4 6 7 6 6 6 6 6 5 5 5 5 5 6 7 8 8 9 10 12 13 14 13 13 13 11 10 11 11 10 10
21 24 24 16 13 8 4 3 4 4 5 5 5 7 8 8 8 7 7 6 6 6 5 5 5 6 7 8 8 10 11 12 12 13 14 15 13 12 13 13 12 12 12
21 24 18 21 21 16 10 6 3 3 4 5 5 6 8 8 9 8 8 7 6 6 6 6 6 7 8 9 10 12 13 14 15 15 16 15 14 15 15 14 14 14 14
18 16 14 13 22 22 18 13 7 4 4 4 4 6 6 6 6 7 8 8 8 7 6 6 7 8 10 11 12 14 15 15 14 11 11 12 15 17 20 22 23 24 25
12 12 11 11 13 16 18 17 17 14 9 7 7 7 6 6 6 6 6 7 8 8 8 8 9 10 11 12 12 12 10 12 16 20 22 23 24 25 27 28 28 28 29
10 12 12 11 10 12 13 13 16 20 19 17 13 11 10 9 9 7 6 7 7 8 9 9 10 12 14 17 18 19 24 25 24 25 26 29 30 29 26 25 26 27 30
12 12 13 13 11 12 13 12 12 14 18 25 26 23 18 14 13 12 9 8 9 9 11 12 12 13 14 17 22 26 28 27 30 32 33 34 30 28 25 21 19 18 16
12 12 14 15 15 15 16 15 14 18 23 22 25 18 13 14 16 16 15 11 11 13 15 16 20 22 22 21 23 27 30 33 34 36 36 36 36 35 32 28 26 26 20
13 16 16 16 15 17 21 21 17 16 20 18 17 16 17 16 15 14 14 13 14 15 17 20 22 23 27 28 30 35 36 38 38 39 39 39 40 39 38 36 34 32 29
11 12 15 15 17 20 24 30 25 18 17 16 15 16 17 18 17 16 16 16 18 18 20 25 27 28 30 31 36 37 40 42 42 41 42 42 42 43 43 40 39 41 39
10 11 23 34 41 39 33 33 24 20 19 17 16 16 18 20 21 21 22 24 25 24 24 26 29 35 40 38 38 39 41 46 47 47 47 49 48 49 50 50 44 42 45
7 9 16 25 34 37 39 37 28 25 26 23 20 20 18 20 21 25 28 32 30 31 31 30 28 30 34 40 44 43 43 44 46 47 47 46 44 47 49 55 56 48 44
7 6 8 20 32 38 41 37 32 29 30 26 24 24 22 20 21 24 28 34 34 35 35 34 32 30 28 27 32 41 46 48 47 48 49 44 45 52 56 55 59 58 52
9 8 8 12 18 23 23 33 45 40 31 22 28 30 28 26 24 28 29 31 34 38 38 36 34 33 31 30 30 31 32 33 33 34 34 36 40 40 39 48 59 59 57
13 15 19 19 23 22 22 29 30 21 21 30 28 23 30 32 31 29 34 34 36 39 38 36 34 32 30 29 29 30 32 35 36 35 34 38 43 59 63 63 61 60 60
10 25 29 26 23 24 23 24 21 15 21 22 19 26 30 36 36 34 33 34 39 40 39 37 34 33 32 30 28 30 34 38 38 36 38 38 41 61 66 60 56 53 50
8 10 15 24 26 26 31 32 27 25 18 21 20 26 34 38 40 40 41 41 38 38 42 43 40 42 38 33 39 38 38 40 37 31 32 37 40 61 65 51 48 48 48
7 7 7 7 15 22 31 41 41 18 14 16 28 44 34 38 46 48 47 44 40 41 41 44 46 49 47 42 46 45 45 43 44 44 36 33 40 56 68 53 54 56 59
8 8 6 6 6 11 24 38 47 46 30 25 34 30 32 31 46 55 51 47 49 48 48 46 45 46 49 51 53 53 53 54 45 44 51 34 38 53 70 68 59 64 72
8 8 7 6 6 6 12 28 49 50 48 46 43 29 30 34 36 44 54 54 54 53 49 47 49 49 56 60 63 63 61 56 46 50 58 62 54 55 61 69 75 74 73
8 8 8 7 7 8 17 19 35 54 68 64 48 43 37 26 22 32 41 50 54 46 36 36 36 35 37 55 63 66 65 52 60 60 55 61 59 51 46 44 48 53 54
9 9 10 9 7 7 9 11 9 14 33 57 62 60 51 21 20 31 39 40 34 24 23 22 29 31 31 40 54 58 58 59 65 62 57 53 48 46 46 46 44 41 38
10 12 12 11 9 7 8 12 14 14 13 25 40 62 51 50 39 34 38 43 40 31 26 25 30 22 20 26 36 49 54 59 60 60 59 56 52 49 46 42 39 36 33
13 14 14 15 14 10 10 9 28 26 18 20 41 50 64 74 69 57 55 58 58 52 42 36 34 30 24 22 31 38 44 48 48 51 56 52 48 45 42 40 39 39 39
14 14 14 13 13 13 13 13 14 22 23 26 24 34 53 64 68 74 71 66 57 59 60 54 50 45 32 32 36 37 41 42 43 45 47 50 50 45 42 40 38 38 38
12 11 11 11 11 12 11 10 10 11 20 29 40 42 56 58 62 67 63 60 71 68 64 65 62 55 44 48 48 47 46 41 43 33 43 46 47 48 44 43 43 43 44

GFSSE_500_rhum_024.txt.gz
RH
13 16 13 10 11 6 4 3 2 2 3 4 3 3 4 5 6 6 6 6 6 6 6 5 5 5 5 6 7 8 9 9 10 12 12 13 13 13 12 10 11 12 11
19 20 19 16 16 12 9 6 3 3 2 3 4 4 4 6 7 7 7 7 7 6 6 6 6 6 5 6 8 8 9 10 11 12 12 13 14 14 14 14 13 13 13
20 18 19 17 20 18 13 10 8 6 4 3 3 4 4 5 6 7 8 8 8 8 7 7 6 6 7 8 8 9 10 11 13 14 15 16 16 14 14 14 14 15 16
17 18 18 14 14 16 15 15 14 12 7 4 3 3 4 5 5 5 5 6 6 6 7 7 7 7 7 8 10 10 11 12 14 14 12 11 12 18 22 23 24 25 27
13 12 11 10 9 12 12 11 14 16 16 15 11 7 6 6 5 5 5 6 6 6 7 7 8 8 9 11 12 12 11 11 11 11 16 23 23 25 28 28 24 22 23
10 9 8 7 7 8 10 9 8 10 12 14 16 17 17 14 11 10 9 9 7 6 7 7 9 10 11 13 15 16 16 16 20 24 22 23 27 31 28 28 27 22 20
8 8 9 10 8 8 10 10 8 9 10 12 14 16 18 19 17 16 16 14 12 12 8 8 9 12 14 16 17 19 22 23 21 22 26 28 31 32 33 35 34 31 26
9 10 10 10 11 10 11 12 12 11 12 15 16 16 16 14 14 14 14 14 14 14 12 12 14 14 18 20 22 22 23 23 25 28 32 33 35 36 37 38 39 38 35
12 9 10 11 11 11 13 14 13 14 15 15 18 16 15 15 15 16 16 16 15 14 15 16 18 21 24 26 28 31 33 34 35 36 37 39 40 40 41 41 42 42 41
9 9 10 10 11 12 12 14 16 20 25 18 16 16 14 14 16 16 18 19 19 19 20 20 20 23 28 33 35 36 38 39 38 41 41 42 44 44 44 46 46 47 48
10 10 10 11 12 18 25 28 33 33 29 21 18 17 16 16 16 18 20 22 23 26 25 26 25 24 25 27 31 38 39 38 39 41 43 46 48 49 50 47 46 46 50
8 8 9 9 10 15 26 39 42 41 36 29 26 25 22 19 19 19 21 23 25 27 27 30 29 29 29 29 28 29 35 41 42 43 44 46 47 46 46 45 43 47 51
8 8 8 10 10 12 22 29 35 42 40 35 33 29 28 24 24 24 23 26 26 28 32 32 33 32 33 33 31 30 28 28 29 32 33 34 33 32 32 32 35 39 37
7 9 11 11 10 12 20 30 32 30 27 38 45 36 27 30 31 28 28 27 27 29 33 37 37 34 33 32 31 30 31 31 32 32 32 32 32 32 32 33 35 46 53
6 7 8 9 12 10 16 21 25 21 26 38 32 25 32 37 26 27 31 31 29 30 32 33 36 37 34 29 29 29 30 29 29 28 30 30 30 31 34 34 34 56 64
7 8 10 15 12 15 19 22 23 33 23 24 19 15 27 20 22 27 32 35 32 30 31 35 36 37 36 31 34 35 30 34 35 34 34 35 35 32 29 32 35 57 63
10 10 10 20 24 26 28 26 28 32 32 31 35 25 18 15 18 28 33 37 37 37 37 37 37 37 40 42 41 43 40 38 42 43 41 40 38 37 36 32 35 52 62
10 9 13 20 27 27 19 25 34 39 50 53 41 20 14 18 35 31 29 38 42 44 44 41 38 40 42 44 44 45 48 50 52 51 51 52 47 39 43 37 37 49 65
9 8 8 8 8 13 13 11 21 26 44 56 67 60 30 29 38 29 27 23 39 51 51 48 46 45 46 44 45 43 47 54 59 61 59 57 47 45 52 56 49 50 54
7 8 8 8 9 9 9 11 15 26 25 38 55 54 54 54 38 22 29 30 40 50 53 53 52 48 45 33 28 31 39 47 49 54 52 49 54 56 49 53 56 52 47
8 8 8 8 9 10 8 10 10 16 33 33 52 62 66 67 49 37 30 31 39 38 43 47 43 30 21 20 26 27 26 32 40 44 45 50 58 55 50 47 45 43 42
10 8 8 8 8 9 10 10 10 13 18 30 34 61 79 86 74 76 44 29 39 28 34 37 33 24 22 21 28 20 18 24 27 34 40 44 47 46 45 45 48 46 43
9 9 8 9 9 9 8 10 9 11 11 12 13 19 35 74 77 74 63 61 41 36 34 40 43 30 27 24 26 26 23 21 24 30 35 32 34 34 37 42 44 43 41
9 9 9 9 10 11 11 9 10 11 14 20 28 23 21 26 50 62 67 68 76 57 45 53 55 58 51 41 39 40 35 29 29 33 35 38 36 35 28 32 34 33 36
9 11 11 11 11 12 13 12 13 14 15 16 20 36 47 37 37 62 82 93 95 95 85 68 62 66 66 63 53 54 48 39 40 44 45 43 42 44 38 38 38 38 39
10 11 12 13 14 14 14 13 12 12 12 14 17 22 38 51 47 45 57 74 88 91 95 95 87 79 81 76 64 59 52 48 50 54 54 52 51 49 44 43 45 45 46

GFSSE_500_rhum_027.txt.gz
RH
7 8 13 12 9 6 5 3 3 2 2 2 3 4 3 3 5 6 6 6 7 7 7 6 6 6 6 6 6 7 8 8 9 10 11 12 12 12 13 13 11 12 13
13 15 16 16 13 9 7 7 6 4 3 2 2 3 3 3 3 5 6 7 7 7 7 7 7 7 7 6 7 7 8 9 9 10 12 12 13 14 14 14 14 14 14
18 18 17 16 16 14 13 13 11 9 8 6 4 3 3 4 4 4 4 6 7 7 7 8 7 7 7 7 8 8 10 10 11 13 14 15 15 14 13 12 13 16 18
20 19 16 15 16 14 13 12 13 13 12 11 6 4 3 3 4 4 4 4 4 5 5 6 7 7 7 7 7 8 9 11 12 13 14 13 12 11 16 19 18 20 20
15 15 14 13 12 11 11 9 10 10 10 12 13 12 10 7 5 4 5 6 6 6 6 6 7 8 8 9 9 10 10 11 12 11 11 12 18 19 18 20 22 23 23
12 11 9 8 8 6 7 6 6 7 7 7 7 8 10 12 13 13 10 10 9 8 8 8 7 8 8 9 10 12 14 14 16 16 20 23 20 20 24 27 30 32 32
10 10 9 8 7 7 7 8 7 6 7 8 9 9 9 10 12 12 11 12 13 14 14 13 11 9 9 10 11 12 14 15 18 21 23 23 25 28 30 31 34 35 37
9 10 10 10 9 9 9 8 9 7 7 8 7 8 10 10 10 11 12 13 12 12 12 13 12 12 12 12 14 16 19 21 23 25 27 32 33 34 36 37 39 40 41
11 11 12 12 11 9 9 10 10 10 9 8 12 13 14 13 11 11 11 12 14 15 16 16 16 17 18 17 21 22 25 29 31 33 35 37 37 38 38 40 42 44 47
10 10 10 11 11 11 11 10 14 14 16 20 23 20 15 14 12 10 10 10 14 16 20 21 20 20 22 23 23 26 27 29 33 36 37 39 40 41 41 43 46 46 48
9 11 11 10 11 10 11 10 17 24 29 35 31 25 19 15 14 14 13 12 15 17 20 22 24 24 24 25 26 26 27 27 30 34 37 38 41 42 43 44 44 42 43
8 8 8 8 8 9 10 11 16 24 39 41 43 35 30 25 22 19 16 16 17 18 19 20 23 24 24 27 29 30 30 29 28 28 29 32 39 40 38 35 32 32 30
10 12 8 7 7 7 8 9 13 23 35 41 45 40 34 37 32 25 21 22 21 20 20 24 26 25 26 27 28 29 29 30 30 30 30 30 31 32 32 31 29 30 31
9 9 9 8 9 9 10 15 11 20 31 37 36 29 35 40 36 23 24 26 23 24 24 26 27 30 31 29 27 26 26 25 26 27 27 28 28 27 25 26 25 25 30
11 12 14 10 10 8 9 11 10 15 17 20 22 22 31 33 23 20 26 17 16 21 26 28 29 29 31 32 32 29 26 25 27 27 28 30 33 34 33 30 31 31 28
11 11 8 9 10 10 10 10 15 31 21 31 48 36 22 21 15 15 16 14 19 18 20 29 30 29 32 34 34 33 32 33 35 35 36 37 40 41 40 39 40 37 35
10 9 12 11 10 17 19 19 24 26 32 28 33 43 45 29 30 16 15 14 22 22 21 26 31 32 36 37 35 35 38 41 42 42 42 44 50 50 53 52 49 42 39
9 10 8 9 13 11 19 24 26 38 45 45 32 35 45 45 34 15 13 22 32 21 22 28 31 35 40 40 39 42 43 43 42 39 34 42 52 55 46 44 38 48 51
7 8 9 8 9 10 17 28 30 34 36 32 42 45 56 65 71 48 25 30 32 24 24 22 30 37 45 44 43 42 40 31 24 25 27 31 29 30 36 44 50 49 44
8 6 7 8 8 10 10 12 12 20 28 26 27 36 40 58 71 70 52 44 33 23 27 24 22 31 39 40 40 37 19 20 22 19 20 22 24 26 32 40 41 44 46
9 8 6 7 9 9 10 10 11 12 15 19 18 20 32 35 51 63 62 72 62 30 29 26 24 27 28 31 24 18 17 26 22 16 15 20 25 27 25 25 30 29 30
8 8 7 6 7 8 8 10 10 10 11 14 23 21 25 38 45 71 82 81 75 68 42 40 46 26 29 31 26 20 22 22 27 24 22 22 24 27 30 32 31 31 28
8 8 7 6 6 8 8 8 8 10 10 13 18 22 19 32 40 55 76 87 91 87 78 71 39 31 36 36 42 37 33 32 33 33 34 32 30 32 33 37 36 39 37
8 8 7 7 7 8 9 8 8 8 10 13 15 16 16 21 22 30 37 57 74 96 84 82 74 57 45 45 50 60 54 51 51 50 48 46 41 40 43 44 43 44 42
10 9 8 8 8 8 8 8 9 8 8 11 14 15 16 21 32 37 42 38 44 64 87 90 94 98 94 70 64 73 78 79 72 62 55 51 46 46 51 52 50 51 52
11 11 10 10 9 9 8 9 10 11 12 12 14 15 17 18 20 25 39 52 52 58 77 95 94 97 97 96 97 96 91 79 78 72 68 63 54 56 57 59 56 57 72

GFSSE_500_rhum_030.txt.gz
RH
6 6 7 7 8 6 6 4 2 2 2 2 2 3 4 5 4 3 4 6 6 6 6 6 6 6 6 6 6 7 7 8 9 10 10 11 12 13 13 13 13 13 13
9 10 12 13 12 11 10 8 6 6 6 4 2 2 2 2 3 3 2 4 6 7 7 6 6 6 6 7 7 7 8 9 10 10 11 11 12 14 14 14 14 13 12
13 15 16 17 16 15 13 13 12 11 10 8 7 6 4 3 2 3 3 3 4 5 6 7 7 7 6 6 8 8 9 10 11 12 13 13 14 15 15 12 12 18 17
20 21 20 18 16 15 15 14 12 12 13 13 12 10 8 5 4 3 3 3 4 4 5 5 5 5 6 7 8 9 9 10 11 12 13 13 13 12 12 18 18 19 21
21 19 17 15 14 14 13 11 10 8 9 9 9 11 11 12 11 9 8 5 4 5 5 5 5 6 6 7 7 8 9 10 11 12 12 12 12 16 21 20 23 26 28
15 14 13 12 10 9 7 7 5 5 5 5 5 5 5 6 7 7 9 11 10 10 9 8 6 8 8 7 7 8 9 10 11 12 12 15 20 23 22 23 28 30 33
14 12 11 10 9 8 7 8 7 6 6 6 6 5 5 5 6 6 7 6 7 8 9 11 12 12 13 11 11 10 10 11 13 15 17 20 21 22 26 29 32 34 37
12 11 10 9 8 8 8 7 7 6 5 6 6 6 6 8 9 10 10 10 9 10 11 11 12 11 12 12 12 13 14 16 20 23 24 25 27 29 31 34 36 37 39
10 10 11 11 10 9 9 7 6 6 6 6 9 11 15 17 15 13 10 8 8 9 11 13 14 16 16 16 15 16 17 18 20 24 27 30 34 35 35 36 39 40 43
11 11 10 12 11 10 9 7 7 8 8 10 17 23 26 22 17 15 13 10 10 9 10 13 16 19 19 18 18 20 20 22 22 24 26 27 29 32 35 36 40 42 43
12 11 12 10 9 8 8 8 8 8 11 16 21 30 32 29 24 21 17 15 13 11 11 13 14 13 17 20 21 25 27 28 28 29 29 29 30 32 35 37 40 42 40
6 6 7 7 7 8 8 8 8 9 10 13 18 29 31 34 31 26 26 22 18 14 14 14 13 14 18 22 23 27 29 30 29 29 30 29 29 29 29 30 32 32 30
7 7 7 8 8 8 7 7 7 8 8 11 15 27 33 33 29 30 36 31 18 18 17 15 14 17 20 23 24 24 23 24 26 25 24 25 26 28 28 28 27 26 27
9 8 8 8 9 7 7 7 7 11 11 9 13 24 32 31 22 25 32 26 19 21 16 13 15 20 25 26 26 25 24 24 24 24 24 24 24 25 27 31 33 35 34
15 11 9 10 10 12 11 8 8 8 12 21 13 16 20 20 18 20 24 14 13 17 12 12 15 21 26 27 28 28 28 28 28 26 30 32 32 33 35 38 42 40 40
10 9 8 9 10 10 10 10 10 9 11 18 48 33 21 33 40 33 22 20 12 10 9 13 16 19 24 25 26 28 30 32 33 34 36 38 37 36 37 40 41 42 42
10 9 8 8 9 10 10 10 13 14 16 24 36 39 38 23 28 41 37 29 22 13 13 16 21 18 21 21 24 29 33 35 36 38 42 41 33 27 27 29 27 27 32
11 10 9 8 8 8 8 12 11 16 17 21 31 36 44 51 46 38 39 39 31 14 12 23 28 18 19 21 26 32 34 39 42 42 38 22 18 18 19 20 23 29 34
11 10 8 7 7 9 9 8 12 16 19 23 28 38 46 43 44 59 51 58 69 39 20 27 30 23 21 18 26 32 36 39 38 33 19 19 17 18 19 20 20 20 22
10 9 9 10 9 8 9 10 10 12 15 15 26 37 44 42 40 52 65 61 65 68 50 37 33 23 26 23 24 27 33 34 30 17 21 18 15 15 19 22 23 23 23
10 9 10 9 10 10 8 7 10 10 12 14 11 12 14 19 38 55 49 66 74 79 64 61 64 28 28 25 23 28 27 28 20 16 22 25 22 20 21 20 21 23 27
10 10 9 9 9 9 8 7 6 9 10 10 15 10 18 14 27 41 43 48 61 68 73 70 78 70 41 37 44 29 28 30 25 21 22 23 25 27 30 31 29 28 30
10 9 9 9 9 9 8 8 6 6 9 10 10 10 12 13 17 24 42 48 40 63 80 93 91 90 74 61 41 32 32 35 40 40 40 43 43 43 43 43 42 38 37
9 8 7 8 7 8 8 7 7 7 6 9 10 10 11 12 14 17 49 41 37 43 64 83 98 100 96 85 76 65 45 40 44 55 56 56 62 61 57 53 47 46 46
12 14 15 14 13 12 11 10 8 8 8 9 10 12 14 17 17 17 34 63 48 50 54 54 76 96 99 92 85 86 88 89 86 65 76 93 86 76 70 65 64 60 54
15 14 14 12 12 11 10 10 9 9 9 9 10 11 14 17 20 20 22 52 56 44 49 61 56 58 62 68 90 99 96 97 98 96 96 96 94 93 84 83 84 78 64

GFSSE_500_rhum_033.txt.gz
RH
6 5 5 4 4 5 5 4 4 3 2 2 2 2 2 2 3 4 4 3 3 4 5 6 6 6 6 6 6 6 6 7 8 9 11 12 12 13 13 13 14 14 14
7 7 7 8 8 9 10 10 9 7 6 5 5 4 3 2 2 2 2 3 3 3 4 5 6 6 6 7 6 6 7 8 9 10 11 12 13 14 15 16 16 14 12
10 10 12 12 14 15 15 14 13 13 12 12 10 9 8 6 4 3 3 3 3 3 3 4 5 6 6 6 6 6 7 8 8 9 11 12 12 14 15 14 11 15 17
15 16 18 19 18 18 16 15 14 13 12 12 12 12 12 11 10 8 6 5 4 3 4 4 4 4 5 5 6 6 7 8 8 9 10 11 12 12 11 12 19 19 20
22 23 22 20 17 14 14 13 12 10 8 7 7 7 7 8 9 10 11 11 11 11 8 6 6 5 6 6 6 6 6 7 8 9 10 11 12 13 16 23 22 22 27
25 22 17 14 13 11 10 8 7 6 5 4 4 4 4 4 4 3 4 4 5 6 7 9 10 11 12 12 12 11 9 9 10 10 12 14 15 18 22 24 24 26 30
21 17 15 13 11 10 9 8 6 6 5 5 4 3 3 3 3 3 3 3 4 4 5 6 7 8 10 10 11 11 11 11 11 12 13 15 18 23 23 24 27 31 33
17 17 16 13 10 9 7 6 6 6 4 4 4 3 3 4 5 8 10 11 10 8 7 7 7 7 10 10 11 13 13 14 14 16 17 20 22 26 30 32 33 34 36
16 15 14 12 10 8 7 6 6 6 4 3 4 5 6 12 17 19 17 15 13 9 6 6 6 6 8 13 15 16 17 17 17 17 19 21 24 27 30 33 35 37 38
13 12 11 10 9 8 7 7 6 4 4 5 4 6 14 21 24 23 21 19 16 12 11 10 8 8 9 10 13 14 16 20 22 23 25 27 28 28 29 30 32 33 34
11 10 9 9 8 8 7 6 5 4 5 6 6 5 11 20 24 27 26 24 20 18 15 11 8 9 10 10 13 19 20 23 26 28 29 29 29 28 28 28 28 29 29
11 11 10 9 6 5 5 5 6 6 5 5 6 6 7 12 20 27 29 26 28 28 20 10 12 12 12 12 14 17 19 21 22 22 24 24 23 24 24 26 28 28 27
6 5 5 5 4 5 5 6 6 6 6 5 6 6 7 8 16 24 27 20 25 28 18 15 15 13 11 13 15 17 18 19 18 16 18 23 24 23 23 24 25 28 31
6 6 6 6 6 6 6 8 7 6 6 6 7 12 10 9 13 21 20 16 22 25 16 15 17 12 10 11 14 17 20 21 22 21 24 25 24 26 29 30 31 30 31
8 7 7 8 7 7 7 7 7 9 9 8 7 7 10 26 16 12 22 24 18 18 15 11 12 11 10 12 13 17 22 25 27 24 28 28 29 30 34 35 34 28 23
9 11 12 14 12 9 9 10 17 10 8 8 8 8 12 21 40 39 23 27 38 37 23 22 13 12 10 16 16 15 20 25 27 27 31 32 33 34 36 30 20 16 19
9 8 9 9 9 9 9 9 9 6 6 7 10 11 13 24 36 42 40 35 27 37 35 28 22 13 13 20 21 17 18 21 26 28 32 35 37 33 26 13 14 18 20
10 11 11 10 9 8 8 8 8 8 7 7 8 9 16 18 29 41 50 53 52 44 41 44 38 15 12 22 28 17 18 24 29 33 33 38 36 25 15 15 15 16 16
10 10 10 10 10 9 9 8 14 17 18 17 13 12 16 20 27 32 44 45 50 56 55 52 58 62 36 24 27 21 21 19 27 35 38 34 28 16 16 16 17 19 20
10 11 11 12 12 11 10 9 9 10 12 13 11 17 19 16 16 15 21 34 49 47 53 68 66 67 68 48 39 26 25 21 25 34 34 33 22 17 19 15 14 16 19
11 11 12 13 12 11 10 9 10 9 10 10 8 10 11 12 14 16 13 13 17 23 47 60 68 75 83 76 63 50 27 23 23 30 32 31 19 16 21 23 23 24 26
11 10 12 12 11 11 10 10 9 9 9 9 8 9 10 12 13 14 16 14 18 18 30 46 51 53 62 79 77 75 64 40 37 41 30 31 27 21 20 22 26 31 36
10 11 11 11 10 10 9 9 8 8 8 8 9 9 10 12 10 10 10 12 12 14 16 38 48 60 61 64 86 89 85 73 51 42 32 32 34 38 37 44 45 49 54
11 11 10 10 9 8 8 8 8 8 8 8 8 8 10 12 14 14 13 16 28 36 47 66 68 87 90 78 84 97 96 91 86 76 65 45 68 62 54 56 60 71 69
11 10 9 8 8 13 15 15 14 13 12 12 11 10 9 10 12 15 16 15 17 19 39 58 75 86 89 76 88 99 97 97 96 93 86 85 91 96 93 92 96 91 88
9 8 9 12 15 15 14 13 12 11 10 10 10 9 9 9 9 12 16 19 22 26 28 31 55 79 97 94 84 90 98 100 90 72 86 100 97 96 97 96 97 93 93

GFSSE_500_rhum_036.txt.gz
RH
13 8 5 4 4 4 4 4 4 4 3 3 2 3 3 2 2 2 2 2 3 3 3 4 6 6 6 6 6 6 6 6 6 7 8 9 10 10 11 12 13 14 15
8 7 6 5 6 6 6 7 8 8 8 6 6 6 6 5 4 3 2 2 2 2 3 3 4 5 6 6 7 6 6 6 6 7 7 8 9 10 11 12 13 13 12
9 8 7 7 9 10 13 14 14 13 13 12 12 12 12 12 10 9 7 6 4 3 3 3 4 4 4 4 4 5 5 6 6 7 7 8 9 10 11 11 11 12 17
11 10 11 11 13 16 17 17 15 14 13 12 12 12 12 12 12 12 12 12 12 11 11 10 8 5 4 4 5 5 5 6 6 7 8 9 10 10 12 12 13 20 21
15 15 16 17 18 18 16 14 14 13 11 10 8 6 4 4 4 3 4 4 5 5 6 7 9 10 11 11 11 11 10 10 9 9 10 11 13 13 13 16 22 23 22
20 22 22 21 18 16 15 13 11 10 8 6 4 4 3 3 3 2 2 2 3 2 3 3 4 5 7 8 10 11 12 12 12 12 12 13 15 17 20 21 22 25 26
26 26 24 19 15 14 13 12 11 9 8 6 5 4 3 2 2 2 2 2 3 4 5 6 7 7 6 7 8 9 10 11 12 13 15 17 18 18 22 26 29 29 30
27 25 20 16 15 13 12 10 8 7 6 5 4 3 2 2 2 3 5 8 11 12 11 9 7 5 4 4 5 7 12 13 16 17 17 18 19 19 21 24 27 29 31
26 21 17 15 14 13 11 10 7 6 5 5 4 3 3 3 4 9 14 16 17 18 17 13 9 7 7 6 6 7 10 13 13 14 17 18 20 24 26 27 29 29 30
19 17 16 15 13 12 9 7 6 6 5 4 3 3 4 4 6 10 10 14 18 20 18 14 13 10 6 6 7 7 7 10 11 12 16 22 27 27 27 28 27 26 27
17 15 14 13 11 9 8 8 7 5 4 3 4 4 4 4 4 6 9 13 18 20 18 21 18 9 9 9 8 8 8 10 12 16 17 16 16 18 20 22 22 24 24
15 13 11 9 8 8 7 5 4 3 3 4 4 4 4 4 4 6 6 11 18 21 16 19 18 11 12 11 9 8 8 10 13 16 16 13 12 14 16 20 22 22 23
11 10 9 8 7 6 4 4 4 4 4 5 4 4 4 7 11 9 8 9 18 18 13 17 16 10 13 15 10 9 9 11 12 17 15 15 13 19 20 21 26 29 29
10 9 7 6 5 5 5 5 4 5 5 6 5 6 6 6 6 10 20 10 13 15 14 14 13 10 9 11 10 10 11 12 12 20 18 22 20 24 25 25 27 28 27
10 8 12 6 6 6 5 6 6 6 7 9 13 12 9 7 6 8 18 37 21 22 31 33 24 19 17 10 9 9 12 14 11 21 22 24 23 27 27 29 28 25 20
10 9 8 8 8 9 10 13 8 10 10 10 14 6 5 5 8 9 13 33 41 41 30 26 34 35 27 24 13 11 15 20 15 12 19 18 24 29 33 30 26 18 12
11 9 9 9 8 10 9 7 7 7 12 9 7 6 6 6 7 10 14 20 31 41 46 48 47 39 39 38 30 12 11 22 20 13 17 17 18 27 32 32 24 13 13
12 12 18 12 10 11 8 8 8 8 10 7 10 12 14 12 9 9 11 16 21 28 38 46 51 56 52 51 54 56 26 22 28 20 17 23 24 30 33 29 20 15 14
15 12 11 9 10 10 16 17 12 11 9 9 10 10 13 14 18 12 11 11 14 15 17 32 42 48 46 56 61 62 72 52 33 29 21 18 27 34 31 26 17 17 16
17 16 12 10 10 10 10 10 10 12 11 14 12 11 24 10 9 16 22 20 13 19 17 16 11 19 25 38 56 69 75 77 66 50 28 24 20 28 34 25 16 19 16
21 20 16 12 10 12 11 10 10 11 10 9 10 19 19 25 20 20 33 41 25 27 29 27 16 14 19 26 45 54 54 63 74 73 64 34 26 22 29 34 19 17 21
18 19 17 13 11 12 12 12 10 10 10 10 9 8 11 16 18 24 23 28 35 30 25 29 27 26 19 28 39 45 48 53 64 81 80 74 45 40 32 33 32 28 21
13 13 14 13 12 12 12 10 10 10 9 8 9 8 8 8 12 23 23 30 34 42 29 33 43 55 58 73 75 65 60 72 82 84 93 91 84 57 44 34 36 39 46
11 11 11 11 11 11 11 10 9 8 8 8 9 11 10 10 10 10 15 24 32 31 22 22 34 44 56 61 73 85 84 83 92 90 94 98 96 93 87 92 79 81 86
24 20 14 13 12 10 9 8 8 11 14 14 14 13 13 12 12 11 11 10 12 21 26 26 27 28 53 64 69 72 79 93 97 96 93 100 97 97 96 98 91 95 98
18 14 10 9 9 9 8 10 14 15 15 14 13 12 10 9 8 8 13 17 15 14 18 18 19 25 36 42 54 78 78 80 91 95 98 99 97 99 96 75 84 98 97

GFSSE_500_rhum_039.txt.gz
RH
7 8 8 9 4 3 4 5 5 5 4 4 4 4 4 4 4 3 2 2 2 2 3 3 3 4 4 5 6 6 6 6 6 6 6 6 7 8 8 9 11 12 13
7 8 6 4 4 5 6 7 7 8 9 10 8 8 8 9 9 9 8 7 6 4 3 2 3 3 4 4 4 4 5 5 6 6 7 7 8 8 9 10 11 12 11
8 7 6 6 6 8 9 11 13 13 13 13 12 12 12 12 12 12 12 11 11 11 9 9 9 9 8 4 4 4 5 5 6 6 7 7 7 8 9 11 12 11 13
9 9 8 8 9 11 14 15 16 16 14 14 13 13 13 12 11 9 8 8 8 7 7 8 8 8 9 9 10 11 10 10 9 9 9 9 9 10 11 12 12 15 19
12 12 12 12 13 14 16 17 16 14 14 12 11 9 6 4 3 3 3 3 2 2 2 3 3 3 3 4 5 6 8 10 12 12 11 11 12 12 15 16 18 19 21
14 14 15 16 17 18 18 18 15 14 13 10 8 6 5 4 3 2 2 2 2 2 3 3 4 5 6 6 5 5 6 8 9 10 12 12 14 15 16 17 19 23 26
16 18 20 22 22 20 18 16 14 12 10 10 10 7 5 3 2 2 2 2 3 6 8 10 10 10 8 6 4 4 5 8 12 12 15 16 16 16 16 17 21 23 27
20 22 25 24 22 19 17 16 14 13 10 7 5 5 4 3 2 2 3 5 8 11 13 14 14 12 9 7 6 6 6 9 12 12 12 13 14 16 19 21 24 26 28
25 26 27 24 21 17 16 15 13 11 7 5 5 4 3 3 2 2 3 5 6 8 12 15 15 12 11 9 7 6 6 6 7 7 8 9 12 15 22 25 27 29 29
31 28 26 23 19 16 16 14 12 7 6 5 4 3 3 3 3 3 3 3 5 7 11 15 15 16 14 9 6 7 6 6 6 8 9 10 13 15 17 18 20 18 18
32 28 23 20 17 16 14 12 9 6 6 4 3 3 3 3 4 3 3 4 5 7 13 16 14 14 14 10 9 8 7 6 6 7 9 12 13 13 11 11 13 15 16
29 27 21 17 15 14 12 9 7 6 4 3 3 3 3 4 4 5 9 9 9 7 11 16 12 12 14 12 10 12 9 6 8 8 10 12 13 13 13 14 17 18 20
25 19 16 15 13 10 8 7 5 4 4 4 4 4 5 4 4 3 5 6 16 13 10 13 12 12 12 12 10 10 8 6 9 11 12 13 14 16 17 18 22 24 26
18 16 15 11 9 8 7 6 5 4 4 4 5 4 5 8 9 8 6 5 8 25 18 15 25 29 26 19 17 16 9 7 8 12 13 12 13 15 18 19 25 27 28
16 14 11 10 9 8 6 6 6 6 7 8 8 10 9 9 5 5 5 6 8 13 31 36 29 24 24 38 37 27 22 11 11 13 18 16 12 14 14 16 23 28 26
14 12 10 9 9 9 7 8 8 10 11 7 6 7 8 6 5 5 5 6 8 11 22 36 40 43 43 37 34 36 36 31 18 10 20 23 16 15 15 16 19 26 25
14 12 12 10 10 9 10 7 7 7 7 7 6 12 9 6 6 7 8 7 8 10 13 16 25 32 43 49 51 50 44 44 50 46 22 26 24 18 18 18 20 25 24
13 13 12 11 11 11 11 11 10 8 6 7 7 7 6 7 10 9 11 13 16 13 11 12 13 14 20 31 47 43 46 50 49 55 70 52 32 25 22 20 21 27 25
14 14 14 13 12 12 12 11 10 11 14 13 9 8 11 17 12 11 19 14 9 11 19 21 16 12 15 13 11 12 30 36 42 53 70 76 69 45 28 24 20 24 27
17 16 14 15 14 13 12 10 9 8 8 9 13 22 28 22 24 26 18 20 29 29 26 28 28 27 27 26 21 17 14 22 25 48 59 72 84 78 58 34 24 22 29
18 18 18 15 13 15 15 12 10 9 12 21 19 12 19 24 25 20 44 42 38 42 39 39 36 48 43 44 32 27 24 22 24 38 50 56 65 87 86 68 40 30 28
23 22 21 20 17 15 15 13 10 9 10 11 10 9 8 10 13 18 21 30 35 43 46 48 55 65 76 73 67 62 42 39 60 77 61 61 64 68 93 94 78 50 41
23 21 20 19 18 15 13 12 10 9 9 9 10 10 10 8 6 7 10 19 28 33 34 52 59 65 66 65 58 66 73 68 70 78 78 83 87 91 87 92 98 92 70
22 20 19 15 12 11 11 10 10 9 10 9 8 8 9 13 15 15 14 13 14 21 32 31 28 36 46 54 64 68 77 80 78 72 87 88 92 90 96 95 91 98 96
20 18 14 13 17 18 14 13 12 10 9 8 8 9 14 16 15 14 13 12 10 8 9 15 24 28 37 44 44 48 55 66 73 75 83 100 98 93 98 97 92 87 98
18 20 24 27 25 20 12 10 9 8 8 9 12 15 17 16 14 11 9 9 16 15 13 14 17 19 25 33 40 52 58 70 69 74 67 80 96 99 97 95 96 98 88

GFSSE_500_rhum_042.txt.gz
RH
9 9 9 8 13 7 4 3 5 6 6 7 8 6 6 6 7 8 8 7 6 5 5 3 2 3 3 4 4 4 4 4 5 5 5 6 6 7 8 8 9 10 10
8 7 6 7 7 4 4 6 8 9 10 12 12 11 11 12 12 12 12 12 11 10 10 8 7 8 8 8 5 5 5 6 5 5 5 6 7 7 8 8 9 11 11
8 5 7 6 5 6 7 10 12 13 14 14 13 13 13 13 13 13 13 12 12 11 11 10 10 10 9 9 9 9 9 9 9 9 8 8 8 8 9 10 10 11 12
8 8 7 6 7 9 11 12 14 15 16 15 14 13 13 13 10 6 4 3 3 3 2 3 3 3 3 3 4 5 8 8 8 10 11 11 11 11 11 12 12 13 15
12 9 9 9 10 11 14 15 16 17 16 14 13 13 10 6 4 3 3 2 2 2 2 2 2 3 4 5 6 7 7 8 8 8 10 10 11 11 12 13 15 16 17
13 12 11 12 12 13 15 17 18 17 16 14 11 9 8 6 4 3 2 2 2 2 3 6 7 9 10 10 8 7 5 7 9 8 11 12 13 14 15 16 14 13 16
14 14 14 15 16 18 19 20 17 14 12 11 13 12 7 5 4 3 2 2 3 5 7 9 10 12 12 11 9 6 5 6 9 11 11 11 12 14 15 16 14 17 19
14 15 16 19 21 23 22 20 17 15 13 11 9 7 4 4 3 2 2 3 4 5 5 7 10 12 13 11 9 8 7 6 6 6 7 7 8 9 11 13 17 21 25
17 18 19 22 24 25 22 18 17 16 15 12 7 5 4 3 3 2 2 3 3 3 4 6 9 12 14 13 13 9 6 6 7 6 5 6 7 9 10 11 14 18 20
20 21 22 25 27 25 22 18 17 15 15 9 5 5 3 3 3 3 3 2 2 3 4 5 6 10 11 12 14 10 10 9 7 6 5 6 8 10 12 12 12 13 15
27 26 28 30 27 24 20 18 17 14 11 6 5 4 3 3 3 3 3 3 5 7 7 6 6 9 10 9 10 12 10 11 10 7 6 8 10 12 14 13 12 11 14
40 41 35 31 27 22 19 17 15 12 8 6 4 4 4 4 4 4 3 4 6 6 10 12 8 8 8 8 8 10 9 9 10 7 6 9 10 11 15 17 17 15 16
46 39 34 29 27 22 18 15 12 8 6 5 4 4 4 4 4 5 7 7 6 5 5 9 13 10 12 18 20 19 16 16 12 7 7 7 12 12 11 13 17 17 18
47 37 33 27 22 18 16 12 8 6 5 5 5 5 6 7 8 9 5 4 4 4 4 5 9 20 19 18 20 22 33 36 28 20 11 11 13 17 14 11 14 15 19
53 32 29 22 19 16 12 9 8 6 6 6 7 8 9 9 7 7 5 4 4 4 4 6 8 14 31 34 35 34 29 27 32 35 31 18 12 18 23 16 15 15 17
45 32 22 18 15 12 10 9 10 8 8 8 9 7 5 6 9 8 5 5 5 6 6 6 7 8 12 17 27 31 36 45 48 47 48 52 47 22 22 26 20 19 18
30 27 23 17 14 12 10 9 9 10 8 8 7 6 6 6 7 6 6 10 11 10 11 13 14 12 11 12 12 12 13 21 39 43 47 60 61 61 61 35 30 24 21
27 23 21 16 14 12 11 10 9 10 11 11 10 7 8 12 8 8 12 14 10 14 18 13 10 12 18 21 19 15 13 12 13 16 36 50 50 68 70 69 54 35 27
22 19 17 15 14 13 12 13 15 13 13 11 10 12 11 8 9 20 25 22 23 24 20 21 28 33 30 31 33 32 30 26 24 21 18 17 30 51 76 81 83 68 46
23 20 19 17 15 13 12 12 12 12 11 10 8 8 14 30 37 38 35 34 34 25 24 34 38 42 44 46 41 40 50 43 38 37 28 29 30 32 49 71 80 93 85
24 22 20 19 18 16 15 13 12 11 11 11 14 23 31 34 30 40 32 18 14 21 28 32 52 50 64 68 77 78 68 69 73 66 62 52 43 45 45 54 63 70 89
25 22 21 20 18 17 17 16 15 15 15 12 11 11 9 8 8 8 9 10 8 8 10 15 31 40 44 59 66 81 64 62 76 69 62 61 79 78 79 90 78 72 77
27 26 22 19 17 15 14 14 14 15 15 14 11 9 9 9 9 8 7 6 8 13 14 14 14 27 36 49 46 48 42 46 52 64 69 77 74 79 86 88 94 94 92
29 26 24 21 19 19 18 16 14 14 11 10 10 10 10 10 9 7 7 9 12 15 15 14 12 10 15 23 41 49 53 49 52 57 62 68 67 76 86 96 94 96 100
31 27 24 21 20 20 18 17 13 12 17 24 18 14 10 9 8 10 14 16 17 16 12 9 9 12 14 12 22 28 33 34 36 64 43 47 68 78 78 77 89 100 100
31 27 25 22 21 18 15 17 26 27 21 16 14 10 8 8 12 17 18 15 11 9 10 10 8 9 8 8 10 15 21 27 24 33 41 46 97 98 84 96 81 80 96

GFSSE_500_rhum_045.txt.gz
RH
17 14 12 10 10 14 10 4 4 4 5 6 8 9 9 10 11 12 12 12 12 12 11 10 8 6 7 8 8 6 5 6 6 6 6 5 6 6 7 8 9 9 10
13 11 9 8 8 10 7 4 5 6 9 12 13 13 12 12 13 13 13 13 12 11 11 12 11 11 10 9 9 9 8 7 8 8 8 8 7 8 8 8 8 9 11
16 11 7 7 6 6 4 6 8 11 13 13 14 14 13 13 13 13 11 7 4 3 3 3 3 3 3 3 3 4 4 6 7 8 9 9 10 10 10 10 11 11 12
16 8 6 7 6 5 6 10 12 14 15 16 15 14 14 13 12 8 4 3 3 2 2 2 2 2 2 3 4 6 7 7 8 8 8 9 10 11 11 11 12 13 14
10 8 8 8 7 8 10 12 13 15 16 16 15 15 14 12 10 7 4 3 2 2 2 2 4 5 8 9 10 9 8 7 6 6 6 7 9 10 11 12 14 15 16
8 10 9 9 10 12 14 17 17 18 18 16 15 13 13 13 10 6 4 2 2 2 3 4 7 9 10 11 11 10 8 6 5 6 7 8 8 9 11 14 17 17 16
8 9 11 10 12 14 17 20 20 17 16 15 14 14 14 9 5 4 3 2 2 2 3 4 5 6 8 10 11 10 9 8 7 6 6 7 7 7 8 8 10 12 14
9 10 12 13 14 18 22 23 22 18 15 13 11 12 11 6 4 3 2 2 2 3 3 3 4 5 6 8 10 10 10 9 6 6 6 6 6 6 6 7 9 10 14
10 12 14 16 18 21 24 24 22 19 17 16 14 11 6 5 4 2 2 2 2 2 2 3 4 4 5 7 10 11 10 9 8 7 6 5 5 5 6 7 9 10 11
13 17 18 19 20 23 26 25 23 20 19 18 17 10 6 4 3 2 2 2 2 2 4 5 6 5 6 8 9 9 9 10 9 8 9 7 5 6 6 7 8 10 11
16 18 20 22 23 26 27 25 22 19 18 17 13 7 5 4 3 3 3 3 3 3 4 4 5 8 8 7 7 8 9 9 10 9 9 9 6 8 9 8 9 10 12
33 26 26 27 28 31 29 26 21 18 17 15 9 6 5 4 3 3 3 3 4 4 4 5 5 6 8 10 10 11 15 17 18 17 16 13 7 7 9 12 11 10 11
41 42 36 36 38 34 30 27 22 18 15 10 7 5 5 4 4 4 5 6 6 5 4 4 4 4 5 11 15 16 17 18 20 27 32 28 20 12 11 15 17 13 13
53 52 49 44 39 34 29 25 21 16 12 8 6 6 6 6 8 9 9 7 6 4 3 4 4 4 5 5 7 15 26 32 37 36 32 32 33 31 21 12 18 22 15
58 59 60 48 39 34 28 22 18 14 10 7 7 7 7 9 8 6 5 7 8 5 5 6 8 8 8 7 7 8 10 14 24 30 38 48 47 43 44 50 36 21 24
59 63 62 54 38 31 25 20 16 12 9 9 8 8 8 7 6 6 6 8 7 5 6 8 8 8 10 11 11 10 11 12 13 16 18 28 44 47 46 52 57 62 50
59 57 59 56 42 26 21 18 14 11 9 9 9 9 8 8 7 6 8 9 6 7 10 12 11 16 17 15 16 18 19 21 22 20 17 16 18 20 29 50 54 65 70
49 52 54 49 36 23 19 16 13 11 10 9 10 11 12 10 9 13 11 7 8 19 22 22 25 27 26 29 32 32 33 31 30 32 35 33 33 32 31 23 23 41 72
45 42 39 34 28 22 18 15 13 11 11 13 15 12 10 9 9 8 9 19 32 37 36 36 38 31 24 31 35 41 50 46 46 52 57 69 65 61 58 51 41 30 33
41 38 36 31 26 20 17 15 14 13 12 12 12 11 11 10 12 19 44 55 46 41 37 18 13 18 22 23 41 50 60 74 72 77 83 88 89 88 82 70 66 63 48
42 35 31 28 24 21 18 16 14 14 14 14 14 14 13 14 22 39 40 22 17 11 9 11 8 7 11 22 34 36 31 47 58 70 68 75 82 71 74 91 87 95 94
47 35 30 26 24 22 20 17 15 13 14 13 13 13 14 14 14 10 12 11 11 10 9 8 8 11 14 15 28 27 33 42 44 45 46 47 59 66 66 76 88 94 92
51 39 30 26 25 23 21 19 18 18 17 17 16 15 14 13 12 10 12 15 14 11 8 8 12 15 16 15 12 10 11 15 24 28 33 43 44 42 46 69 76 78 78
43 41 36 30 26 23 21 20 19 17 17 17 17 17 15 12 11 17 17 15 12 9 8 12 17 18 14 10 9 12 13 10 8 15 18 18 22 35 41 96 61 54 62
42 41 39 38 36 30 25 21 19 17 16 16 16 14 11 14 16 15 13 11 9 8 10 14 19 13 10 10 10 11 10 12 15 17 11 10 12 13 14 38 39 58 74
40 40 40 37 33 29 28 27 23 22 19 17 14 19 26 23 17 14 12 9 9 13 16 18 15 12 9 7 9 9 11 16 14 11 12 12 11 11 11 12 16 76 95

GFSSE_500_rhum_048.txt.gz
RH
25 28 24 21 16 11 13 12 5 3 4 6 8 9 10 11 12 12 12 12 12 12 11 10 10 10 9 9 8 8 8 7 7 6 7 8 8 8 7 8 8 9 9
21 18 14 10 8 8 9 9 4 5 7 10 11 12 12 13 13 13 12 11 8 5 3 3 2 3 3 3 3 3 3 4 5 6 7 8 8 9 10 10 10 11 11
26 16 13 8 8 6 6 6 6 8 12 12 12 14 14 14 13 13 10 6 4 3 2 2 2 2 2 2 3 4 5 6 7 7 7 6 7 8 9 10 10 11 12
30 20 13 7 6 6 5 6 10 13 14 15 15 15 15 15 14 13 10 6 4 3 2 2 2 2 3 4 7 8 9 8 8 6 6 6 5 6 6 7 10 10 12
33 23 10 7 7 6 6 8 12 15 15 16 16 16 15 15 15 13 9 6 4 2 2 2 2 3 4 5 7 8 9 8 7 6 6 6 6 5 5 6 7 10 12
27 14 7 8 8 9 11 13 14 16 18 18 17 16 16 16 14 8 4 3 3 2 2 2 3 3 4 4 5 6 6 7 7 7 7 5 5 5 5 6 6 7 9
15 8 8 8 10 12 14 17 19 19 19 18 17 17 16 15 11 5 4 3 2 2 2 2 2 3 3 4 4 5 6 7 7 7 6 5 5 5 5 4 4 5 5
9 7 8 9 11 12 16 20 23 22 20 18 16 16 16 15 9 4 3 2 2 2 2 2 2 3 3 3 4 5 6 7 7 8 8 7 7 6 5 4 4 6 7
8 8 8 9 13 15 19 22 24 24 21 19 18 16 16 13 6 4 3 2 2 2 2 2 2 3 4 5 5 5 6 6 7 8 8 8 8 9 7 5 6 7 8
9 9 10 12 15 18 21 23 25 24 22 20 19 18 15 9 5 4 3 2 2 2 3 3 3 3 4 6 6 6 6 6 6 7 8 10 10 10 8 6 7 9 9
11 13 14 16 18 20 23 24 26 25 23 21 20 17 13 7 5 4 4 3 3 3 3 3 4 4 4 5 6 7 9 9 11 13 16 21 23 22 17 10 7 8 11
12 14 14 17 19 22 25 27 28 27 24 21 18 16 10 6 5 4 4 4 4 5 5 5 4 3 3 3 4 4 6 8 11 15 20 23 24 26 27 25 16 10 12
15 18 23 23 24 27 29 32 31 28 25 22 18 14 8 6 5 5 6 7 8 7 5 4 4 3 3 4 5 6 6 6 8 12 15 23 29 33 38 39 36 35 25
23 24 32 40 39 36 37 37 33 28 25 21 17 11 7 6 6 7 7 6 4 4 7 8 6 6 7 8 8 9 9 11 11 11 11 12 14 16 20 24 36 44 47
41 45 44 43 44 44 43 39 34 29 24 19 15 10 8 7 7 7 6 5 5 6 7 6 5 6 8 9 10 12 14 11 11 14 17 19 19 17 15 16 25 39 45
46 48 50 51 51 52 54 43 35 28 22 17 13 10 9 8 8 7 7 7 6 9 8 6 8 16 18 18 22 23 22 22 26 29 31 30 30 30 30 27 23 20 18
49 51 54 53 55 63 58 44 32 26 20 15 12 10 9 9 9 10 10 8 10 11 7 12 26 31 30 31 33 30 23 23 29 36 42 44 45 47 48 45 51 45 42
65 68 62 59 61 63 60 53 38 25 20 16 13 10 9 9 13 13 10 10 9 8 19 41 42 36 35 30 21 18 20 23 24 40 48 61 74 80 88 85 82 82 81
70 68 67 66 62 60 59 52 35 26 23 19 14 11 10 14 12 10 10 9 10 24 42 48 41 38 34 14 13 12 9 14 24 35 40 42 58 66 76 81 91 91 88
69 69 69 59 54 49 44 40 46 64 20 16 14 13 12 12 11 11 12 12 22 39 41 24 15 12 12 9 8 7 10 13 19 34 41 57 63 64 56 56 51 55 63
58 55 51 48 46 43 39 33 27 21 18 16 14 13 12 13 12 13 14 14 13 13 11 12 10 10 11 10 8 10 13 16 16 14 13 23 36 32 36 35 39 52 42
70 56 51 46 42 39 36 30 24 20 19 17 16 16 16 15 15 15 14 17 16 13 11 12 15 15 11 9 9 12 14 16 12 10 11 14 14 11 16 23 25 22 25
81 83 69 57 46 40 35 30 26 22 20 18 17 16 16 15 15 15 15 14 12 10 20 20 19 15 10 9 15 17 17 14 12 11 10 10 12 16 23 17 15 14 14
74 77 77 66 57 45 37 32 30 26 23 20 20 19 18 17 17 17 15 13 11 20 23 20 15 10 9 13 19 12 10 11 7 5 7 10 12 12 13 15 15 15 14
74 65 59 57 57 54 42 33 28 26 24 23 22 20 19 18 18 17 13 14 21 21 16 13 11 9 12 18 14 12 10 8 9 9 9 10 13 16 16 16 14 12 10
70 56 48 45 44 43 40 38 36 34 29 26 24 22 21 20 18 14 22 23 22 18 16 14 9 10 18 15 12 9 7 8 10 12 12 15 15 16 18 12 10 11 10

GFSSE_500_rhum_051.txt.gz
RH
32 28 26 24 22 20 14 13 10 4 4 5 8 9 10 12 12 12 12 11 10 8 6 4 3 3 3 3 3 2 2 3 4 5 6 6 6 7 7 7 8 8 8
29 23 26 20 15 10 8 10 9 4 5 8 11 12 13 13 13 13 11 10 7 5 3 2 2 2 2 2 2 3 4 5 6 6 7 6 6 5 6 6 7 7 7
39 26 18 12 9 7 6 6 8 6 8 12 13 14 14 14 14 14 12 10 7 5 3 2 2 1 2 2 3 5 6 6 7 7 6 5 5 5 5 5 5 6 7
48 32 18 12 8 5 6 5 6 8 13 14 15 15 14 14 14 14 12 10 7 4 2 2 2 2 2 3 4 4 4 5 6 6 6 6 6 5 4 4 4 5 6
55 34 24 16 7 6 6 7 10 13 15 16 17 16 15 15 15 13 8 5 3 3 2 2 2 2 2 3 3 4 4 6 6 6 6 6 5 5 5 5 5 4 4
52 38 25 16 7 7 8 10 12 15 17 19 18 17 16 16 15 12 6 4 3 2 2 2 2 2 2 2 2 3 4 4 5 5 6 6 6 6 6 6 5 4 4
50 37 20 11 8 9 11 14 15 16 18 20 19 17 18 17 16 12 5 4 2 2 2 2 2 2 2 2 3 3 4 4 4 4 4 5 6 6 7 8 7 5 4
43 30 14 8 10 11 13 17 20 22 22 21 19 18 18 18 15 11 5 3 2 2 2 2 2 2 2 3 4 4 4 4 4 5 5 5 6 7 8 9 9 7 6
33 17 10 8 10 12 13 17 23 25 24 22 20 20 19 18 15 10 5 4 3 2 2 2 2 3 3 3 4 4 4 5 5 5 6 8 10 12 16 18 18 14 10
18 13 12 10 10 13 16 19 22 24 25 23 22 20 20 18 14 9 5 4 3 3 3 3 3 4 4 4 4 3 3 3 4 5 7 10 12 15 18 20 22 23 20
12 11 12 11 11 14 17 20 23 24 25 25 23 21 19 17 12 6 5 4 4 4 5 5 5 4 3 3 3 3 3 4 5 6 7 9 12 16 22 21 24 28 30
10 11 12 12 14 16 19 22 24 26 28 26 24 23 20 16 10 6 5 5 6 7 8 6 5 4 4 4 4 6 7 8 8 9 10 10 10 9 10 13 14 15 21
10 13 12 14 15 18 20 24 28 30 31 28 26 23 20 16 9 6 6 6 7 6 4 4 6 8 7 5 6 8 9 9 12 13 11 11 12 14 16 16 15 14 14
14 15 13 14 17 21 25 30 34 36 34 30 27 23 19 15 9 7 7 7 6 5 5 5 6 6 5 8 14 16 17 20 21 22 22 24 25 26 27 26 25 24 21
22 16 17 20 28 34 38 39 40 41 37 33 28 23 18 14 10 8 7 7 7 7 6 7 10 6 9 21 27 27 27 27 28 25 22 24 25 28 37 38 39 38 40
49 29 26 27 36 41 42 46 48 48 43 36 28 23 19 15 11 9 8 9 10 10 8 10 8 9 28 36 33 30 26 23 16 15 17 20 22 38 43 47 53 58 62
77 46 38 40 45 45 48 50 51 54 46 35 28 23 20 17 12 9 9 11 12 9 8 8 9 26 41 40 33 29 22 13 12 10 8 12 24 36 36 31 33 45 54
95 51 43 43 47 50 53 54 60 60 53 43 31 23 21 17 12 10 12 13 10 9 9 10 19 32 36 31 24 14 13 12 9 7 9 12 17 22 24 25 39 48 48
96 94 50 46 49 54 58 62 65 62 58 51 37 26 22 16 13 11 12 11 10 10 11 12 17 24 29 15 10 12 13 13 9 9 13 16 16 15 13 13 19 21 20
90 96 89 57 61 67 68 65 62 58 59 53 46 44 24 18 15 13 12 12 12 12 13 13 13 13 12 12 13 15 17 14 9 12 16 16 13 10 11 12 11 9 10
90 86 88 81 72 71 70 68 57 50 45 40 35 34 25 20 16 14 13 14 14 13 14 14 18 13 11 14 22 19 16 9 12 15 17 12 11 12 12 9 9 12 14
96 86 88 84 74 68 66 58 51 46 41 37 32 28 23 19 18 16 15 14 14 14 15 16 15 12 14 18 19 18 16 11 15 15 12 12 11 9 9 12 14 13 13
98 97 95 84 73 62 56 51 47 43 39 34 29 25 22 20 18 17 16 16 16 16 16 16 12 14 22 21 16 15 10 11 15 14 12 10 11 10 14 14 14 17 17
98 96 97 97 97 92 65 50 46 41 36 32 28 24 25 29 22 20 18 17 16 17 17 14 18 27 26 20 16 10 11 16 16 14 8 8 9 13 15 17 19 18 19
95 96 96 95 93 94 95 87 71 56 44 37 36 37 32 29 25 23 21 19 21 21 15 21 24 28 22 20 12 10 16 15 12 8 6 8 11 13 16 18 19 21 18
100 100 97 93 86 82 78 80 82 73 66 60 44 32 29 29 27 25 27 27 25 17 23 31 32 29 22 15 9 17 15 13 8 8 8 10 12 17 20 16 19 21 18

GFSSE_500_rhum_057.txt.gz
RH
54 46 40 31 25 24 20 17 14 10 5 4 6 8 10 10 11 11 11 10 9 8 6 4 3 2 2 2 2 2 3 5 5 4 4 4 4 4 4 4 4 4 4
58 41 34 29 26 22 19 14 12 10 6 6 8 11 12 12 12 12 11 11 10 8 6 4 2 2 2 2 2 3 3 3 3 3 3 4 4 5 5 4 4 5 5
54 42 33 26 24 18 14 10 9 10 7 9 12 13 13 12 12 12 11 10 8 6 4 3 2 2 2 2 2 2 2 2 2 2 3 3 3 4 4 4 5 5 6
56 40 32 24 20 13 8 6 5 7 8 11 14 14 14 14 13 12 11 8 5 3 3 2 2 2 2 2 2 2 2 2 3 3 3 3 3 3 3 4 5 6 7
60 50 35 27 20 12 7 5 6 7 9 12 13 15 15 15 14 14 11 8 4 3 2 2 2 2 2 2 2 2 2 2 3 3 3 4 4 4 4 4 5 6 8
65 61 50 37 24 15 8 5 6 8 12 14 15 17 17 16 16 14 12 8 4 3 2 2 2 2 2 2 2 2 2 3 3 3 3 3 3 4 4 5 6 7 8
70 67 60 47 29 18 10 6 7 9 15 17 18 18 18 17 17 16 12 9 5 3 3 2 2 2 2 2 2 3 3 3 3 3 3 4 6 7 10 10 10 9 8
67 65 62 53 37 18 11 8 9 13 15 20 21 20 19 19 18 17 14 10 6 4 3 3 3 3 3 3 4 4 3 3 3 4 6 6 10 13 15 16 15 12 11
62 59 59 57 42 18 12 9 10 14 18 20 22 21 20 20 19 18 16 11 7 4 4 4 4 5 5 5 4 4 4 4 4 6 11 15 16 18 19 19 17 16 16
62 58 54 57 53 17 12 10 12 15 20 22 23 23 22 21 20 19 16 11 7 5 5 5 6 6 5 4 4 6 6 4 8 15 21 21 21 21 19 17 16 17 17
65 55 47 53 52 23 11 12 12 16 22 25 25 25 24 23 22 20 16 12 7 6 6 6 6 5 4 5 6 6 5 8 16 24 24 24 22 20 16 15 14 13 12
66 46 33 45 45 26 11 12 14 17 23 26 27 27 26 25 23 22 18 13 7 6 6 6 5 5 6 5 6 7 6 15 26 25 26 25 20 15 15 13 10 9 8
66 37 30 29 40 23 11 11 14 17 22 26 29 30 29 27 25 23 20 16 10 8 7 6 6 7 7 7 9 8 9 22 29 28 26 24 15 17 17 15 12 8 8
53 32 20 18 22 21 18 12 14 18 21 26 31 33 33 31 28 25 23 19 14 9 8 8 8 9 9 9 9 8 11 23 30 28 22 14 18 20 22 18 14 9 11
53 38 35 42 21 14 17 13 14 17 20 27 34 36 37 36 32 28 24 21 17 12 9 9 9 11 10 8 8 8 14 23 28 24 13 13 21 23 21 18 13 10 13
64 40 36 48 39 16 15 13 13 18 21 30 37 41 42 42 39 32 26 22 19 16 12 10 10 11 10 9 10 10 11 12 13 12 12 16 22 22 20 19 13 11 15
37 30 31 46 36 23 16 14 14 16 24 34 41 46 48 48 44 34 28 24 22 20 16 13 12 11 10 11 12 11 12 15 16 13 11 18 22 21 21 17 11 12 14
29 29 26 43 66 36 16 16 14 20 31 38 43 49 52 54 50 46 41 32 26 23 19 16 14 12 12 13 14 13 15 15 14 13 12 21 22 21 20 14 12 13 14
33 28 26 31 67 63 49 20 17 23 35 44 48 53 55 60 60 55 51 42 35 27 20 18 16 14 13 14 14 15 15 15 15 13 14 22 23 21 19 14 13 14 15
32 32 28 37 63 82 88 58 24 22 34 47 51 56 55 58 60 59 58 50 47 40 23 19 17 16 14 15 17 16 15 16 15 14 24 25 23 22 17 12 13 15 13
38 35 32 42 59 73 81 95 76 42 45 53 53 54 58 62 62 60 52 45 39 32 27 21 19 19 20 19 21 18 17 20 17 20 26 26 25 21 16 13 15 14 9
55 46 40 44 52 69 73 91 91 96 72 66 63 62 67 68 67 62 53 46 41 38 32 33 28 42 30 23 20 20 24 24 20 25 27 26 21 18 14 14 15 11 8
83 69 55 50 51 58 60 64 72 89 95 90 83 78 76 72 69 61 53 46 40 34 28 24 55 52 31 23 23 27 34 23 26 32 28 22 16 14 15 15 12 9 9
96 86 75 71 64 64 70 70 72 81 92 86 83 82 82 77 66 57 50 45 40 38 32 42 55 29 26 28 31 27 25 28 34 31 27 19 14 15 16 13 10 12 13
98 97 85 79 82 78 77 94 88 82 92 89 85 93 93 86 70 61 52 47 44 39 31 43 66 34 33 33 30 27 36 34 32 28 26 13 14 15 13 10 12 14 16
90 95 97 97 97 97 98 97 99 96 92 91 89 89 85 87 86 78 63 54 51 40 50 80 38 38 39 30 26 32 35 30 29 27 12 13 16 13 10 10 12 13 16

GFSSE_500_rhum_060.txt.gz
RH
57 53 48 44 36 29 26 23 16 12 9 5 4 5 7 8 10 10 10 10 10 8 7 6 4 2 2 2 2 2 2 2 2 2 2 2 2 3 3 4 4 4 5
65 55 47 42 33 26 24 20 15 12 10 7 5 7 9 9 11 11 10 10 9 8 6 4 2 2 2 2 2 2 2 2 2 2 2 2 3 3 3 3 3 4 4
64 61 44 36 29 25 21 18 11 10 10 7 7 8 10 11 11 11 10 10 8 5 3 2 2 2 2 2 2 2 2 2 2 3 3 3 3 3 4 4 4 4 5
67 60 46 35 27 24 18 10 7 7 9 9 9 10 11 12 12 12 11 10 7 4 3 2 2 2 2 2 2 2 2 2 2 3 3 3 3 4 5 7 8 9 9
70 60 46 34 24 20 15 8 5 6 8 10 11 12 13 13 14 13 12 10 7 4 3 2 2 2 2 2 2 2 2 2 3 3 3 3 4 6 10 14 14 15 14
74 62 54 40 28 20 12 7 5 7 11 12 13 14 16 15 15 14 13 10 6 4 3 2 2 2 2 2 2 3 3 3 3 3 4 6 6 10 15 18 18 18 15
76 69 62 55 41 25 16 8 6 6 10 15 15 16 18 17 16 16 15 12 9 5 4 3 3 3 3 3 4 4 4 4 4 4 6 9 16 18 19 19 19 17 17
77 70 65 60 53 35 20 11 7 6 10 14 18 19 19 19 18 18 16 13 10 6 4 4 4 4 5 5 5 4 4 5 4 5 11 20 21 21 20 18 17 16 16
84 71 67 63 57 46 27 15 8 8 11 15 18 20 20 19 19 19 18 15 11 7 5 4 5 5 5 5 4 5 6 6 5 10 20 22 21 20 18 19 18 17 16
80 72 66 60 57 51 37 19 10 8 12 17 20 21 22 22 22 20 19 16 13 8 6 5 5 5 5 5 5 6 6 6 7 16 21 19 19 20 17 20 20 21 19
84 72 67 62 54 53 46 24 13 9 11 17 22 24 24 24 23 22 21 19 15 10 7 6 6 5 5 6 6 7 8 8 10 18 21 21 18 19 17 20 21 21 21
87 79 79 70 54 53 49 34 14 10 12 17 23 26 26 26 25 24 23 20 16 11 8 8 7 6 7 8 8 8 9 8 10 17 22 20 19 14 18 23 22 21 21
98 90 84 71 51 40 49 41 17 11 13 18 24 27 28 29 29 27 25 22 18 14 10 9 8 8 8 10 10 8 8 8 11 15 16 17 14 12 18 24 22 21 20
98 86 83 73 43 32 38 41 26 10 13 17 23 27 30 33 33 31 28 26 22 18 14 12 10 9 9 11 10 8 9 10 10 10 12 15 13 12 18 23 23 22 21
97 85 82 58 32 26 28 27 22 12 12 17 21 26 31 35 37 36 34 30 25 22 19 17 14 11 11 11 10 10 10 13 10 13 20 15 13 11 16 23 23 23 21
95 90 86 59 39 34 34 28 21 20 13 15 20 25 31 36 40 41 42 34 27 24 22 21 18 16 14 13 12 11 14 16 12 14 18 14 13 12 16 24 24 25 22
77 71 69 71 52 41 36 32 22 17 13 14 19 23 30 37 43 48 49 39 36 32 29 26 23 20 18 16 14 12 14 17 17 16 16 15 15 13 19 24 25 25 21
53 49 57 54 45 47 38 40 35 19 14 14 16 21 31 39 45 53 56 54 52 48 39 33 27 23 20 18 16 15 15 18 26 18 16 18 22 18 26 26 26 25 22
34 44 47 36 32 29 30 46 58 34 17 15 14 20 32 41 48 53 58 61 56 56 52 48 44 30 22 20 20 17 19 22 26 20 21 29 27 22 26 29 28 24 17
37 40 38 32 30 28 24 28 63 60 37 19 16 19 32 44 50 57 61 63 61 59 50 43 39 35 28 24 21 41 36 36 24 22 30 32 23 26 31 29 26 20 13
45 43 43 42 36 34 27 27 59 73 80 69 30 20 26 47 54 59 66 67 67 64 56 50 45 41 37 36 37 59 56 28 26 31 30 25 29 34 30 28 25 13 14
70 58 52 47 37 34 33 32 47 62 80 91 93 59 44 55 60 63 72 73 72 67 59 51 47 40 32 27 62 80 47 28 32 36 32 31 34 31 28 28 14 12 15
95 94 87 81 45 40 36 37 38 52 71 83 82 84 98 78 73 78 77 73 70 66 58 51 45 40 39 35 74 74 54 39 39 30 35 35 31 28 29 18 13 15 15
95 96 94 83 92 58 52 45 53 59 74 70 71 84 83 91 83 73 78 88 86 74 63 53 47 46 55 40 63 80 36 44 36 29 35 31 27 31 28 13 15 15 11
75 82 87 92 97 97 94 75 71 64 65 54 55 64 74 92 89 88 91 88 78 79 75 65 60 76 62 54 78 49 41 35 32 34 33 28 34 33 14 12 15 13 11
88 92 83 81 85 79 92 82 76 81 80 77 77 81 74 76 86 86 86 86 83 79 79 85 86 90 93 88 72 46 42 32 37 37 30 32 38 17 13 15 13 12 10

GFSSE_500_rhum_063.txt.gz
RH
58 55 52 48 45 40 36 32 26 16 10 6 3 4 5 6 8 9 9 9 9 9 8 6 4 2 2 2 2 2 2 2 2 2 3 3 3 4 4 4 5 6 6
58 54 52 48 44 38 30 26 21 17 12 8 6 6 7 8 9 11 10 10 9 8 6 4 2 2 2 2 2 2 2 2 2 2 3 3 3 4 5 7 10 10 12
59 58 53 47 42 35 28 24 20 13 11 8 7 8 8 8 9 10 10 10 8 6 4 3 2 2 2 2 2 2 2 2 2 3 3 3 4 6 10 15 16 17 17
64 61 60 48 36 29 25 21 16 10 10 9 9 9 9 10 10 10 11 10 8 6 3 2 2 2 2 2 2 2 2 2 3 3 3 4 5 8 13 17 18 18 18
69 66 62 50 37 27 24 18 13 8 8 9 11 11 11 11 12 13 12 11 8 5 3 2 2 2 2 2 2 2 3 4 3 3 4 6 9 16 18 19 18 18 18
79 71 63 50 37 25 18 15 7 5 6 8 11 13 14 14 14 14 14 12 9 6 4 3 3 2 2 2 3 3 4 4 4 5 6 11 20 21 20 18 19 20 19
84 77 64 54 40 28 19 12 7 5 7 10 13 14 16 17 16 16 15 14 11 8 5 4 3 3 4 4 5 5 4 4 6 6 9 16 20 19 20 18 21 22 22
88 81 73 63 55 40 25 15 8 6 7 12 16 16 18 18 19 18 18 16 12 9 6 4 4 4 5 5 5 4 5 6 6 7 12 17 18 16 18 17 20 21 22
88 82 74 69 63 56 38 23 12 8 8 11 16 18 20 20 20 20 19 17 14 10 7 5 5 5 5 5 5 5 6 7 7 8 12 15 20 16 16 16 19 20 21
90 85 76 71 67 61 52 38 18 10 9 11 13 17 19 20 21 22 21 20 17 12 8 6 6 5 5 5 6 7 7 8 8 8 11 14 17 17 17 14 15 20 21
86 87 83 74 69 62 55 49 32 14 10 11 14 17 20 22 23 24 23 22 20 15 11 8 7 6 6 7 8 9 9 8 7 8 10 11 13 22 15 12 15 20 21
88 90 85 82 73 67 56 47 43 27 12 11 14 16 20 24 25 26 26 25 22 19 16 13 10 9 8 8 9 10 9 8 8 10 10 10 15 24 16 13 14 21 22
98 92 91 82 78 76 62 50 43 42 19 12 13 18 22 24 27 28 28 27 25 22 19 16 14 13 10 9 11 11 10 9 10 16 12 14 30 23 15 13 14 20 23
93 96 90 91 90 85 66 44 44 46 39 14 14 19 23 26 30 31 32 31 30 26 22 20 19 16 13 12 13 13 12 10 12 21 16 15 23 22 18 16 15 18 23
95 96 85 85 90 88 71 42 35 41 33 21 13 16 22 25 29 34 36 37 36 33 25 23 22 21 19 16 16 16 14 12 13 18 23 26 22 20 22 26 20 21 25
96 96 95 99 92 97 82 41 29 26 28 24 17 14 19 23 28 35 40 42 44 39 29 26 26 26 24 21 20 18 17 15 14 15 27 34 21 24 29 37 23 24 28
91 96 95 94 98 97 84 51 38 32 23 24 22 15 16 20 25 34 43 47 51 46 44 44 42 37 33 28 25 22 20 20 16 18 26 33 24 27 36 32 24 27 31
90 83 95 95 91 85 80 71 53 42 31 21 22 16 14 18 21 30 41 49 56 58 58 55 52 49 44 42 34 29 26 22 32 39 47 45 33 37 39 24 28 34 30
55 82 92 80 85 87 77 72 59 49 51 35 29 22 14 15 17 27 41 50 58 63 66 60 57 52 48 46 43 35 31 28 47 55 58 40 38 42 40 32 36 31 28
65 56 65 59 65 60 54 52 38 32 34 46 48 24 17 17 16 21 38 48 57 63 65 64 63 60 56 51 46 43 40 36 57 72 47 37 42 43 39 38 31 28 30
73 61 79 52 43 43 56 38 32 28 26 25 61 57 48 57 30 22 25 45 56 61 67 68 68 64 58 52 48 40 34 37 67 70 56 41 43 37 37 33 28 30 30
93 84 67 68 62 78 52 43 40 35 31 27 38 73 87 91 91 72 46 43 53 59 64 70 67 63 62 58 52 47 48 43 60 79 67 46 42 33 35 30 31 34 24
85 89 94 90 82 79 79 51 45 34 37 42 35 54 80 92 90 92 81 59 59 72 73 78 77 70 71 69 60 51 58 58 60 68 45 42 35 35 34 31 36 31 17
82 88 90 98 95 91 79 79 60 48 47 55 46 61 82 85 81 82 79 84 81 73 77 79 81 75 70 73 68 68 76 74 70 66 44 38 35 36 33 35 37 20 13
96 92 86 88 98 97 97 97 97 95 96 93 79 76 67 74 66 57 68 80 84 84 89 86 86 80 82 80 76 80 82 77 74 68 47 35 37 36 36 41 36 19 15
82 86 83 90 91 84 90 83 90 95 97 96 91 87 71 74 83 86 84 87 87 89 93 86 81 87 89 82 80 79 68 71 73 44 41 36 36 39 39 42 26 16 14

GFSSE_500_rhum_066.txt.gz
RH
48 47 47 45 44 41 40 37 34 25 14 8 4 4 6 7 8 8 9 9 9 9 8 7 4 2 2 2 2 2 2 2 2 3 3 4 4 5 7 12 16 16 17
52 46 47 44 45 43 38 34 29 24 16 9 5 6 8 9 9 9 9 9 9 8 6 4 3 2 2 2 2 2 2 2 2 3 4 4 4 7 11 16 17 18 18
56 49 48 47 45 44 38 30 26 22 16 12 7 8 8 9 9 9 9 9 9 7 5 3 2 2 2 2 1 1 2 2 3 3 3 5 7 8 13 18 19 18 20
57 55 52 50 47 44 37 28 23 19 14 12 9 9 10 10 10 10 10 10 9 7 5 3 2 2 2 2 2 2 2 3 4 4 5 7 11 17 20 20 18 21 22
65 59 57 56 48 40 33 25 20 14 11 11 10 11 11 12 12 11 11 11 10 7 5 3 2 2 2 2 2 2 3 4 4 4 5 10 15 19 19 19 19 21 21
63 62 62 59 53 38 28 22 16 10 7 8 11 12 14 14 13 13 13 12 11 9 5 3 3 3 3 3 3 4 4 4 5 5 7 12 16 17 18 19 19 20 20
60 64 65 62 53 38 26 17 15 6 6 9 11 14 16 16 16 15 15 14 13 10 7 4 4 4 4 4 5 5 4 5 6 6 9 13 16 18 17 17 17 18 19
62 67 70 65 55 39 27 17 10 7 6 10 13 15 17 18 18 18 18 17 15 12 8 6 4 5 5 5 5 5 5 6 7 8 9 9 13 18 20 22 16 15 16
72 71 74 70 61 51 35 23 13 8 6 9 13 16 18 18 18 19 20 19 17 13 10 7 6 5 5 5 5 6 6 8 8 8 8 8 11 15 28 28 20 15 16
85 78 76 77 70 63 54 35 20 11 9 10 13 17 19 20 22 22 22 22 20 16 11 7 6 6 6 6 6 8 9 9 8 8 8 12 14 16 29 30 22 19 19
92 84 79 76 73 69 63 55 38 19 11 10 12 15 18 21 22 23 23 23 23 20 16 12 9 8 8 7 8 9 10 10 9 9 16 24 16 21 33 25 17 17 20
96 88 86 79 76 72 67 60 54 48 21 13 13 16 19 21 23 24 25 26 25 24 22 18 16 14 12 10 10 11 12 12 11 10 20 28 22 22 28 24 21 24 24
95 97 98 91 81 77 70 61 54 47 48 36 15 14 18 22 23 26 28 29 28 28 26 24 21 21 18 15 13 14 15 15 14 13 15 25 30 30 31 23 24 31 31
96 96 96 96 96 93 80 71 60 52 48 44 38 15 15 20 26 28 30 32 32 32 31 28 24 23 20 19 17 17 19 19 20 19 16 17 25 38 34 29 32 38 27
97 96 96 97 96 96 89 80 68 47 43 43 41 32 14 16 21 27 32 35 37 37 38 35 27 24 25 26 25 23 23 23 25 22 22 21 23 38 42 37 38 39 25
96 96 96 97 94 95 96 94 81 48 36 39 38 32 22 13 17 22 28 35 39 42 45 43 34 33 35 34 33 29 28 25 26 28 26 31 43 49 48 41 42 38 25
96 96 96 96 96 95 96 97 92 55 32 35 36 31 26 19 14 18 23 30 38 46 51 50 48 52 51 47 46 43 38 31 26 28 29 42 51 57 45 35 42 40 35
95 95 96 96 96 96 96 96 87 64 33 37 37 36 23 22 16 16 20 25 35 47 55 58 60 60 57 54 49 47 46 44 40 37 36 43 67 65 46 40 42 40 39
94 93 96 96 96 96 97 97 85 76 69 50 54 48 37 26 22 15 16 19 24 39 48 54 60 63 62 60 58 57 52 48 46 43 40 46 65 62 51 44 41 38 35
95 93 89 96 94 94 91 94 96 80 79 65 57 52 56 45 40 24 17 16 17 30 42 50 58 60 63 64 66 61 55 52 47 42 41 48 59 71 61 47 40 36 33
93 91 90 93 97 93 95 87 78 63 51 51 40 27 26 37 67 50 32 30 24 23 29 43 48 53 64 65 65 63 65 63 58 49 48 53 57 72 64 46 35 36 33
85 94 96 96 96 96 95 90 62 49 45 42 32 28 28 26 51 74 86 82 87 66 42 43 52 55 65 68 66 70 68 68 66 57 54 60 70 77 68 43 35 36 35
86 80 83 95 94 89 87 92 96 81 80 55 52 40 33 39 35 54 80 90 94 92 88 61 56 63 74 79 69 67 61 61 68 70 73 78 76 71 59 38 37 36 36
87 89 95 97 93 95 94 96 96 96 92 87 76 72 55 48 42 47 62 91 94 84 76 77 79 78 79 76 69 67 67 58 66 77 79 76 72 74 48 34 38 37 40
86 96 98 100 98 97 98 98 99 95 94 96 95 94 97 94 92 95 96 97 90 83 74 71 76 81 81 81 82 84 76 76 72 70 76 66 73 58 41 35 37 41 43
50 98 96 92 100 99 98 87 94 97 96 99 96 96 96 96 96 96 96 94 88 81 78 85 77 86 80 79 85 82 81 81 80 75 69 68 68 63 52 38 40 44 45

GFSSE_500_rhum_069.txt.gz
RH
33 34 38 39 39 36 33 33 33 32 26 14 6 3 3 4 6 9 9 8 8 8 8 7 5 3 2 2 2 2 2 2 2 3 4 5 5 8 10 13 16 18 18
39 36 37 40 38 40 37 36 36 32 24 15 9 5 5 6 7 9 9 8 8 8 7 5 4 3 2 2 2 2 2 2 2 4 4 5 7 9 12 16 18 19 21
42 44 45 45 42 41 41 39 35 29 24 14 11 7 7 7 7 8 9 9 9 8 7 5 3 2 2 2 1 1 2 2 3 4 4 6 9 14 18 19 19 20 22
47 48 50 49 47 43 43 40 34 26 22 14 12 9 9 9 9 8 9 9 9 9 7 5 3 2 2 2 2 2 2 3 4 4 5 7 12 14 18 18 20 21 22
54 53 53 50 48 45 44 39 31 24 18 13 11 10 11 11 11 10 10 10 10 10 8 5 4 2 2 2 2 2 3 4 4 5 6 9 11 14 17 18 21 24 20
59 56 57 56 55 48 41 35 27 21 15 11 11 11 12 12 13 13 13 12 12 11 10 6 4 3 3 3 3 4 5 4 5 6 7 10 11 14 17 21 29 25 19
66 62 58 58 59 54 39 30 23 17 11 8 9 11 13 14 14 14 15 15 14 13 11 7 5 4 4 4 5 5 5 5 6 6 8 9 8 13 17 27 31 26 22
71 66 62 62 60 55 42 28 18 15 8 7 10 13 14 15 16 17 16 15 15 15 13 9 6 5 5 5 5 5 5 6 7 8 8 8 9 13 21 29 33 28 24
75 68 66 64 63 57 44 29 17 12 7 8 11 14 16 17 18 20 20 18 18 17 14 10 7 6 5 5 5 6 6 8 9 9 8 9 16 23 21 27 34 27 24
83 76 77 72 66 60 48 34 21 13 8 9 12 14 16 19 19 20 21 21 21 20 18 12 8 7 6 6 6 8 9 10 10 10 10 17 28 27 27 32 35 31 28
86 83 79 76 72 65 58 44 29 18 11 10 12 15 18 20 22 23 24 24 24 23 21 19 14 11 10 9 8 9 10 12 13 12 11 16 26 30 31 34 36 31 33
96 97 89 82 79 74 66 59 50 32 20 12 11 14 18 22 22 24 25 26 26 26 25 24 22 20 17 16 14 13 13 17 19 20 19 18 19 23 28 37 39 36 38
96 94 96 95 86 78 74 68 63 56 48 30 14 13 14 17 22 25 26 26 28 28 28 28 26 25 23 22 21 21 21 23 25 28 28 29 27 24 27 37 45 40 41
96 95 96 97 92 86 80 73 68 61 56 52 48 35 16 14 15 21 24 28 28 31 31 32 32 30 26 25 26 27 27 27 28 29 31 34 32 29 37 48 52 45 41
96 96 96 95 96 95 91 82 89 85 61 52 47 44 40 25 14 14 20 26 28 31 34 36 38 38 32 27 29 32 32 30 31 34 35 35 36 35 41 52 60 45 41
92 96 96 96 95 96 94 95 94 94 78 59 48 43 39 36 28 17 14 19 25 30 35 39 42 45 39 39 44 45 44 42 41 39 39 41 41 39 42 56 65 49 40
92 97 95 96 96 96 89 92 90 94 82 61 41 38 38 35 31 23 16 15 20 28 35 41 46 49 48 52 54 53 51 46 46 47 47 45 44 42 44 58 64 53 46
92 96 97 95 96 96 96 95 96 96 86 58 41 35 33 32 29 25 22 17 19 23 29 38 48 58 61 63 62 60 57 56 56 54 50 48 46 43 46 51 65 67 52
96 95 96 96 96 96 96 96 96 95 96 74 42 51 42 36 37 30 22 20 17 18 21 28 41 50 60 62 62 62 60 62 62 58 53 55 56 51 49 52 60 70 58
93 95 93 94 93 98 94 97 96 96 96 80 77 77 80 62 54 47 48 38 28 17 17 18 24 39 48 53 56 60 66 66 65 63 65 62 61 62 54 57 66 74 65
95 96 96 97 96 96 96 96 96 96 94 78 92 94 77 72 51 33 32 49 55 39 21 19 21 27 42 44 54 62 72 74 76 80 72 62 62 69 75 78 79 75 62
81 99 91 93 96 94 94 95 96 94 95 78 59 53 47 54 44 29 26 29 58 81 72 68 70 46 43 51 45 56 72 79 79 78 81 69 63 65 71 78 80 68 72
41 58 94 94 90 92 88 81 88 86 91 97 91 55 51 46 43 37 40 57 55 67 82 86 93 88 92 77 67 65 60 64 65 70 75 72 70 71 77 77 72 67 69
43 46 82 92 96 88 92 100 99 94 96 93 96 96 77 79 83 91 94 86 90 91 82 77 78 89 84 85 89 80 68 68 64 62 75 76 78 77 76 69 71 73 72
38 41 59 83 83 98 91 90 95 95 96 98 92 98 95 97 97 96 95 97 96 96 95 97 97 86 80 88 89 80 73 69 65 57 68 81 72 74 71 65 69 70 80
35 32 32 61 90 97 92 93 96 97 94 96 96 96 95 96 97 98 97 95 96 96 97 96 89 88 83 83 89 90 87 87 81 77 72 70 69 73 75 71 69 55 71

GFSSE_500_rhum_072.txt.gz
RH
27 22 18 19 25 32 33 31 30 29 29 22 12 6 4 3 4 5 6 7 8 8 8 7 6 4 3 2 2 2 1 2 2 3 5 6 6 9 11 14 17 18 20
29 25 20 22 28 36 39 34 31 31 30 25 14 8 5 4 5 6 6 6 7 7 8 7 5 4 3 2 2 2 2 2 2 4 5 5 7 11 14 16 18 20 22
38 30 29 32 34 34 40 39 35 33 32 27 18 11 6 6 6 7 7 7 8 8 8 7 5 4 2 2 2 2 2 2 3 4 5 6 9 11 14 16 18 21 26
39 38 36 41 42 43 42 41 38 36 32 27 19 13 9 8 8 8 8 9 9 9 8 7 5 4 2 2 2 2 2 3 3 4 5 6 9 11 13 16 19 28 28
48 47 42 42 44 46 44 41 40 36 28 25 17 14 10 10 10 10 10 9 10 10 9 8 6 4 3 2 2 3 3 4 4 4 6 7 9 10 12 18 27 30 30
58 55 50 47 49 50 48 44 41 34 24 20 15 13 11 11 10 10 11 10 10 10 10 10 8 6 4 3 4 4 5 5 5 5 6 7 9 9 13 19 29 31 32
65 61 56 53 53 51 48 45 40 33 22 17 13 12 11 12 12 12 13 13 14 14 13 12 10 7 5 4 5 5 5 5 6 6 8 9 9 10 17 26 28 31 33
72 66 63 57 55 54 53 46 38 31 20 14 11 10 10 12 13 13 15 16 16 16 15 13 11 8 6 5 5 5 5 6 7 8 9 9 9 18 26 28 30 33 35
79 74 70 66 61 57 55 51 40 27 19 14 9 9 10 12 14 16 17 17 18 18 17 15 12 9 7 6 6 6 6 8 9 10 10 10 16 26 28 29 32 35 36
80 88 85 74 69 65 58 52 43 29 20 14 9 9 12 14 15 17 19 19 20 20 20 19 15 11 9 8 7 7 8 9 11 13 14 15 17 21 25 28 31 37 40
83 90 92 79 74 68 62 53 41 28 20 11 8 9 12 13 16 18 18 21 22 24 23 22 20 17 14 13 12 12 12 13 16 20 22 24 23 22 23 25 32 42 45
100 100 93 82 75 69 63 51 42 29 21 14 9 10 12 14 18 20 22 22 23 24 25 25 24 24 22 21 22 22 22 21 22 26 27 29 30 31 32 33 39 46 49
95 96 95 86 77 72 66 58 46 33 25 19 13 12 12 15 17 20 22 23 24 25 25 26 27 27 27 26 25 25 26 27 27 27 30 32 34 36 38 38 38 45 54
94 96 96 95 86 77 73 68 63 54 47 33 21 14 13 13 14 16 20 23 24 25 26 28 29 29 31 32 30 28 29 30 31 31 33 36 37 39 40 40 40 44 49
96 96 95 96 94 90 81 78 78 72 65 59 54 47 38 25 17 14 13 16 21 24 27 29 31 34 33 34 36 33 34 38 40 40 40 39 42 43 43 42 42 42 46
96 96 96 95 94 95 96 93 90 86 76 66 59 53 48 44 41 34 24 18 15 18 24 29 32 34 37 39 42 40 44 47 46 46 45 46 48 48 46 46 45 47 50
96 96 96 96 97 96 95 96 96 94 88 84 71 58 51 46 42 37 35 29 22 16 18 24 29 35 41 44 46 46 48 50 52 51 50 52 54 51 51 55 57 54 52
96 97 96 93 97 96 97 96 94 96 94 97 93 77 68 55 40 36 32 31 28 22 19 19 23 29 36 40 43 47 51 56 57 55 54 58 59 57 62 60 57 64 61
95 95 94 94 97 96 95 96 96 96 96 95 96 94 56 40 35 33 29 28 24 22 20 18 19 21 24 29 41 50 53 54 54 56 57 59 62 65 64 59 56 56 62
96 94 96 95 97 96 96 97 96 95 96 96 96 94 69 39 32 32 35 37 40 38 27 24 18 17 18 18 27 40 46 51 57 64 62 61 61 66 66 67 62 57 59
96 96 96 93 95 93 95 96 90 96 96 97 95 92 76 55 67 86 74 58 44 43 44 49 40 24 20 18 20 24 41 54 63 69 77 66 61 59 60 65 68 62 67
90 85 97 97 96 90 95 95 95 96 97 96 92 92 97 97 84 80 66 58 43 26 23 26 56 66 61 66 65 63 46 66 77 76 80 73 72 75 73 70 67 72 73
77 74 87 88 93 96 96 94 96 95 95 96 96 96 94 71 63 58 50 80 70 49 41 38 52 82 90 96 84 80 79 84 79 85 91 85 74 70 66 66 74 76 74
64 57 55 67 93 94 96 96 96 97 97 96 96 97 96 95 94 94 89 94 95 96 97 96 96 95 96 97 94 80 79 70 61 69 74 80 74 72 73 74 74 74 71
40 52 40 38 64 80 66 89 94 95 96 95 96 97 97 96 95 94 95 97 98 97 96 96 96 96 97 99 94 86 78 70 64 61 72 78 77 75 73 74 72 80 78
46 39 37 36 34 46 66 83 89 86 93 96 95 91 96 96 97 97 96 96 97 96 98 97 96 98 98 97 88 68 76 80 82 75 65 71 74 71 69 71 72 75 82

GFSSE_500_rhum_075.txt.gz
RH
30 28 24 19 17 17 20 25 30 29 25 24 20 11 4 3 3 4 4 4 5 6 6 7 6 5 4 3 2 2 1 1 2 3 5 6 7 10 12 13 15 18 20
30 25 24 20 18 19 24 28 28 31 28 26 23 15 7 5 4 4 5 6 6 6 6 7 6 5 3 2 2 2 1 2 2 4 5 6 7 9 11 12 15 18 25
37 31 27 22 20 22 28 34 31 31 31 30 26 21 12 7 6 6 7 7 7 8 7 7 6 5 4 2 2 2 2 2 2 4 4 5 7 9 10 12 16 24 25
41 37 31 25 26 26 31 35 36 33 33 32 28 23 17 10 8 7 8 8 8 8 7 8 7 6 4 3 2 2 2 3 3 4 5 6 8 10 11 14 20 26 25
48 42 38 32 30 33 35 38 38 37 36 33 28 20 18 11 10 9 10 9 9 10 9 9 8 7 5 4 3 3 4 4 4 5 5 6 8 9 11 15 25 26 28
48 45 44 41 38 40 42 42 41 39 37 32 26 17 15 11 11 11 10 10 10 11 11 10 10 9 7 5 4 4 4 5 5 5 6 7 9 10 12 22 26 26 30
55 48 48 51 48 45 45 45 43 42 38 31 22 16 14 12 12 12 10 11 11 12 11 11 11 10 8 6 5 5 5 5 5 6 8 9 10 10 19 25 27 28 31
59 53 52 55 57 52 48 48 44 44 38 32 20 15 13 12 12 12 11 11 12 13 14 14 13 11 10 7 6 5 5 6 6 8 10 9 10 16 23 25 26 29 33
58 62 60 59 62 61 56 51 46 43 40 33 22 15 12 11 11 11 12 13 13 13 14 16 16 14 12 9 6 6 6 7 8 10 11 12 13 17 21 24 27 30 36
60 64 74 70 63 64 64 59 52 46 41 34 23 14 10 10 11 12 14 15 15 15 16 18 18 17 14 12 11 9 8 9 10 13 18 21 23 24 26 29 31 34 32
78 66 80 78 68 67 64 62 57 50 41 28 21 16 10 10 12 13 15 16 17 18 19 21 21 20 19 18 18 18 18 18 18 20 23 26 28 30 32 33 35 36 33
95 86 83 89 84 76 70 65 59 49 38 27 20 16 10 10 12 13 15 17 18 20 22 22 23 24 24 23 23 23 24 24 24 25 26 28 30 33 34 35 35 34 35
93 96 92 91 90 84 76 70 61 48 37 25 19 14 10 10 11 14 16 17 19 20 22 23 24 26 26 27 26 27 26 26 27 28 29 30 32 35 35 36 38 37 38
96 96 94 95 98 88 80 70 60 46 40 27 22 17 12 12 12 13 15 16 18 19 21 23 24 24 27 28 28 28 28 29 29 32 35 37 38 38 38 41 39 38 41
97 96 96 97 98 90 80 68 61 50 42 30 24 19 16 14 13 13 12 14 15 18 19 20 22 24 27 30 29 30 32 31 33 37 41 42 42 43 45 43 45 47 47
97 96 97 96 97 86 75 74 65 58 53 43 39 33 22 22 16 14 14 14 14 14 15 17 20 22 24 28 30 32 33 35 36 39 42 41 42 43 42 45 49 50 51
96 95 96 96 95 92 93 94 90 85 68 65 63 57 52 48 45 40 35 35 30 27 23 19 18 19 20 22 27 30 34 35 36 38 36 41 41 41 44 53 56 58 56
96 96 96 96 90 96 95 92 96 93 80 76 75 68 62 59 54 49 46 42 37 36 31 27 22 19 17 18 18 24 24 28 30 35 42 43 41 46 51 58 62 67 65
95 97 97 97 97 97 99 96 96 97 94 96 84 75 69 67 63 56 54 50 48 37 31 28 26 25 22 18 18 18 18 19 24 29 35 37 40 50 56 62 61 60 59
93 96 96 95 96 95 95 97 97 96 97 95 96 90 94 94 95 77 76 58 36 28 24 20 19 18 18 17 16 15 14 13 18 23 33 33 36 40 47 57 59 62 64
96 97 92 93 97 97 96 92 95 96 96 96 94 94 95 98 96 90 60 35 32 30 33 38 36 36 35 36 30 23 18 18 18 23 27 30 35 43 50 58 62 62 59
97 92 95 96 98 96 97 96 98 96 96 94 95 96 96 96 97 95 93 77 76 73 67 57 43 30 27 28 36 50 54 57 60 74 70 67 61 64 66 68 65 65 57
96 95 95 96 94 93 96 97 96 96 97 98 95 96 97 96 96 97 93 89 91 81 59 69 80 74 77 68 37 48 73 89 77 81 85 83 81 73 67 67 69 66 60
97 92 96 95 96 93 96 98 97 97 96 97 97 97 96 97 96 97 98 95 92 95 95 95 97 96 96 95 93 80 79 80 82 88 90 82 75 74 64 63 63 67 66
82 86 75 54 80 96 96 97 97 97 96 96 97 97 96 96 97 97 97 96 97 97 96 97 96 97 97 97 97 95 97 83 81 71 63 65 62 59 64 71 69 71 70
89 90 66 51 56 64 73 84 90 95 96 96 97 96 96 96 96 96 96 97 97 97 97 97 96 94 95 97 96 96 97 100 95 79 65 62 57 57 66 72 77 78 74

GFSSE_500_rhum_081.txt.gz
RH
16 16 18 19 19 22 20 18 13 16 20 23 22 18 15 7 3 3 3 4 4 5 5 5 6 6 5 4 3 3 2 2 2 2 4 6 7 8 9 10 13 16 17
21 19 20 20 18 20 22 18 14 15 21 22 22 21 18 13 7 4 4 4 6 7 7 6 7 7 6 5 3 2 2 2 2 2 4 5 6 7 9 10 14 17 17
30 22 23 23 27 24 23 18 16 16 20 24 24 23 21 17 12 6 5 7 8 9 10 8 8 8 7 6 4 3 2 2 2 3 4 5 6 8 9 10 15 19 19
39 31 26 26 29 32 24 20 18 19 20 27 26 25 24 20 14 12 8 8 9 9 10 10 10 8 8 6 5 4 3 3 4 4 4 5 6 8 9 12 16 20 18
49 37 33 30 33 33 27 23 20 23 25 28 30 27 26 24 18 12 12 9 10 10 10 10 9 8 8 7 7 6 5 4 4 5 5 5 6 8 11 14 18 19 20
66 48 40 38 38 38 30 26 25 26 30 30 32 30 29 27 23 17 12 10 10 11 10 9 9 9 9 8 7 7 6 6 5 5 5 6 7 10 12 15 18 19 23
80 58 47 44 43 43 36 30 30 30 33 34 34 32 42 30 24 19 13 12 11 11 10 9 8 8 8 9 9 8 8 7 5 6 6 7 10 12 15 18 20 22 26
90 71 59 49 48 48 42 35 32 35 35 39 37 36 47 30 24 18 14 12 12 11 10 9 8 7 8 9 9 9 8 8 6 7 8 10 12 15 18 21 23 25 27
82 80 65 57 51 55 50 41 34 36 38 41 39 33 40 30 25 17 15 13 12 12 10 9 8 7 9 10 10 10 10 9 10 10 11 13 17 20 23 24 24 26 27
71 82 69 62 55 54 56 52 45 42 40 44 43 37 34 28 24 18 15 14 12 11 10 9 8 8 9 11 12 12 13 13 14 16 17 18 20 22 24 26 27 28 30
90 89 92 76 69 64 58 59 55 49 47 47 45 40 35 30 26 21 16 14 12 11 10 10 9 9 10 11 13 13 14 16 16 18 20 21 23 24 25 27 29 30 32
97 86 94 93 85 72 64 60 60 54 52 50 48 44 37 32 28 24 18 14 11 11 11 11 10 10 11 12 12 15 16 17 17 20 20 20 22 24 26 29 30 32 33
96 78 97 96 81 83 75 68 63 58 54 51 48 43 36 30 27 23 18 14 12 12 12 11 10 10 11 12 15 17 18 19 19 19 20 20 20 22 24 28 32 30 34
98 96 93 89 97 90 75 71 71 67 60 55 50 43 35 29 28 21 17 16 13 13 12 12 11 12 12 14 16 17 18 17 18 18 17 17 20 23 23 25 26 24 24
97 98 96 90 96 96 85 75 76 74 71 66 60 48 38 28 26 22 20 18 14 13 13 13 13 14 15 16 18 17 20 20 18 19 18 20 21 23 24 25 27 26 23
95 96 95 98 97 97 95 92 82 75 74 72 63 52 43 37 31 26 21 19 16 14 14 22 27 15 15 17 17 18 20 20 20 21 22 26 25 28 30 33 33 28 25
92 95 96 98 96 97 96 96 90 84 82 79 74 60 46 39 32 30 24 19 17 14 28 47 13 14 15 18 17 17 20 20 20 21 23 23 28 30 32 30 31 26 26
93 97 96 97 96 95 95 96 99 88 85 84 80 71 47 40 32 28 24 19 23 23 88 23 14 13 14 15 16 21 24 24 22 21 20 21 23 24 29 26 23 21 23
87 96 96 96 96 96 97 99 97 96 90 79 77 77 66 51 39 29 27 48 20 82 60 15 15 15 17 22 32 42 51 30 26 24 22 21 20 19 15 16 14 17 21
68 96 96 94 94 96 93 96 96 95 94 87 83 66 63 60 50 41 48 56 33 91 28 44 27 35 40 41 45 52 48 30 26 23 20 18 17 16 16 14 17 36 49
61 78 95 96 95 95 97 95 97 96 95 96 95 94 88 67 57 80 91 75 90 93 78 76 84 68 45 75 46 60 36 23 20 19 19 24 29 29 31 36 44 71 69
82 89 94 93 96 94 96 96 96 96 96 96 95 95 96 95 93 94 96 91 91 95 93 88 84 72 87 69 70 49 31 34 35 36 39 38 38 38 42 50 67 67 75
90 83 96 96 97 96 97 96 96 96 95 97 95 94 96 96 92 94 96 95 84 97 96 99 96 96 86 79 87 86 84 74 68 77 77 73 61 61 61 67 77 76 69
99 95 97 97 97 97 97 97 97 96 96 97 96 94 97 94 95 95 96 95 94 96 95 96 96 98 98 98 96 96 92 93 87 88 96 94 87 87 84 85 82 74 68
96 97 97 97 97 98 98 97 96 96 97 97 96 97 94 96 97 96 96 96 94 96 95 96 94 96 96 96 98 96 96 95 98 98 93 95 100 93 86 90 84 83 77
96 94 96 94 96 97 96 97 96 97 97 97 96 96 97 96 96 94 96 97 96 94 96 96 96 95 97 96 97 96 96 97 97 98 96 99 89 97 95 90 87 85 84

GFSSE_500_rhum_084.txt.gz
RH
25 20 17 15 14 16 17 17 16 15 14 16 20 21 18 14 7 4 3 3 3 4 6 6 7 8 7 6 4 3 3 2 2 2 3 5 6 7 8 9 11 14 15
24 26 24 18 16 16 17 18 19 18 15 14 20 21 19 17 10 8 4 3 5 7 8 7 8 11 11 8 5 4 3 2 2 2 3 4 5 6 8 8 13 14 14
10 40 31 24 19 18 21 22 23 20 16 15 19 21 20 19 16 12 7 5 7 9 10 10 9 11 10 8 6 5 3 2 2 3 3 4 5 6 7 10 14 15 15
6 48 43 31 24 21 23 23 24 22 18 17 18 21 20 21 20 15 11 6 8 10 10 10 10 10 8 7 6 6 5 4 4 4 4 5 6 6 8 12 15 16 17
31 44 63 39 30 26 24 28 26 22 20 21 19 21 21 22 23 20 15 12 9 10 11 10 10 9 8 8 8 7 6 6 5 5 5 5 6 7 11 13 16 18 18
68 56 78 58 38 31 28 30 29 25 24 26 24 21 22 23 25 24 20 14 11 10 11 10 10 9 8 8 8 8 7 7 7 6 5 6 6 9 12 15 18 20 21
23 34 78 71 51 38 32 33 34 28 27 30 29 24 23 23 27 26 23 18 13 11 11 11 9 8 7 6 7 8 7 8 8 6 6 7 9 12 14 18 20 21 23
17 24 82 79 65 47 36 37 40 34 31 35 34 29 27 22 29 28 26 21 15 13 12 11 10 9 6 5 7 7 8 8 8 8 9 9 11 15 18 21 22 23 25
54 26 94 84 82 60 44 39 41 38 34 35 38 36 30 25 39 31 27 22 18 14 13 12 10 8 6 6 7 9 9 9 9 10 12 13 15 18 20 22 24 25 25
90 43 71 100 94 75 59 50 48 43 37 38 42 40 32 30 36 36 28 22 18 16 13 12 10 9 7 6 7 9 10 11 12 13 15 16 17 19 21 23 25 25 26
54 81 98 96 98 74 66 59 55 51 44 42 42 41 36 37 34 33 29 25 18 16 14 12 11 9 8 7 8 9 10 12 12 13 16 18 17 18 22 24 25 26 27
38 92 96 96 89 89 69 62 60 56 49 46 45 39 40 39 37 35 31 24 19 17 14 12 12 10 9 8 8 9 11 13 13 14 15 18 19 21 20 20 22 25 27
52 95 96 97 98 93 87 72 62 63 61 53 49 42 40 41 40 36 30 22 18 16 14 12 12 11 10 9 10 11 12 15 15 15 16 17 17 17 17 20 25 28 28
27 89 96 97 95 90 94 77 66 65 63 58 54 50 41 43 44 39 31 24 19 16 16 14 13 12 11 10 10 11 13 16 18 19 19 19 16 18 20 23 24 28 29
22 89 93 97 92 98 98 92 96 67 66 62 62 54 48 49 45 40 29 22 20 18 17 14 14 14 14 12 12 12 16 16 18 21 20 20 22 21 22 21 24 27 26
31 86 95 97 98 96 90 96 96 93 79 68 68 60 56 47 40 32 27 22 23 18 16 16 14 14 14 46 38 13 16 16 17 20 21 21 21 22 24 23 25 28 24
42 57 97 96 99 99 93 96 96 97 97 83 76 69 63 56 50 37 27 22 23 18 16 16 16 15 27 82 30 15 18 18 18 20 23 22 22 22 22 22 22 23 23
62 52 96 96 96 97 94 96 96 96 95 87 88 81 72 64 55 46 33 24 20 20 18 17 17 18 51 84 18 16 16 17 19 24 38 39 25 23 22 22 22 22 19
99 70 92 96 96 96 98 99 96 96 97 96 94 92 86 73 60 47 33 27 22 23 22 19 22 33 88 54 20 16 16 18 24 35 50 42 27 26 25 23 20 17 15
100 84 79 96 96 96 96 97 97 96 95 96 96 97 95 92 76 59 35 32 30 27 28 22 68 71 93 36 19 18 17 27 36 44 57 45 28 22 18 18 18 21 22
98 93 89 87 94 95 95 95 96 94 95 95 96 97 95 95 93 93 86 50 53 74 58 30 80 77 95 31 75 28 60 43 66 69 62 43 23 21 22 30 41 43 39
97 94 92 89 93 95 96 92 79 95 96 96 96 94 96 98 97 97 95 93 93 88 59 71 95 92 95 92 89 91 56 58 78 58 66 33 38 37 41 40 51 43 42
97 97 97 88 87 88 97 96 94 91 96 96 95 97 97 96 95 95 96 92 93 95 97 96 94 95 96 96 93 96 89 90 72 86 67 69 69 75 86 81 82 79 77
98 98 97 98 96 95 96 96 97 96 96 97 96 94 95 97 95 95 94 94 94 94 96 95 94 90 97 96 98 97 97 95 83 82 96 91 93 92 83 90 88 82 74
93 97 96 96 96 98 97 96 96 96 96 95 96 96 97 96 95 94 92 96 96 96 97 96 96 96 96 96 97 97 97 97 94 88 93 96 95 86 81 87 93 87 76
97 96 96 97 100 97 97 96 96 98 97 96 96 97 97 94 96 97 86 95 96 95 94 98 98 97 96 96 96 97 97 97 97 97 97 96 97 98 98 88 87 89 93

GFSSE_500_rhum_087.txt.gz
RH
13 24 17 17 17 16 15 14 15 16 14 17 18 20 21 17 14 8 3 3 3 3 6 8 8 10 12 11 7 5 4 3 2 2 3 5 6 6 8 9 11 13 13
5 5 23 18 16 17 15 15 15 18 16 17 18 20 21 19 16 12 7 3 3 6 9 10 10 11 13 11 7 6 4 3 2 2 3 4 5 6 8 8 13 14 14
6 7 7 28 20 17 18 16 16 18 19 18 19 19 21 19 17 15 12 7 5 6 9 11 10 11 12 9 7 6 5 4 3 3 3 4 5 6 7 9 13 14 16
6 12 12 26 34 23 21 21 18 18 22 21 19 20 22 20 18 18 17 12 6 8 10 10 11 11 11 9 7 7 6 5 4 4 4 5 5 6 7 12 14 16 16
5 17 15 11 26 40 24 23 22 21 21 22 21 22 24 22 19 19 19 17 12 8 10 11 11 11 10 10 8 8 8 7 6 6 5 5 5 6 9 13 15 17 18
7 22 14 12 10 43 38 28 25 25 26 24 23 23 25 23 21 19 22 21 17 13 10 12 11 11 10 9 8 8 8 7 7 7 6 6 6 8 11 14 17 19 19
28 40 49 16 22 44 50 41 32 30 30 28 25 26 28 25 23 22 23 23 22 17 14 12 12 11 9 8 6 6 7 7 7 8 7 7 8 10 13 16 19 20 20
8 63 65 44 57 47 68 55 41 36 35 34 30 28 31 28 22 25 24 25 24 23 16 14 12 11 10 8 6 6 8 8 9 8 8 10 10 12 15 17 19 20 20
6 50 76 54 39 49 62 65 50 44 39 38 36 34 32 30 23 27 25 28 26 24 19 15 14 12 10 9 6 6 8 9 10 10 10 11 13 16 18 20 21 22 22
28 58 57 68 42 35 62 79 57 52 47 45 41 37 37 32 25 30 30 34 27 26 21 15 14 13 11 9 7 5 6 9 10 11 11 12 15 17 19 22 23 22 24
4 21 54 81 78 37 53 84 82 51 53 52 47 41 41 38 31 32 38 40 28 26 22 16 14 13 11 9 8 6 7 9 11 13 12 14 15 18 19 21 20 23 24
4 8 65 69 91 98 51 94 85 70 56 60 54 48 46 44 37 36 34 37 33 25 22 16 14 13 12 10 9 7 7 9 11 14 14 14 14 16 19 19 21 22 21
6 12 18 47 64 92 96 97 98 85 60 59 59 53 53 52 39 41 40 36 31 26 22 18 14 14 13 12 10 9 8 10 11 14 15 16 16 14 16 16 19 21 23
6 17 14 18 25 97 97 97 100 87 75 54 57 61 67 48 48 50 45 41 34 29 23 19 16 14 13 13 12 11 13 12 12 15 16 19 19 18 17 17 18 19 21
16 24 10 13 21 97 96 97 94 90 72 60 55 59 68 65 54 53 50 43 37 29 23 21 16 15 14 14 14 13 13 15 13 14 16 18 21 20 20 20 20 20 20
11 9 18 20 12 98 96 93 98 84 79 70 57 57 64 68 57 58 52 44 38 28 22 20 18 15 14 15 16 16 27 38 19 16 17 19 20 22 23 22 22 21 20
5 31 50 14 24 90 96 96 95 97 77 71 77 58 54 68 68 62 54 47 38 31 22 20 18 14 15 15 16 18 74 72 35 17 17 19 18 24 32 32 25 23 22
20 88 57 37 11 49 96 97 94 97 97 92 77 78 70 78 74 66 61 50 41 33 23 19 18 15 15 16 16 18 63 80 28 19 17 17 20 29 47 48 28 26 25
70 99 96 95 37 25 96 93 96 97 96 96 92 95 93 80 76 73 64 54 45 35 27 22 18 16 16 16 18 20 40 86 28 21 18 19 23 31 48 52 35 27 21
91 98 94 90 75 27 95 96 96 97 98 97 92 98 97 83 82 82 70 62 53 43 31 24 18 17 17 28 23 22 62 81 28 23 18 32 35 47 58 59 38 22 20
98 75 81 90 95 68 93 97 96 96 97 96 94 96 98 92 91 93 83 74 58 46 33 26 19 24 57 45 42 38 79 94 40 52 32 55 44 64 69 64 32 32 34
79 89 97 98 96 87 84 97 98 96 96 96 97 97 96 96 97 97 96 89 82 60 30 31 88 84 82 75 73 67 79 94 67 76 64 66 42 74 62 73 42 52 56
43 95 98 100 100 90 92 95 97 92 96 96 97 96 97 97 97 97 97 97 94 84 63 90 95 97 94 94 92 88 96 97 94 92 89 82 87 74 77 71 81 82 85
60 96 100 99 100 100 91 91 96 92 96 96 96 96 96 96 98 96 96 98 98 96 98 95 94 97 94 97 98 97 93 95 97 96 97 99 96 87 89 93 82 80 87
62 96 96 98 95 97 97 97 94 94 98 97 92 95 97 96 96 94 95 96 96 97 96 91 92 97 97 97 96 97 95 96 96 96 95 88 99 93 95 100 94 89 88
90 94 96 96 97 97 97 92 96 99 95 97 96 97 97 96 95 96 97 96 97 96 95 94 94 97 96 93 94 96 97 97 96 97 96 97 97 96 97 98 98 97 89

GFSSE_500_rhum_090.txt.gz
RH
4 12 20 19 16 16 16 15 14 15 16 15 14 16 21 23 16 13 8 3 3 3 4 8 9 11 15 13 10 6 5 4 2 2 3 4 6 6 7 8 10 11 12
6 5 6 13 22 18 16 17 15 15 16 17 15 17 18 24 20 15 12 7 3 3 6 9 10 10 14 12 8 7 5 4 3 2 2 4 5 5 6 8 10 12 13
6 5 5 6 13 21 16 18 16 15 16 18 18 17 17 22 23 18 14 12 7 4 6 9 11 11 13 12 8 6 6 5 4 3 3 4 4 6 6 8 12 14 15
8 6 5 5 7 11 22 19 18 16 16 16 18 19 19 21 25 21 16 14 13 7 6 9 11 11 12 12 9 7 8 6 5 5 5 5 5 6 6 9 12 15 16
11 9 6 5 6 8 12 25 23 18 18 18 18 19 20 20 27 24 19 17 16 13 8 9 10 11 11 11 10 8 8 8 7 6 6 6 5 6 7 11 14 16 16
13 12 9 13 10 15 11 12 26 24 20 21 21 22 20 19 26 28 23 19 19 18 14 10 10 12 12 10 9 8 8 7 7 7 7 6 6 7 9 12 15 18 17
13 15 17 23 35 31 27 12 14 28 24 22 24 24 23 22 22 30 27 23 20 20 19 15 11 12 12 10 8 7 6 9 9 8 7 7 7 8 10 13 17 20 18
13 32 33 37 35 53 48 46 17 17 29 24 25 26 28 25 23 29 29 26 23 21 21 20 14 12 12 11 10 7 6 8 10 13 8 8 9 11 12 16 19 19 20
12 13 28 50 22 56 62 50 40 25 38 30 26 30 31 29 28 24 33 31 26 25 21 21 18 14 13 11 10 8 6 6 9 11 10 10 11 12 15 17 17 18 19
12 34 21 49 57 41 60 58 57 48 55 44 30 31 34 33 29 24 33 35 32 30 24 22 20 17 14 13 11 9 6 6 8 10 12 12 11 13 14 16 17 19 18
10 7 10 37 45 52 64 54 72 65 77 69 43 34 35 35 32 31 33 37 34 32 28 21 20 18 16 14 12 10 8 7 8 10 13 14 13 13 14 16 14 16 18
11 8 8 10 46 60 70 73 75 78 59 88 66 49 41 45 39 37 34 38 38 43 36 22 19 18 17 15 13 11 9 9 8 10 12 15 15 15 13 12 12 13 15
13 8 7 8 7 18 43 23 64 96 58 70 90 59 52 52 55 43 35 40 40 41 47 27 20 19 17 17 14 13 11 10 10 12 12 16 16 18 18 17 16 14 15
13 11 8 9 11 9 10 15 23 66 82 53 86 77 52 56 48 80 52 47 47 39 35 30 22 18 17 17 14 14 13 12 11 13 12 15 17 19 21 22 21 21 20
18 7 8 8 7 8 7 17 47 36 98 70 66 92 56 53 53 74 59 54 49 45 39 31 24 18 16 16 15 15 15 15 14 14 13 14 16 16 20 21 24 25 25
12 9 9 8 7 5 5 9 54 97 82 67 98 94 70 61 90 80 94 59 51 48 43 36 27 21 17 16 15 15 15 15 15 14 22 21 15 16 17 19 23 30 38
10 7 8 8 9 9 5 8 23 77 98 98 83 85 75 64 92 77 82 72 56 50 46 40 33 24 17 15 15 14 15 17 17 32 59 56 24 17 18 18 22 33 49
8 8 8 8 8 8 6 11 13 25 95 97 86 85 78 79 72 76 89 83 66 56 52 47 40 30 20 14 14 14 15 16 18 55 70 72 38 22 20 19 23 34 50
10 8 12 10 8 6 7 9 16 12 84 97 93 94 85 83 88 75 96 86 74 62 57 52 42 29 18 14 13 14 15 16 18 23 48 84 39 25 24 21 24 35 49
10 8 9 13 24 19 18 40 26 22 94 96 95 95 90 94 94 91 95 97 76 72 66 55 40 27 17 15 14 14 15 17 19 25 43 80 51 26 23 22 38 42 65
18 16 38 52 63 74 65 46 50 38 87 96 95 96 97 97 93 94 86 84 79 77 71 50 38 31 22 17 19 18 17 18 30 67 39 34 94 36 33 33 59 49 63
18 82 86 59 71 71 79 61 74 39 88 97 97 96 96 96 96 95 95 92 95 92 86 75 61 36 27 18 31 19 22 26 76 89 69 58 82 88 56 56 71 49 72
71 74 72 89 65 62 77 93 88 57 86 96 97 96 96 98 95 96 97 96 95 96 95 95 85 75 52 75 75 43 67 85 83 81 92 95 97 86 85 79 79 84 80
83 98 82 78 84 98 91 94 95 91 89 98 96 97 96 96 96 97 95 97 97 98 100 99 96 96 95 97 98 97 93 96 94 96 96 97 95 95 87 83 78 91 93
89 66 66 75 96 96 97 96 97 100 87 95 96 96 97 96 96 97 97 97 97 97 96 95 97 97 97 95 96 94 97 97 94 92 95 99 95 82 93 95 88 89 92
86 42 49 90 98 95 97 98 97 98 91 95 97 96 96 97 97 97 96 97 97 97 97 96 96 97 96 96 96 97 97 97 90 90 89 94 95 97 85 98 98 95 99

GFSSE_500_rhum_093.txt.gz
RH
4 4 7 16 16 16 16 16 16 14 14 17 15 13 16 19 22 16 12 7 4 3 3 6 8 10 14 14 10 7 6 4 3 2 2 5 6 6 6 8 8 10 11
3 4 5 7 16 17 16 16 16 15 14 14 16 14 15 17 22 21 16 10 6 4 3 7 10 10 13 15 10 8 6 4 3 2 2 3 4 5 6 7 8 12 12
4 3 4 5 5 13 14 15 17 16 15 14 14 17 16 17 18 23 19 14 9 9 5 6 10 11 12 15 12 8 6 6 4 3 3 3 4 5 6 7 9 12 13
8 6 4 4 4 4 10 12 14 17 17 15 14 15 18 18 18 21 23 17 14 12 10 6 9 11 12 13 13 9 8 7 6 5 5 5 5 5 6 7 10 14 15
11 11 8 5 4 4 4 7 11 13 15 16 15 14 14 18 19 19 23 22 17 15 14 12 9 10 11 11 12 11 9 8 7 6 6 6 6 6 6 7 11 14 17
11 12 12 10 7 6 5 5 6 8 12 13 16 15 14 15 19 20 22 24 20 18 16 15 14 11 12 11 11 10 9 8 7 7 7 7 6 6 7 9 12 15 17
11 11 13 16 16 12 14 13 15 15 10 11 14 17 16 16 15 21 20 23 24 20 19 18 16 16 12 12 11 10 8 7 8 11 9 7 7 7 8 10 13 16 17
42 13 11 17 17 21 31 29 33 24 21 12 12 17 20 18 18 17 21 22 27 25 21 20 19 17 16 12 12 12 9 7 7 10 13 10 8 9 10 12 14 16 17
59 57 21 13 16 28 34 38 35 37 32 26 18 22 24 22 18 22 20 22 28 29 25 22 21 21 17 15 12 12 10 8 6 8 10 10 10 11 11 12 14 14 16
43 68 68 68 32 24 34 28 37 37 38 36 32 28 30 28 24 20 24 24 30 33 30 26 24 23 21 16 15 13 11 9 7 7 10 11 12 12 12 11 12 13 12
25 24 49 45 74 78 78 54 46 44 38 35 41 39 44 40 32 28 25 30 33 36 34 31 29 24 22 19 15 14 13 11 9 8 9 10 13 15 16 15 14 14 13
25 25 22 16 12 24 69 87 88 77 53 43 47 54 53 52 44 38 31 29 34 34 37 34 32 26 20 19 17 15 14 12 10 9 9 10 12 15 16 18 18 19 17
30 30 26 16 11 9 10 35 59 76 71 46 48 62 65 60 54 50 37 31 31 37 39 37 38 28 21 18 16 16 15 14 11 11 10 12 13 15 17 19 20 25 25
32 32 30 24 14 10 7 10 12 30 40 26 45 42 63 60 66 51 62 42 34 37 41 41 45 46 26 19 17 15 15 15 14 13 12 12 13 14 16 19 21 22 24
35 35 34 29 22 12 8 8 10 11 10 14 26 28 38 83 57 63 65 70 60 38 40 42 43 45 39 23 18 16 16 16 15 15 16 15 15 13 16 18 19 20 22
37 37 36 31 23 15 11 9 8 9 8 11 35 40 37 67 61 82 64 79 93 95 68 53 43 37 34 28 19 18 16 15 16 16 17 17 17 20 20 18 17 19 20
42 36 36 31 23 15 8 8 8 7 10 14 12 38 31 72 64 77 86 94 68 97 98 54 45 44 38 31 21 19 18 16 15 16 17 18 19 29 48 41 21 20 22
44 41 32 28 15 12 9 8 7 7 10 12 11 11 68 80 93 60 84 78 81 78 96 86 51 48 46 37 30 23 20 17 14 15 17 19 20 46 73 70 52 22 22
48 46 40 30 16 11 8 8 8 8 11 8 10 14 86 93 79 66 77 98 96 96 96 84 69 54 50 42 37 32 27 19 15 14 15 18 20 31 68 66 85 35 22
51 48 43 30 18 16 9 9 8 10 11 8 8 11 69 95 94 92 90 93 82 75 96 85 89 67 57 51 48 40 28 20 14 14 14 16 18 21 28 48 81 59 22
45 41 34 31 26 18 10 9 11 12 11 12 12 10 15 57 88 97 94 94 97 86 97 99 94 91 65 60 51 38 27 21 16 15 14 16 29 49 26 45 89 72 80
29 38 63 49 22 17 10 10 15 25 25 47 29 22 42 97 98 97 95 96 83 95 94 96 98 96 77 69 51 41 38 30 21 16 19 37 29 21 38 75 76 44 76
32 48 61 38 27 22 28 49 31 42 37 40 69 75 94 93 91 96 96 96 94 89 91 97 96 96 86 64 78 85 60 41 34 33 44 73 26 60 80 91 97 95 92
47 63 40 33 27 58 77 46 33 36 64 76 66 96 98 84 97 96 96 97 97 95 95 95 95 94 87 93 93 88 67 86 92 63 85 94 95 98 99 96 98 96 93
58 45 51 56 62 67 53 67 72 68 88 100 76 97 97 96 96 97 95 96 97 97 97 96 96 98 96 96 96 95 95 96 96 93 90 97 92 98 97 99 94 97 97
80 84 87 80 81 66 74 91 97 90 94 89 97 97 98 96 96 97 97 96 95 95 97 96 97 96 98 98 96 96 96 96 94 95 97 95 97 88 90 90 86 90 86

GFSSE_500_rhum_096.txt.gz
RH
3 3 3 5 12 12 13 15 18 17 15 14 14 12 13 15 19 20 16 13 8 5 3 4 9 9 13 16 14 8 7 4 3 2 2 4 6 6 6 7 8 9 10
4 4 4 3 3 10 12 13 15 17 17 14 14 15 13 14 16 20 19 17 12 9 5 4 9 10 11 15 15 9 6 6 4 2 2 3 4 5 5 6 7 8 10
6 5 4 4 4 3 6 12 12 16 16 16 14 13 14 13 16 16 21 19 16 12 11 4 7 10 12 13 15 11 7 8 6 4 3 3 4 4 5 6 7 8 11
9 9 7 5 4 4 4 6 12 14 14 17 16 14 13 14 15 17 17 20 19 15 14 9 5 10 12 13 13 13 10 8 7 6 5 4 5 5 5 6 7 10 12
11 11 10 9 7 5 4 4 4 8 12 13 16 16 14 14 15 17 18 18 21 19 16 15 11 8 12 13 13 12 11 9 8 7 6 6 6 6 6 6 8 11 13
12 11 11 11 11 10 8 6 4 4 4 8 11 14 16 16 14 14 18 19 19 22 19 17 16 13 11 13 14 12 10 9 8 8 7 7 7 6 6 7 9 12 14
16 11 12 11 12 12 12 10 8 6 5 6 8 10 12 14 15 15 14 18 19 20 23 19 18 17 15 14 14 13 11 9 7 8 12 12 9 7 7 8 10 12 12
34 25 14 34 28 18 21 18 17 15 13 11 9 12 12 12 13 13 15 16 19 20 23 24 20 19 19 17 16 14 13 12 8 6 8 13 13 10 9 10 11 12 12
32 56 48 35 49 24 19 22 21 20 28 28 22 16 12 11 13 17 14 14 17 21 24 28 25 21 21 21 18 16 14 12 10 8 7 9 11 12 11 11 11 11 13
22 26 61 59 71 33 11 14 25 27 30 34 34 33 26 18 13 14 20 18 17 19 22 28 30 25 22 22 21 18 16 14 12 10 8 8 10 12 12 13 14 14 15
21 24 28 59 74 85 75 34 20 26 27 32 34 35 28 30 29 22 23 22 22 21 22 24 32 30 26 24 21 21 17 16 14 12 11 8 8 10 13 15 16 16 16
25 23 24 28 49 66 86 83 63 48 41 32 34 38 34 29 32 30 30 29 27 26 28 25 29 36 32 29 23 21 19 16 15 13 11 10 9 10 11 14 16 18 20
33 27 25 24 31 29 39 28 25 28 56 55 50 39 35 34 37 42 48 37 35 30 33 37 31 34 35 33 26 21 20 17 16 14 12 11 11 11 12 12 16 18 20
39 34 28 27 27 28 28 22 15 14 11 40 67 62 45 43 44 50 60 56 44 42 35 40 39 33 35 35 30 19 19 17 16 15 15 13 12 11 12 14 14 16 19
45 42 34 31 30 28 28 24 15 9 10 10 14 20 27 19 12 14 52 71 66 57 44 46 48 40 34 37 39 26 17 17 16 16 15 15 14 14 14 14 15 15 17
50 46 42 35 33 33 32 24 17 13 11 8 10 12 11 9 9 18 42 81 90 73 62 54 45 44 36 35 43 48 29 18 17 16 16 16 16 17 16 17 16 19 20
45 52 48 44 38 34 31 28 22 17 12 10 9 10 10 11 10 18 14 46 96 84 72 69 58 65 53 46 43 42 38 24 18 16 15 15 16 17 18 18 19 26 44
13 48 56 50 43 39 36 29 27 21 16 13 10 9 9 9 11 17 20 37 57 89 95 75 79 97 93 91 48 41 37 29 21 17 16 15 14 16 17 18 20 26 57
11 30 55 56 51 41 39 37 32 29 21 14 9 9 8 9 8 7 15 40 36 93 97 97 89 74 96 79 78 62 44 41 31 25 18 16 13 14 15 17 20 21 53
10 19 42 58 58 50 42 41 37 28 22 15 9 9 7 10 10 8 8 12 44 68 75 78 92 98 95 96 93 85 48 48 44 34 22 17 13 13 14 15 16 18 20
11 18 24 48 58 57 46 41 39 32 17 11 8 8 8 10 11 8 8 10 19 59 77 98 95 73 94 98 96 84 72 54 52 46 31 24 16 14 13 14 17 17 40
13 16 24 34 52 52 43 46 43 33 24 17 9 8 11 12 11 9 10 9 22 75 80 97 77 89 96 94 96 84 82 66 56 54 36 22 16 19 19 16 19 32 83
15 19 23 37 38 41 42 39 39 37 29 17 10 10 20 14 10 58 93 48 62 97 96 94 96 86 92 96 91 95 84 75 69 76 80 58 86 53 42 77 35 71 46
19 22 24 33 34 34 28 29 29 27 22 15 19 23 28 25 25 28 95 98 100 99 92 98 98 96 97 96 96 96 98 96 95 92 86 90 95 79 61 94 76 88 97
38 33 24 22 23 40 46 33 27 24 24 49 27 31 69 65 70 92 98 100 97 96 95 98 96 96 97 97 94 96 94 92 95 98 96 96 95 96 97 98 97 98 97
28 22 21 23 30 32 28 25 30 33 60 66 71 83 86 94 98 97 96 97 98 96 97 97 96 96 97 96 96 97 95 96 94 94 94 87 90 95 97 96 96 96 96

GFSSE_500_rhum_099.txt.gz
RH
4 4 3 3 4 12 11 13 16 17 18 16 15 13 10 11 12 16 16 15 13 8 3 3 10 12 12 15 16 10 8 5 3 2 2 3 5 6 6 6 7 8 8
6 5 4 4 3 3 6 11 12 15 16 18 16 15 14 11 12 13 17 17 15 12 8 3 8 11 13 13 15 14 7 7 6 3 2 2 3 4 5 5 6 7 8
9 8 6 7 5 6 3 4 9 11 13 16 17 15 14 15 13 14 14 18 18 15 12 9 5 9 12 14 14 15 11 8 7 6 4 3 3 4 4 5 6 7 9
10 9 9 8 7 7 6 7 4 7 12 12 15 16 15 14 14 14 15 15 18 18 16 13 9 7 12 13 14 14 14 11 8 7 6 5 5 5 5 6 6 7 9
12 11 10 10 10 14 12 7 7 5 4 10 14 17 18 16 14 14 16 16 16 17 18 16 15 12 10 13 13 14 13 12 10 8 7 7 6 6 6 6 6 8 10
17 14 12 12 12 20 19 12 13 9 8 4 5 11 16 17 17 15 14 16 17 18 18 19 17 16 16 12 14 14 14 13 11 9 12 14 10 8 6 6 7 9 10
28 20 16 17 13 17 19 22 15 14 18 12 6 5 9 12 13 15 16 15 14 17 19 20 21 18 18 17 15 16 15 14 12 9 7 14 16 14 11 9 8 10 12
24 32 53 36 21 15 22 16 14 14 15 18 16 10 6 6 11 12 14 14 14 15 18 20 22 22 19 19 18 16 16 14 14 13 8 7 14 16 14 12 11 10 12
21 24 36 60 52 25 20 42 30 24 25 25 25 22 23 17 10 29 22 17 14 13 14 18 22 24 24 20 20 20 18 16 14 13 12 8 7 10 13 14 13 12 12
20 21 32 38 54 53 47 34 46 30 18 20 20 21 24 31 26 19 22 18 19 18 15 14 18 24 27 25 22 22 21 18 16 14 12 11 8 7 9 13 14 15 17
18 21 23 26 50 42 60 61 64 38 19 16 17 19 22 30 35 32 27 22 18 17 22 18 16 20 28 31 26 23 22 22 18 16 14 12 11 9 8 10 13 15 16
21 20 22 26 27 28 51 48 90 72 44 35 28 23 22 26 34 32 27 27 25 25 24 26 22 20 27 31 32 27 24 22 21 18 15 13 12 11 10 9 10 13 16
39 32 29 26 25 24 35 64 70 76 62 58 40 35 34 32 33 34 34 34 29 27 30 30 28 29 30 33 33 33 30 25 21 20 17 15 13 12 11 11 11 12 12
9 40 42 38 33 28 32 45 40 87 66 64 50 34 36 42 37 36 37 36 38 36 40 41 38 34 35 39 38 36 34 31 21 18 18 16 15 14 13 12 12 13 13
4 4 27 46 44 37 48 32 36 92 46 37 26 27 16 19 48 52 50 42 40 42 57 60 58 43 38 40 46 42 38 35 28 18 17 16 16 16 16 14 14 14 15
5 6 4 13 48 48 41 33 30 63 33 29 25 33 14 31 29 23 24 43 30 22 43 55 72 74 54 39 38 48 47 41 34 23 18 16 16 16 17 17 17 16 17
10 6 6 6 7 48 51 41 35 86 57 35 28 25 22 14 21 11 13 13 11 17 33 54 88 85 73 61 46 50 48 48 37 34 22 16 16 16 16 17 18 18 18
9 10 8 8 6 9 52 51 39 35 42 46 34 31 22 19 12 12 13 11 10 9 13 34 72 89 97 89 96 79 66 52 49 55 46 23 16 15 15 15 16 18 19
10 15 13 9 9 8 12 57 50 39 35 33 32 29 26 21 17 11 10 12 9 9 9 11 26 43 86 95 96 88 92 97 64 48 44 32 22 18 15 14 14 15 16
13 18 17 14 11 10 8 24 60 50 40 33 30 30 29 25 19 18 13 9 9 8 8 8 10 31 49 88 95 96 89 96 96 64 56 39 32 25 21 18 14 13 14
13 20 20 19 15 11 9 12 46 60 51 38 33 31 29 29 27 24 14 9 8 10 11 9 8 9 17 82 96 96 97 97 94 86 97 90 46 37 28 22 19 14 13
9 11 12 12 11 10 10 14 24 57 58 49 44 41 35 30 24 22 13 9 8 10 12 10 8 8 12 52 90 89 94 95 89 99 96 87 64 45 52 28 23 24 19
8 8 8 7 9 16 11 18 26 46 58 56 50 44 39 32 21 13 10 9 10 12 13 12 12 14 31 54 55 65 71 78 97 96 96 95 95 88 48 60 76 69 70
11 13 34 26 26 17 23 25 27 44 52 52 50 47 43 37 30 19 13 13 13 13 10 24 85 90 51 66 79 90 98 98 90 92 95 94 99 89 92 92 93 94 95
50 27 24 17 28 27 25 26 39 38 36 35 33 35 35 33 26 18 16 16 17 33 34 46 96 100 86 99 96 96 97 97 96 96 98 96 94 96 96 96 97 95 96
57 28 23 21 24 28 34 32 31 40 30 26 29 28 26 22 27 32 40 34 54 49 89 94 99 97 98 94 91 96 96 96 97 96 96 96 97 96 96 94 96 96 98

GFSSE_500_rhum_102.txt.gz
RH
6 5 4 3 3 4 13 14 14 17 21 22 20 15 13 12 12 13 15 14 13 10 4 3 9 11 12 14 15 14 8 6 5 3 2 3 5 6 6 6 6 7 7
7 6 5 5 4 4 3 9 13 12 15 17 18 16 15 13 12 13 13 15 15 13 10 5 5 10 12 12 14 15 11 8 8 6 3 2 3 4 4 5 5 6 7
9 9 10 7 12 9 5 5 4 7 12 13 15 17 17 15 15 14 14 14 16 15 13 12 6 7 10 13 13 14 14 10 8 8 6 4 4 4 4 5 6 6 7
12 14 19 11 10 29 23 14 8 7 5 10 14 14 16 17 15 14 14 15 14 16 16 14 14 7 7 12 13 13 13 14 11 9 7 6 6 6 6 6 6 6 7
15 19 22 15 14 13 22 24 21 12 7 6 8 14 15 15 16 16 14 14 16 16 15 17 15 15 12 9 12 14 13 13 12 11 10 12 9 7 6 6 6 7 8
17 19 34 15 26 23 27 28 28 18 17 10 8 6 6 15 16 18 17 14 14 16 17 16 17 17 16 16 12 13 14 13 13 11 9 11 15 14 12 10 8 8 8
18 19 26 37 24 31 32 38 32 30 29 22 22 18 8 6 16 16 16 17 16 14 15 18 18 17 17 17 17 16 14 14 13 12 10 7 11 15 16 15 12 10 10
18 19 20 35 50 34 34 38 31 36 36 38 40 33 27 14 8 13 17 16 14 15 15 14 16 18 19 19 18 18 18 16 15 14 12 11 8 9 14 15 14 14 14
14 20 22 23 32 58 52 45 29 23 26 19 21 27 25 31 24 20 30 28 20 14 14 14 14 15 18 20 20 19 19 19 17 15 14 13 10 8 8 10 13 15 16
11 12 15 24 28 32 60 58 46 26 27 40 31 26 28 26 26 24 28 25 38 48 26 18 14 14 15 18 21 22 20 20 19 18 15 13 12 10 8 8 8 11 15
13 14 14 15 21 28 35 59 57 49 40 31 43 38 21 19 19 20 25 32 26 36 45 29 23 19 16 17 21 22 24 22 20 20 18 16 14 12 11 10 8 9 10
27 23 17 18 18 20 28 33 51 70 64 50 46 46 26 22 23 19 23 28 35 37 34 41 32 26 24 21 22 24 24 25 23 20 19 18 16 14 12 11 10 9 9
6 11 30 26 24 24 23 24 32 44 54 66 52 56 44 40 43 30 23 25 32 34 33 36 36 30 28 27 26 25 29 29 27 25 21 18 16 15 14 12 12 12 11
5 5 5 12 33 33 32 28 26 26 44 100 73 70 55 46 43 33 33 37 42 36 36 37 37 36 34 31 31 32 32 34 32 30 29 22 18 16 15 14 13 13 13
5 4 6 5 5 15 39 43 38 28 29 49 100 78 61 63 58 49 30 35 44 57 59 38 37 41 46 46 38 34 38 38 39 37 34 30 21 17 16 16 16 16 15
8 6 5 5 5 5 5 36 50 45 35 30 47 47 98 85 64 38 37 28 35 57 68 60 54 45 47 48 52 44 38 43 43 45 44 36 28 18 17 17 17 17 17
11 9 7 5 4 7 5 5 23 54 52 39 40 33 88 86 48 30 29 48 23 26 32 59 64 44 22 27 57 67 69 45 42 49 49 44 35 21 16 16 16 17 18
14 12 10 7 5 4 8 6 6 11 54 54 44 38 46 70 47 33 27 29 22 19 26 34 42 24 19 17 37 75 94 78 65 45 51 51 46 26 17 15 16 16 16
19 18 12 10 8 7 4 10 9 7 9 53 55 43 36 65 75 43 39 29 24 13 10 17 26 20 15 18 29 64 93 96 96 90 72 61 59 56 44 29 16 16 16
16 18 18 15 12 11 7 5 14 12 9 9 46 56 42 45 53 46 41 33 28 22 19 11 9 11 11 11 14 42 72 82 94 91 96 96 81 85 90 51 23 14 14
9 10 14 12 10 11 11 8 9 17 15 12 9 42 58 41 36 38 34 32 30 27 24 20 13 9 9 11 10 9 9 10 29 75 98 97 91 97 95 70 79 37 18
8 6 6 9 10 9 10 10 14 20 18 14 10 10 42 59 44 37 35 32 30 30 30 28 20 10 9 9 11 12 9 9 9 29 80 94 94 96 96 91 93 91 44
14 11 9 9 9 8 8 10 19 20 16 12 12 11 17 50 57 46 38 36 36 37 36 30 19 9 8 9 11 18 17 14 11 20 68 93 97 96 96 95 96 94 86
26 21 20 59 45 70 53 16 13 14 13 13 12 17 21 45 57 54 49 46 43 38 32 20 13 9 10 12 20 46 43 32 19 24 44 89 92 94 96 96 96 94 96
82 50 68 88 100 100 100 35 28 18 18 14 15 22 41 54 56 53 50 48 44 39 30 24 17 15 17 15 22 61 72 67 57 61 72 75 93 96 98 95 94 96 96
99 78 100 100 100 100 100 75 38 21 19 24 34 38 43 45 48 47 45 42 40 39 34 22 17 16 19 23 46 96 95 98 91 89 98 97 96 96 96 96 96 97 95

GFSSE_500_rhum_105.txt.gz
RH
8 6 5 4 4 4 6 12 15 14 19 26 32 28 18 14 13 12 15 16 14 12 6 3 8 10 12 13 15 14 9 7 6 4 3 2 3 4 5 5 6 6 7
9 8 7 5 5 4 4 4 8 14 14 18 24 24 22 15 14 12 13 15 16 14 12 8 4 10 11 13 13 14 13 9 8 7 4 3 3 3 4 4 5 6 7
12 10 9 10 8 9 8 4 5 7 8 12 16 16 18 18 16 15 13 13 14 17 15 13 10 5 8 12 13 13 14 13 10 8 7 6 4 4 4 5 5 6 6
14 13 15 20 23 11 15 33 19 13 9 8 6 10 15 16 16 17 15 15 14 14 16 16 13 12 6 9 13 14 13 13 13 11 9 8 7 6 6 6 6 6 6
16 16 18 20 34 34 27 27 34 28 25 12 7 8 10 15 16 15 17 15 14 14 15 16 16 14 14 8 10 14 15 14 13 12 11 11 13 12 10 8 7 7 7
16 18 17 19 33 35 31 38 32 35 27 22 18 12 11 7 9 16 17 17 16 14 14 16 15 15 16 15 14 12 14 16 15 14 12 10 10 14 15 15 12 11 9
14 16 18 18 18 37 32 34 47 42 38 33 27 24 24 18 8 7 11 18 19 18 16 14 16 17 15 15 16 16 15 15 16 16 14 12 10 8 13 15 16 15 14
10 12 15 17 19 20 42 34 40 42 47 43 40 41 40 40 26 19 16 13 15 23 19 16 15 15 17 17 16 16 16 17 16 16 16 15 13 10 8 10 14 14 14
10 10 12 14 19 22 24 49 43 37 44 41 39 39 41 49 33 33 37 21 18 36 35 20 15 16 15 15 18 18 17 17 18 18 17 16 15 14 12 9 9 10 12
10 10 10 10 21 22 23 29 42 59 47 46 38 28 39 26 34 33 38 29 29 31 31 26 26 16 15 14 15 17 20 19 19 19 18 18 16 15 14 11 10 9 9
19 14 12 11 12 13 25 23 33 38 58 54 48 26 23 37 39 36 28 26 25 27 32 31 30 25 24 17 17 17 17 19 21 20 20 19 18 16 15 13 11 10 9
9 16 23 23 17 14 15 21 22 24 33 40 56 52 38 30 36 44 31 19 19 25 34 36 34 36 32 33 22 21 19 20 22 23 22 21 20 19 17 16 14 12 11
4 4 5 7 11 18 24 21 19 19 22 28 34 49 55 50 52 51 44 28 30 31 25 35 44 42 35 29 32 27 24 23 23 23 25 23 21 20 19 17 15 14 12
5 5 5 4 4 4 6 9 24 30 21 20 23 29 42 43 40 57 70 48 40 40 39 42 49 48 42 35 34 31 27 26 25 26 27 28 25 22 19 18 16 15 14
6 6 6 6 6 5 4 4 5 7 26 32 25 23 25 60 90 49 74 58 57 54 49 54 68 69 67 50 42 41 38 35 30 29 32 33 31 27 25 22 16 16 16
9 9 9 8 8 8 7 5 5 5 6 14 36 36 31 26 74 97 71 84 70 60 64 53 52 64 64 72 71 60 53 48 47 38 33 37 40 38 38 33 25 17 17
9 9 9 9 10 10 10 8 6 5 5 7 12 32 43 38 31 36 95 79 89 92 62 39 53 58 66 74 74 71 60 26 26 41 41 41 44 46 46 45 36 21 16
9 9 9 9 9 9 10 12 10 6 6 9 6 6 28 51 47 39 32 45 55 96 59 31 39 40 50 70 63 75 69 48 21 31 40 94 92 47 49 53 51 45 22
18 16 13 12 13 13 13 13 13 10 8 9 7 7 6 15 51 53 43 42 38 89 64 42 30 40 46 46 49 61 57 25 16 35 81 70 89 71 86 73 61 62 58
15 15 16 17 18 17 19 20 19 15 16 12 8 7 10 8 7 36 56 49 42 44 78 53 36 29 29 23 16 20 46 26 14 22 31 74 99 98 95 92 88 84 92
9 10 10 11 12 13 16 20 22 22 19 17 14 9 8 12 9 7 12 52 53 42 43 87 58 36 32 27 20 14 13 21 13 14 11 40 51 97 93 96 95 96 97
9 9 8 7 8 9 7 9 15 19 19 20 16 13 13 14 14 11 8 7 42 55 42 44 37 35 33 31 30 26 20 13 10 9 10 11 12 13 11 39 64 94 96
24 16 15 10 9 9 10 10 15 12 27 32 20 15 15 19 19 16 11 7 6 31 55 46 38 35 33 32 31 32 32 29 11 10 9 11 13 19 19 14 39 83 96
68 75 64 28 21 23 35 36 61 24 24 43 26 17 20 22 20 17 10 7 6 13 49 54 42 42 44 38 40 37 26 17 10 9 11 20 26 25 28 24 23 76 97
93 98 72 40 40 51 72 85 78 91 100 91 66 18 18 18 18 12 10 8 8 26 52 59 52 59 66 59 41 34 26 15 11 13 16 18 67 49 47 53 39 60 95
92 98 80 66 81 99 100 100 97 98 100 100 63 18 13 12 12 10 12 16 31 49 59 64 74 76 66 43 38 32 26 23 27 23 24 58 76 85 95 98 91 96 89

GFSSE_500_rhum_108.txt.gz
RH
9 8 7 6 4 4 4 6 12 19 21 18 26 31 32 24 16 14 12 15 15 14 11 5 6 10 12 14 14 15 12 7 8 6 4 3 3 4 4 4 5 5 6
12 10 9 8 7 6 4 4 4 5 15 19 18 25 27 27 20 15 13 12 14 16 14 11 5 7 11 12 14 14 15 12 9 8 6 4 3 3 3 4 4 5 6
14 13 11 10 9 9 7 10 9 8 13 12 16 23 23 20 22 19 16 14 12 14 16 15 12 7 6 10 12 15 15 15 14 11 9 7 6 5 5 5 5 6 6
16 15 14 13 15 25 26 16 18 23 16 12 17 15 26 30 17 16 16 17 15 14 14 15 16 14 11 6 10 14 15 15 14 14 13 12 12 9 8 7 6 6 6
15 16 17 17 19 19 34 34 29 36 36 30 20 12 12 20 13 14 16 16 17 16 15 15 15 16 14 14 8 10 14 15 15 15 14 13 13 15 15 15 13 10 8
12 14 16 19 20 25 23 34 33 34 34 41 31 22 14 11 12 8 10 15 15 16 17 15 15 16 16 16 15 14 12 14 16 16 15 14 12 11 13 15 15 16 15
9 10 11 14 18 19 20 24 38 31 40 46 39 36 30 21 20 16 8 6 10 16 17 18 17 15 17 16 15 15 15 15 14 15 16 15 14 13 11 10 14 15 15
10 10 10 11 14 17 18 20 22 36 33 40 45 47 45 42 40 41 30 18 8 8 12 18 22 18 16 15 17 17 16 16 16 16 16 16 15 15 14 12 10 11 14
10 9 10 10 11 13 17 17 18 19 38 40 38 44 42 40 42 48 58 40 35 28 23 20 14 22 19 17 16 15 16 17 17 17 17 17 17 16 14 14 12 11 10
12 11 10 10 10 10 11 26 23 21 24 30 49 51 49 46 34 41 38 33 36 34 30 27 26 29 28 27 18 17 17 16 16 18 18 18 18 18 17 16 14 12 10
24 23 22 19 15 12 11 13 24 38 31 27 29 38 51 55 46 30 25 35 38 39 32 28 27 22 27 31 33 30 19 17 19 19 19 19 19 19 19 18 17 15 13
6 6 8 12 17 19 21 20 18 16 22 30 26 32 39 48 58 56 37 26 29 43 38 24 26 26 24 32 36 40 40 31 20 18 22 22 21 20 20 19 18 16 15
4 4 4 4 4 4 5 7 9 13 19 21 24 25 23 26 32 47 58 49 41 36 46 31 20 28 30 30 34 38 40 36 37 31 24 23 25 24 22 21 19 18 16
5 5 5 5 5 4 4 4 4 3 4 7 21 22 22 16 17 23 28 54 58 48 56 59 38 40 34 39 46 48 40 36 35 37 34 29 27 29 27 24 21 18 17
6 7 7 6 6 6 6 5 5 6 5 4 4 6 12 21 27 21 21 20 35 61 50 76 60 60 65 66 67 67 67 56 47 42 40 36 35 34 33 35 30 24 21
7 7 7 7 8 8 7 7 7 7 7 6 5 5 4 5 8 24 30 28 21 80 71 61 72 71 78 78 56 74 76 63 69 68 53 51 47 42 39 39 44 41 35
7 7 7 7 7 7 8 8 8 8 8 9 9 7 5 5 5 9 18 41 32 30 86 96 62 69 83 90 76 54 65 68 70 67 63 52 30 48 46 45 44 47 49
8 8 7 9 9 8 8 8 8 8 8 8 10 11 10 8 10 10 8 8 34 39 31 39 91 92 72 96 78 69 67 72 83 83 74 66 41 26 31 47 79 76 50
20 18 18 17 18 17 17 16 12 11 9 9 10 12 18 24 14 12 9 6 4 13 38 44 36 53 66 66 95 43 62 78 80 83 78 72 55 20 22 57 88 95 82
20 19 18 18 18 17 17 17 17 18 19 17 16 30 28 35 35 20 14 7 5 5 5 11 45 51 41 39 68 82 40 52 58 48 46 50 52 25 14 36 70 97 98
9 8 8 9 10 12 13 14 15 15 17 21 32 39 54 62 69 60 11 7 6 6 5 6 6 17 54 49 42 68 60 35 32 31 22 15 13 14 14 14 14 79 96
9 10 14 13 12 9 7 8 9 11 11 12 22 38 44 55 56 58 39 12 8 8 9 9 8 7 6 44 52 43 43 60 38 34 30 25 22 16 12 11 10 11 14
28 27 27 22 16 14 9 8 8 9 12 25 33 32 41 56 56 60 41 30 12 10 7 8 11 9 7 8 38 52 44 40 35 34 32 31 31 28 23 13 9 10 20
30 36 48 59 50 21 18 20 32 65 90 89 77 75 84 78 67 62 45 24 15 10 8 11 14 11 7 6 22 55 51 43 41 38 36 36 31 29 21 13 11 12 16
64 65 40 36 32 37 37 79 67 83 86 100 100 100 100 100 92 66 44 21 12 8 10 16 13 9 8 8 26 56 58 64 56 49 44 43 36 18 12 12 12 16 19
78 80 42 38 64 82 90 100 97 98 100 100 90 90 92 68 59 51 24 16 11 14 15 14 11 8 10 18 45 65 75 84 87 66 46 41 34 30 38 58 28 29 59

GFSSE_500_rhum_111.txt.gz
RH
11 10 8 10 6 5 4 4 8 18 18 20 21 21 31 36 32 18 15 12 14 16 14 11 4 9 11 13 14 15 15 11 9 7 4 3 3 3 4 4 5 5 6
12 11 11 9 8 7 6 5 6 7 11 19 19 19 20 26 29 28 18 15 13 14 16 15 11 5 8 11 13 14 15 15 13 9 8 6 4 4 4 4 5 5 6
15 15 14 12 14 11 9 9 8 13 14 15 19 24 24 25 26 23 24 18 16 14 14 16 16 12 8 6 10 12 15 15 15 14 12 11 9 7 6 6 6 6 6
15 15 16 16 14 19 17 23 23 17 18 19 16 19 22 20 24 25 18 16 17 17 16 15 16 17 14 13 7 9 13 15 14 14 14 13 14 15 15 15 13 11 8
12 14 15 17 18 27 32 26 29 32 28 37 34 28 16 12 14 26 25 15 14 16 17 16 15 16 17 16 14 12 8 13 15 15 14 13 12 13 15 16 15 16 16
10 11 12 16 16 17 21 32 33 36 37 34 32 40 32 23 16 12 17 15 12 15 15 16 17 16 16 17 17 16 15 13 12 14 15 15 13 11 10 12 14 15 15
10 10 10 10 11 12 15 18 22 26 33 41 39 44 48 40 36 25 21 19 12 7 10 15 16 18 17 16 17 17 16 16 16 15 13 14 15 14 13 10 9 12 14
9 10 10 11 11 11 11 16 18 20 22 26 33 37 43 47 50 47 41 41 39 25 15 8 12 16 19 19 17 16 17 18 16 16 16 16 15 16 15 14 12 10 9
10 10 10 10 10 11 14 13 12 23 24 21 27 27 38 39 43 44 46 45 45 52 38 33 26 20 17 18 22 19 17 18 19 19 18 16 16 16 16 16 16 15 13
21 18 15 13 12 10 10 10 10 10 14 32 39 28 25 37 48 50 47 44 38 42 33 33 34 32 27 28 26 28 28 21 18 19 23 20 18 18 18 17 17 16 15
25 25 25 24 24 23 20 17 14 12 10 12 30 44 28 26 27 34 52 52 49 37 26 32 40 40 29 26 22 26 29 32 34 28 21 22 24 22 19 18 18 18 16
8 7 8 9 9 9 11 14 16 18 21 20 14 13 25 28 27 28 34 42 50 51 50 33 28 32 44 30 25 23 22 27 33 36 36 28 22 25 26 24 19 19 19
5 5 4 4 4 4 4 4 4 4 5 6 9 17 19 18 23 26 24 23 32 39 52 51 43 42 39 46 23 28 31 30 31 32 38 36 34 29 25 26 30 22 19
5 5 6 6 5 5 6 5 5 5 4 4 4 4 6 10 17 22 23 24 18 17 23 32 49 47 46 59 45 32 37 32 39 38 41 39 36 36 34 29 28 32 31
6 6 6 6 6 7 7 7 6 6 6 5 5 5 6 5 4 4 7 14 24 23 20 18 22 44 40 55 65 70 66 61 64 60 54 49 44 39 39 38 34 32 34
6 6 6 7 7 7 7 7 7 7 7 7 7 8 6 6 7 6 4 4 5 11 34 38 33 29 50 67 72 65 80 90 73 70 69 68 68 64 56 48 45 46 41
6 6 6 6 6 6 6 6 6 6 7 7 7 7 8 8 8 8 8 6 5 5 6 20 57 57 60 89 90 78 88 96 96 77 68 64 62 73 69 58 54 42 55
8 8 8 8 7 7 7 8 7 6 7 8 7 7 8 8 9 9 10 11 10 7 10 11 12 27 45 43 72 86 77 83 96 88 90 86 88 93 87 76 61 30 16
20 21 20 19 18 16 14 12 12 12 11 15 13 12 10 10 15 27 26 52 40 18 15 10 8 6 7 22 36 44 64 80 69 83 83 61 82 91 90 93 77 56 22
21 20 19 18 18 17 17 17 17 17 18 18 19 19 20 22 45 45 49 64 73 66 36 16 12 8 4 4 5 10 29 39 46 53 55 65 59 77 68 72 60 52 37
9 9 8 7 7 8 7 7 7 8 11 15 16 18 20 42 44 61 59 65 87 73 65 53 27 9 7 6 5 5 5 6 22 42 40 47 72 50 39 45 38 21 16
12 11 10 10 10 9 8 9 11 11 12 12 12 12 14 53 62 72 83 86 94 93 90 73 41 15 10 10 8 7 6 6 6 10 35 46 47 68 54 46 34 28 20
10 8 10 10 10 11 11 12 11 11 11 10 9 11 12 13 58 97 100 95 100 98 94 78 62 25 14 10 9 10 7 6 7 7 12 32 46 46 49 48 34 32 28
19 26 35 24 16 15 13 12 12 13 14 22 39 50 82 85 62 61 99 99 98 97 85 71 62 42 24 12 9 9 11 8 8 7 7 16 37 47 43 36 34 34 32
43 40 50 26 23 19 23 38 47 55 65 50 90 94 99 92 98 97 90 79 82 64 70 74 60 48 29 14 7 8 13 14 11 9 8 10 39 49 43 39 39 39 36
44 41 47 42 50 65 78 52 68 89 86 99 100 100 100 99 99 99 99 99 90 98 82 67 54 45 25 11 10 14 16 14 11 9 8 17 49 59 67 78 86 72 52

GFSSE_500_rhum_114.txt.gz
RH
12 10 9 9 15 7 5 5 6 13 28 26 18 21 21 25 33 37 24 16 14 15 16 14 10 4 9 11 13 15 16 14 10 8 6 5 4 3 4 4 4 5 6
14 13 13 12 19 24 8 7 7 6 8 21 24 21 19 19 20 26 30 24 17 15 14 17 16 11 5 8 11 12 14 15 15 10 9 8 7 6 4 4 5 5 6
16 16 15 15 18 29 26 17 12 11 15 16 17 19 24 27 23 21 26 24 22 18 16 16 15 18 14 9 6 10 12 14 15 14 13 11 10 10 10 11 10 8 7
12 14 15 16 17 21 23 24 20 25 24 22 19 16 14 21 24 25 26 26 19 18 18 17 16 16 16 17 14 9 8 11 14 14 14 13 12 12 13 15 15 15 16
10 10 11 14 31 26 22 29 36 29 33 35 28 34 29 21 16 13 13 24 29 25 16 17 18 17 16 16 18 17 14 9 9 14 14 14 12 11 12 14 15 15 15
10 10 10 14 15 17 18 19 24 25 33 39 39 35 36 44 32 23 16 11 15 18 13 13 16 17 18 16 16 17 18 16 15 12 12 14 15 14 12 9 10 13 14
9 10 10 12 27 13 12 12 19 25 26 22 26 37 44 45 50 43 37 28 20 17 14 8 8 14 16 18 18 16 17 19 18 16 16 15 14 14 15 14 12 9 9
9 10 10 10 10 11 16 12 14 16 17 24 30 33 28 31 36 45 50 46 40 38 37 33 22 12 9 15 17 19 18 17 19 21 19 16 16 16 15 16 15 14 13
15 13 12 11 10 10 10 10 11 11 13 13 20 30 36 40 41 45 47 48 48 46 43 42 44 34 32 19 13 13 17 20 19 19 20 22 20 17 16 16 16 15 15
22 21 21 20 19 18 16 14 13 12 10 10 10 10 20 32 41 36 34 45 52 50 46 43 40 36 30 30 31 27 21 18 24 23 22 19 19 22 22 18 17 16 15
22 22 22 23 23 23 23 24 23 22 24 27 18 14 11 11 23 39 34 26 34 42 55 55 52 44 35 33 38 35 27 25 25 25 27 24 22 21 21 25 23 19 18
9 9 9 9 8 8 8 8 9 10 12 16 16 19 21 21 16 12 17 28 26 24 29 34 45 55 58 50 32 33 40 29 25 25 29 30 29 27 26 22 24 28 26
6 6 6 5 5 5 4 4 4 5 4 4 5 5 5 8 14 20 19 15 15 20 24 24 24 33 46 52 53 48 38 41 30 29 27 30 29 35 35 32 30 25 26
5 5 5 5 5 5 6 6 6 6 6 6 5 5 5 5 4 5 8 15 19 21 22 23 24 21 19 23 34 51 52 51 49 37 35 29 31 33 36 32 32 35 34
5 5 5 6 6 6 6 6 6 6 7 7 7 7 7 6 6 6 7 6 4 6 11 18 24 46 53 25 18 21 47 55 63 58 51 47 48 49 42 43 39 38 36
6 6 6 6 6 6 6 6 6 7 7 6 7 7 7 7 7 7 8 7 7 6 6 6 28 12 56 70 87 58 36 44 59 72 77 82 70 67 66 66 56 60 50
5 5 6 6 6 5 5 6 6 5 6 6 6 6 6 6 6 7 7 7 8 8 8 8 8 5 8 51 86 93 94 94 83 86 85 94 92 77 70 78 74 77 73
10 11 12 11 11 11 9 8 8 8 7 7 8 7 7 7 7 7 7 7 8 8 9 10 9 9 6 6 14 59 81 82 97 92 91 97 99 95 91 87 88 88 85
28 27 26 23 21 20 19 17 15 15 14 12 10 12 11 12 15 15 12 17 19 48 40 18 18 19 13 10 10 11 20 41 60 56 53 80 83 90 84 91 86 81 86
22 19 17 15 14 13 12 10 10 11 12 14 16 18 18 18 18 18 27 48 61 61 72 74 68 58 53 36 18 15 8 7 12 30 42 50 54 47 62 66 71 75 69
13 11 8 8 10 9 8 7 7 7 8 8 8 8 9 11 16 20 23 52 74 72 89 100 92 86 76 75 58 34 16 11 6 6 6 8 9 25 39 42 46 44 61
7 9 14 13 11 14 17 16 15 14 12 11 9 8 8 10 13 14 14 24 58 94 87 92 98 97 90 84 77 70 57 33 9 8 7 6 5 5 5 10 37 45 44
14 16 17 20 18 21 24 26 21 18 13 11 11 12 12 16 20 24 38 48 28 39 96 100 96 96 95 95 100 91 67 47 25 13 10 8 7 6 5 5 5 13 42
28 22 30 30 32 33 33 34 34 19 20 37 34 24 23 24 35 62 44 82 86 93 96 98 97 98 97 98 99 96 85 61 43 34 16 11 9 8 6 6 6 6 17
31 34 36 29 31 39 42 38 29 18 36 62 63 63 100 89 90 79 57 63 97 100 97 98 98 98 98 97 93 86 79 67 53 43 32 16 10 9 9 9 8 7 11
44 46 41 34 40 50 49 46 39 25 33 52 65 63 79 95 95 100 88 76 90 88 89 95 94 81 84 75 76 72 67 60 57 50 29 17 12 10 9 10 10 9 13

GFSSE_500_rhum_117.txt.gz
RH
12 12 12 12 20 28 8 8 9 10 12 24 28 21 19 22 23 26 31 31 18 14 15 17 16 10 5 9 11 13 15 16 13 9 7 5 4 4 3 4 4 5 6
15 14 13 13 13 21 36 23 16 19 11 15 13 24 26 20 19 19 20 26 29 21 15 13 16 17 14 7 7 11 12 14 16 15 10 8 6 5 5 6 6 6 6
14 15 16 16 15 18 24 30 26 16 19 15 18 18 22 25 27 27 23 21 24 25 22 17 13 14 16 18 12 7 10 12 14 15 15 13 11 11 8 8 9 10 12
10 12 13 14 18 18 21 24 24 26 23 27 26 21 18 16 20 21 24 27 28 28 21 18 19 16 14 15 18 17 12 8 10 13 14 14 14 12 13 13 13 13 13
9 9 10 10 12 24 25 23 23 33 41 36 36 35 33 39 35 30 24 14 11 17 26 27 20 18 18 15 15 16 18 17 14 9 10 14 14 14 12 12 14 15 15
9 9 9 10 10 23 21 15 18 22 27 31 36 44 44 41 38 42 36 32 20 13 10 17 16 16 14 17 18 16 16 18 18 16 15 12 11 14 15 14 12 10 12
9 9 9 9 9 10 21 17 16 12 15 23 27 30 36 36 43 48 50 47 42 32 24 17 18 10 6 11 16 17 17 16 17 18 18 17 15 14 12 14 15 14 12
11 11 12 11 10 10 9 10 11 12 16 13 16 18 25 32 42 41 45 47 52 53 49 42 41 39 30 12 8 12 16 18 19 17 18 19 20 18 16 14 14 14 15
14 15 17 19 18 18 18 16 14 12 12 11 18 12 12 13 24 31 37 40 46 50 53 55 53 50 46 42 32 22 10 11 15 20 20 18 18 20 21 20 17 16 15
18 17 18 18 18 19 19 21 22 23 23 22 19 15 11 10 10 12 25 32 35 37 46 50 54 53 56 51 38 32 29 28 22 18 18 21 21 20 19 20 21 21 19
24 23 22 20 20 20 19 20 20 20 20 21 22 23 23 25 20 12 11 10 18 31 34 29 39 49 58 57 50 46 36 35 36 29 25 25 25 24 25 21 20 21 22
14 13 12 12 11 10 9 9 8 8 7 8 8 10 13 17 20 21 21 18 16 14 17 23 28 28 28 33 44 49 53 47 35 34 38 25 24 27 31 30 28 28 24
8 7 8 7 7 6 5 5 5 5 5 5 5 5 5 5 5 7 12 18 21 21 21 18 16 20 26 28 25 25 35 47 49 46 40 40 32 25 26 31 33 34 36
5 5 5 5 5 5 5 5 5 5 5 6 6 6 6 6 6 5 5 5 5 6 10 17 22 24 23 25 27 30 26 22 22 28 42 45 46 34 34 31 31 33 35
5 5 4 5 5 5 5 5 6 6 6 6 6 6 7 7 7 7 7 7 7 8 12 27 6 11 23 50 29 29 37 32 22 20 24 40 48 46 44 39 38 50 56
5 5 5 5 5 6 6 6 6 6 6 6 6 6 6 6 6 6 6 6 6 7 7 14 17 8 20 16 42 41 33 76 76 87 56 51 62 71 63 59 56 64 80
4 4 5 5 5 6 6 6 8 9 10 10 9 8 6 5 6 6 6 6 6 6 6 6 14 17 16 23 10 25 18 39 86 95 98 95 92 93 91 85 82 77 83
7 8 9 11 13 15 18 20 21 21 19 19 18 18 16 11 8 9 8 8 8 8 7 7 7 8 9 44 24 21 8 9 57 86 96 97 97 95 98 94 98 97 91
19 28 30 27 24 22 19 17 16 14 13 12 12 13 14 15 17 17 20 21 19 18 16 14 18 38 30 24 14 8 8 11 9 9 42 76 93 95 98 98 97 97 96
31 30 24 19 16 13 11 10 9 7 7 7 7 7 7 7 8 10 10 13 19 25 34 51 61 62 76 96 64 44 29 12 14 12 11 14 32 42 66 66 77 99 96
25 18 14 9 7 8 8 7 8 11 15 15 16 13 12 11 8 6 7 9 13 25 51 50 62 81 86 88 94 96 86 69 54 48 20 18 12 10 11 13 24 45 55
11 7 7 12 15 12 15 16 15 16 19 22 24 22 20 15 13 14 13 10 17 31 29 43 60 62 97 87 89 87 91 76 70 73 76 60 29 14 10 8 6 6 6
11 18 21 18 18 21 22 20 24 24 23 15 10 12 16 17 17 15 13 16 17 29 39 42 49 98 68 98 97 92 81 75 89 83 83 80 76 59 34 9 8 7 6
21 24 21 23 25 26 24 27 34 27 28 16 16 27 48 68 73 70 41 16 24 38 42 77 46 56 50 99 97 98 95 85 74 64 81 94 89 64 43 31 17 16 12
20 24 34 37 29 31 32 32 37 34 34 31 30 26 43 50 47 52 62 76 67 58 57 99 100 75 100 100 100 98 99 98 88 65 59 74 83 81 66 41 37 25 13
31 34 36 36 34 34 27 37 39 38 42 41 48 40 36 47 46 46 61 56 53 45 41 74 75 94 94 92 96 96 91 92 72 60 77 57 50 52 59 53 47 36 20

GFSSE_500_rhum_120.txt.gz
RH
12 11 11 10 11 20 30 22 13 21 21 25 24 32 26 19 22 24 25 28 29 27 16 13 15 16 11 5 8 11 13 15 16 14 9 7 5 4 3 4 4 5 5
15 14 14 13 13 12 15 29 30 24 20 21 17 17 17 28 26 20 21 20 23 27 28 21 13 14 16 15 9 6 10 12 14 16 15 11 8 6 5 5 7 7 7
13 14 15 16 15 15 15 18 26 28 32 27 20 27 22 21 23 26 26 27 24 22 26 25 22 15 13 14 16 15 10 8 11 13 15 15 14 11 9 8 10 10 10
9 9 10 11 13 19 20 21 24 22 25 34 28 34 31 24 20 19 20 18 20 23 26 28 23 19 17 14 14 15 16 15 11 8 12 14 14 14 13 12 13 14 14
8 8 8 9 10 10 12 24 21 18 24 30 35 39 43 40 40 41 41 36 31 20 10 15 38 28 21 18 17 15 15 16 16 15 13 9 12 15 14 13 12 14 15
8 8 8 9 8 12 14 19 24 18 13 21 23 28 33 43 46 44 47 46 46 38 30 20 12 18 18 19 17 18 17 15 16 17 16 16 14 12 12 14 15 13 11
9 9 9 9 9 9 10 9 10 10 12 18 17 17 30 30 27 32 36 40 44 47 48 45 36 27 22 18 10 8 15 17 17 16 18 18 17 16 16 14 13 13 14
13 13 13 13 14 14 16 16 15 13 11 14 17 19 16 16 18 26 28 37 38 41 44 48 50 51 48 43 42 30 12 9 14 17 18 17 18 20 20 17 16 15 15
18 17 16 16 16 15 15 15 16 17 17 18 18 16 15 20 23 15 14 18 24 32 39 43 47 50 52 54 54 49 43 34 21 10 12 17 19 18 18 20 21 20 18
20 20 20 19 18 19 20 19 18 18 19 19 19 20 20 20 20 18 15 14 12 17 21 30 40 44 48 52 53 50 56 42 34 32 29 19 14 14 18 20 19 19 21
20 21 22 23 22 22 20 18 18 17 17 17 16 17 18 20 21 21 22 22 21 15 12 16 18 28 40 43 42 46 51 55 56 44 36 37 34 26 22 19 21 24 22
23 25 22 19 16 12 11 10 9 8 7 6 6 6 6 6 7 10 15 21 23 22 22 19 17 17 20 24 28 30 27 29 38 49 54 47 36 37 36 27 24 25 26
14 11 10 8 7 7 6 6 5 5 5 5 5 5 5 5 6 6 5 5 6 10 15 20 23 23 21 19 18 18 22 24 26 26 31 45 52 49 43 39 33 26 26
9 8 7 5 5 5 5 5 5 5 5 5 5 5 6 6 6 6 6 6 7 6 5 5 5 7 12 36 37 24 25 24 25 24 29 34 33 34 34 44 47 40 39
7 5 5 4 4 4 5 5 5 5 5 6 6 6 6 6 6 6 6 6 6 6 7 7 7 7 15 34 38 46 35 51 62 44 29 27 25 26 28 43 47 51 50
6 5 5 4 4 5 5 5 5 5 5 6 6 7 7 7 7 7 6 5 6 6 6 6 7 7 14 19 32 38 37 32 31 42 50 44 68 73 67 37 49 63 70
5 4 4 5 5 6 7 9 11 12 14 16 17 18 20 20 20 18 16 15 12 10 8 7 7 8 8 13 25 41 32 49 49 48 38 66 60 86 98 97 85 78 80
5 5 7 9 14 19 23 25 23 21 19 17 16 14 13 12 11 11 12 13 17 20 19 16 15 14 13 10 10 24 56 54 61 82 33 14 28 98 93 97 90 92 92
8 13 20 26 28 28 27 24 20 17 15 13 10 8 7 7 10 11 8 8 7 7 10 16 22 24 27 38 28 21 18 37 35 37 38 28 11 17 31 87 94 84 90
18 26 30 30 27 24 19 14 11 10 9 9 11 12 13 13 12 12 12 11 10 9 8 8 9 12 46 64 64 74 78 51 59 43 30 30 16 12 13 10 36 91 97
32 33 29 25 19 13 8 9 9 13 15 19 15 13 11 11 10 8 9 14 19 20 15 12 14 25 42 60 84 89 91 88 90 93 86 74 62 56 30 21 14 14 41
27 23 17 10 9 13 14 10 18 18 20 19 17 21 23 21 15 16 35 27 12 11 13 16 14 18 47 59 94 85 88 89 95 89 94 88 96 89 77 68 54 32 20
10 8 12 16 16 14 12 17 18 20 23 23 21 25 27 29 16 22 45 51 50 22 16 13 15 19 35 44 80 95 82 78 71 97 86 73 89 100 98 95 94 83 70
13 15 13 14 18 21 18 16 20 21 24 24 24 21 21 32 22 24 38 43 49 48 40 40 29 31 42 43 54 99 100 99 99 97 98 98 93 91 91 96 95 92 85
13 10 17 21 25 23 23 18 24 18 8 7 9 9 9 16 33 29 27 33 35 36 49 52 58 74 52 48 41 68 68 88 97 100 98 100 94 100 98 95 80 81 94
23 22 23 20 20 13 12 17 14 6 7 8 13 16 19 14 16 32 45 46 49 52 51 46 66 48 96 99 98 97 74 60 74 65 57 70 90 99 95 67 57 77 94

GFSSE_500_rhum_123.txt.gz
RH
14 12 11 11 10 10 14 24 26 19 28 24 34 24 31 30 20 21 24 25 26 27 27 20 13 14 15 10 6 8 11 13 15 15 13 8 6 4 3 3 4 5 5
14 15 15 14 14 14 12 12 16 27 27 31 37 19 18 17 24 29 23 21 21 21 25 28 25 14 12 15 14 10 7 9 12 14 16 15 10 8 5 4 4 7 6
11 12 13 14 14 15 17 17 17 18 21 22 31 30 23 22 23 20 24 26 26 24 22 21 26 24 16 13 14 14 14 11 8 10 13 15 16 13 11 9 7 9 10
9 9 9 9 10 10 12 16 20 25 21 22 30 36 36 35 27 20 22 22 21 18 17 19 24 26 22 18 15 14 15 15 14 12 9 10 14 16 15 13 12 12 13
8 8 8 8 8 8 9 10 11 25 22 17 19 27 30 35 42 41 36 36 36 36 33 27 15 11 27 29 22 18 17 16 17 16 14 13 10 11 14 15 14 12 13
8 8 8 8 8 8 8 12 10 11 14 22 18 17 16 20 26 34 36 42 39 40 41 40 37 33 23 13 16 20 19 18 17 16 17 16 15 13 11 12 14 15 14
9 10 9 9 9 9 10 10 9 9 9 8 10 11 15 18 30 32 31 25 29 37 43 45 46 47 41 35 30 24 19 10 11 18 17 17 17 17 16 15 14 13 13
13 13 13 12 12 11 11 12 11 11 11 11 11 11 15 15 15 24 32 33 27 22 25 33 39 44 49 48 47 47 45 41 24 9 13 18 18 18 18 18 17 16 15
15 16 16 16 16 16 15 15 15 16 16 17 17 15 14 13 14 16 15 24 29 34 27 28 30 35 42 47 54 57 56 54 47 40 31 16 12 16 19 19 19 19 20
13 16 17 17 17 17 19 18 18 18 18 18 18 18 18 18 18 19 19 19 19 20 24 27 30 30 29 34 42 45 54 63 57 56 45 35 31 28 20 15 16 19 20
12 12 12 14 16 20 21 21 20 18 17 16 14 14 14 13 11 10 13 16 19 22 22 22 26 22 25 29 30 31 34 47 48 58 62 58 47 35 35 35 28 24 21
16 18 20 22 21 19 16 14 10 9 8 8 7 6 6 5 5 5 5 5 6 6 9 16 24 29 27 32 25 24 24 28 34 34 34 38 47 52 52 40 37 38 34
23 24 18 14 11 9 8 7 6 6 5 5 5 5 5 5 5 5 6 6 6 6 6 6 5 6 10 18 28 35 37 25 19 18 24 28 32 32 32 46 55 50 45
18 9 9 9 8 6 5 5 4 4 4 5 5 5 5 5 5 5 5 6 6 6 6 6 7 7 6 7 11 21 42 59 54 33 24 26 30 30 28 32 37 39 41
9 9 8 6 5 5 4 4 4 4 5 5 5 5 5 6 7 7 7 7 7 6 5 5 6 6 7 7 7 7 15 36 58 68 69 59 64 60 41 34 37 29 33
8 8 8 6 5 4 4 4 5 6 7 10 13 16 17 18 18 18 18 18 19 20 20 17 12 8 6 6 7 8 10 14 27 45 61 56 71 60 54 43 47 52 53
8 9 8 6 5 5 6 8 13 19 22 23 23 22 19 17 15 13 12 11 10 10 10 11 15 19 20 15 8 8 11 11 15 26 40 48 59 63 60 68 82 84 96
7 7 6 5 6 9 14 19 23 24 23 22 19 16 13 12 11 9 9 9 9 10 10 10 9 8 9 17 23 30 22 28 22 20 39 55 58 63 78 66 34 59 96
6 6 7 10 17 23 25 24 23 22 20 16 12 9 9 10 10 10 9 10 10 10 11 11 17 14 10 8 9 17 37 46 56 34 30 31 43 69 60 49 25 15 82
9 15 23 26 26 25 24 21 17 13 10 9 11 15 15 14 14 13 14 13 12 10 12 10 9 19 23 14 13 32 61 70 78 89 74 67 69 52 66 69 37 28 14
29 30 29 25 24 19 13 10 10 10 11 16 17 19 16 14 18 19 14 16 12 15 26 25 14 9 14 24 18 19 57 68 79 83 90 94 97 95 72 65 72 50 40
29 27 25 16 9 10 11 11 15 14 16 17 18 16 13 16 14 8 14 18 16 18 23 26 31 29 19 17 18 21 25 46 97 97 99 97 98 98 99 96 92 91 87
25 15 9 10 10 10 12 20 22 19 17 19 15 11 10 11 17 18 16 17 22 26 32 34 27 27 41 41 22 26 31 48 73 86 97 99 98 99 95 90 84 88 86
12 10 11 8 10 15 19 16 15 15 17 11 6 15 22 22 24 26 26 20 17 18 21 28 43 42 42 43 54 36 30 44 92 70 96 98 100 96 100 99 98 98 92
13 18 17 18 20 19 19 15 7 13 11 6 7 16 23 31 33 31 26 29 32 30 27 25 22 37 43 37 38 30 32 26 37 39 57 100 95 97 98 94 92 98 98
18 16 16 18 21 20 16 6 8 9 6 6 7 15 24 33 35 38 29 20 13 21 26 30 34 28 35 56 51 58 66 60 54 49 68 63 58 66 73 82 72 72 84